[[{"header":{"parameterUnit":"m.s-1","parameterCategory":1,"la1":30.6,"la2":28.766,"lo1":-90.7593,"lo2":-88.6598,"dy":0.0162,"dx":0.0183,"nx":116,"ny":114,"refTime":"2024-05-29T06:00:00:Z","depth":0,"parameterNumber":2,"parameterNumberName":"U-component_of_WINDS"},"data":[0.0,0.0,0.0,0.0,0.0,0.0,0.0,0.0,0.0,0.0,0.0,0.0,0.0,0.0,0.0,0.0,0.0,0.0,0.0,0.0,0.0,0.0,0.0,0.0,0.0,0.0,0.0,0.0,0.0,0.0,0.0,0.0,0.0,0.0,0.0,0.0,0.0,0.0,0.0,0.0,0.0,0.0,0.0,0.0,0.0,0.0,0.0,0.0,0.0,0.0,0.0,0.0,0.0,0.0,0.0,0.0,0.0,0.0,0.0,0.0,0.0,0.0,0.0,0.0,0.0,0.0,0.0,0.0,0.0,0.0,0.0,0.0,0.0,0.0,0.0,0.0,0.0,0.0,0.0,0.0,0.0,0.0,0.0,0.0,0.0,0.0,0.0,0.0,0.0,0.0,0.0,0.0,0.0,0.0,0.0,0.0,0.0,0.0,0.0,0.0,0.0,0.0,0.0,0.0,0.0,0.0,0.0,0.0,0.0,0.0,0.0,0.0,0.0,0.0,0.0,0.0,0.0,0.0,0.0,0.0,0.0,0.0,0.0,0.0,0.0,0.0,0.0,0.0,0.0,0.0,0.0,0.0,0.0,0.0,0.0,0.0,0.0,0.0,0.0,0.0,0.0,0.0,0.0,0.0,0.0,0.0,0.0,0.0,0.0,0.0,0.0,0.0,0.0,0.0,0.0,0.0,0.0,0.0,0.0,0.0,0.0,0.0,0.0,0.0,0.0,0.0,0.0,0.0,0.0,0.0,0.0,0.0,0.0,0.0,0.0,0.0,0.0,0.0,0.0,0.0,0.0,0.0,0.0,0.0,0.0,0.0,0.0,0.0,0.0,0.0,0.0,0.0,0.0,0.0,0.0,0.0,0.0,0.0,0.0,0.0,0.0,0.0,0.0,0.0,0.0,0.0,0.0,0.0,0.0,0.0,0.0,0.0,0.0,0.0,0.0,0.0,0.0,0.0,0.0,0.0,0.0,0.0,0.0,0.0,0.0,0.0,0.0,0.0,0.0,0.0,0.0,0.0,0.0,0.0,0.0,0.0,0.0,0.0,0.0,0.0,0.0,0.0,0.0,0.0,0.0,0.0,0.0,0.0,0.0,0.0,0.0,0.0,0.0,0.0,0.0,0.0,0.0,0.0,0.0,0.0,0.0,0.0,0.0,0.0,0.0,0.0,0.0,0.0,0.0,0.0,0.0,0.0,0.0,0.0,0.0,0.0,0.0,0.0,0.0,0.0,0.0,0.0,0.0,0.0,0.0,0.0,0.0,0.0,0.0,0.0,0.0,0.0,0.0,0.0,0.0,0.0,0.0,0.0,0.0,0.0,0.0,0.0,0.0,0.0,0.0,0.0,0.0,0.0,0.0,0.0,0.0,0.0,0.0,0.0,0.0,0.0,0.0,0.0,0.0,0.0,0.0,0.0,0.0,0.0,0.0,0.0,0.0,0.0,0.0,0.0,0.0,0.0,0.0,0.0,0.0,0.0,0.0,0.0,0.0,0.0,0.0,0.0,0.0,0.0,0.0,0.0,0.0,0.0,0.0,0.0,0.0,0.0,0.0,0.0,0.0,0.0,0.0,0.0,0.0,0.0,0.0,0.0,0.0,0.0,0.0,0.0,0.0,0.0,0.0,0.0,0.0,0.0,0.0,0.0,0.0,0.0,0.0,0.0,0.0,0.0,0.0,0.0,0.0,0.0,0.0,0.0,0.0,0.0,0.0,0.0,0.0,0.0,0.0,0.0,0.0,0.0,0.0,0.0,0.0,0.0,0.0,0.0,0.0,0.0,0.0,0.0,0.0,0.0,0.0,0.0,0.0,0.0,0.0,0.0,0.0,0.0,0.0,0.0,0.0,0.0,0.0,0.0,0.0,0.0,0.0,0.0,0.0,0.0,0.0,0.0,0.0,0.0,0.0,0.0,0.0,0.0,0.0,0.0,0.0,0.0,0.0,0.0,0.0,0.0,0.0,0.0,0.0,0.0,0.0,0.0,0.0,0.0,0.0,0.0,0.0,0.0,0.0,0.0,0.0,0.0,0.0,0.0,0.0,0.0,0.0,0.0,0.0,0.0,0.0,0.0,0.0,0.0,0.0,0.0,0.0,0.0,0.0,0.0,0.0,0.0,0.0,0.0,0.0,0.0,0.0,0.0,0.0,0.0,0.0,0.0,0.0,0.0,0.0,0.0,0.0,0.0,0.0,0.0,0.0,0.0,0.0,0.0,0.0,0.0,0.0,0.0,0.0,0.0,0.0,0.0,0.0,0.0,0.0,0.0,0.0,0.0,0.0,0.0,0.0,0.0,0.0,0.0,0.0,0.0,0.0,0.0,0.0,0.0,0.0,0.0,0.0,0.0,0.0,0.0,0.0,0.0,0.0,0.0,0.0,0.0,0.0,0.0,0.0,0.0,0.0,0.0,0.0,0.0,0.0,0.0,0.0,0.0,0.0,0.0,0.0,0.0,0.0,0.0,0.0,0.0,0.0,0.0,0.0,0.0,0.0,0.0,0.0,0.0,0.0,0.0,0.0,0.0,0.0,0.0,0.0,0.0,0.0,0.0,0.0,0.0,0.0,0.0,0.0,0.0,0.0,0.0,0.0,0.0,0.0,0.0,0.0,0.0,0.0,0.0,0.0,0.0,0.0,0.0,0.0,0.0,0.0,0.0,0.0,0.0,0.0,0.0,0.0,0.0,0.0,0.0,0.0,0.0,0.0,0.0,0.0,0.0,0.0,0.0,0.0,0.0,0.0,0.0,0.0,0.0,0.0,0.0,0.0,0.0,0.0,0.0,0.0,0.0,0.0,0.0,0.0,0.0,0.0,0.0,0.0,0.0,0.0,0.0,0.0,0.0,0.0,0.0,0.0,0.0,0.0,0.0,0.0,0.0,0.0,0.0,0.0,0.0,0.0,0.0,0.0,0.0,0.0,0.0,0.0,0.0,0.0,0.0,0.0,0.0,0.0,0.0,0.0,0.0,0.0,0.0,0.0,0.0,0.0,0.0,0.0,0.0,0.0,0.0,0.0,0.0,0.0,0.0,0.0,0.0,0.0,0.0,0.0,0.0,0.0,0.0,0.0,0.0,0.0,0.0,0.0,0.0,0.0,0.0,0.0,0.0,0.0,0.0,0.0,0.0,0.0,0.0,0.0,0.0,0.0,0.0,0.0,0.0,0.0,0.0,0.0,0.0,0.0,0.0,0.0,0.0,0.0,0.0,0.0,0.0,0.0,0.0,0.0,0.0,0.0,0.0,0.0,0.0,0.0,0.0,0.0,0.0,0.0,0.0,0.0,0.0,0.0,0.0,0.0,0.0,0.0,0.0,0.0,0.0,0.0,0.0,0.0,0.0,0.0,0.0,0.0,0.0,0.0,0.0,0.0,0.0,0.0,0.0,0.0,0.0,0.0,0.0,0.0,0.0,0.0,0.0,0.0,0.0,0.0,0.0,0.0,0.0,0.0,0.0,0.0,0.0,0.0,0.0,0.0,0.0,0.0,0.0,0.0,0.0,0.0,0.0,0.0,0.0,0.0,0.0,0.0,0.0,0.0,0.0,0.0,0.0,0.0,0.0,0.0,0.0,0.0,0.0,0.0,0.0,0.0,0.0,0.0,0.0,0.0,0.0,0.0,0.0,0.0,0.0,0.0,0.0,0.0,0.0,0.0,0.0,0.0,0.0,0.0,0.0,0.0,0.0,0.0,0.0,0.0,0.0,0.0,0.0,0.0,0.0,0.0,0.0,0.0,0.0,0.0,0.0,0.0,0.0,0.0,0.0,0.0,0.0,0.0,0.0,0.0,0.0,0.0,0.0,0.0,0.0,0.0,0.0,0.0,0.0,0.0,0.0,0.0,0.0,0.0,0.0,0.0,0.0,0.0,0.0,0.0,0.0,0.0,0.0,0.0,0.0,0.0,0.0,0.0,0.0,0.0,0.0,0.0,0.0,0.0,0.0,0.0,0.0,0.0,0.0,0.0,0.0,0.0,0.0,0.0,0.0,0.0,0.0,0.0,0.0,0.0,0.0,0.0,0.0,0.0,0.0,0.0,0.0,0.0,0.0,0.0,0.0,0.0,0.0,0.0,0.0,0.0,0.0,0.0,0.0,0.0,0.0,0.0,0.0,0.0,0.0,0.0,0.0,0.0,0.0,0.0,0.0,0.0,0.0,0.0,0.0,0.0,0.0,0.0,0.0,0.0,0.0,0.0,0.0,0.0,0.0,0.0,0.0,0.0,0.0,0.0,0.0,0.0,0.0,0.0,0.0,0.0,0.0,0.0,0.0,0.0,0.0,0.0,0.0,0.0,0.0,0.0,0.0,0.0,0.0,0.0,0.0,0.0,0.0,0.0,0.0,0.0,0.0,0.0,0.0,0.0,0.0,0.0,0.0,0.0,0.0,0.0,0.0,0.0,0.0,0.0,0.0,0.0,0.0,0.0,0.0,0.0,0.0,0.0,0.0,0.0,0.0,0.0,0.0,0.0,0.0,0.0,0.0,0.0,0.0,0.0,0.0,0.0,0.0,0.0,0.0,0.0,0.0,0.0,0.0,0.0,0.0,0.0,0.0,0.0,0.0,0.0,0.0,0.0,0.0,0.0,0.0,0.0,0.0,0.0,0.0,0.0,0.0,0.0,0.0,0.0,0.0,0.0,0.0,0.0,0.0,0.0,0.0,0.0,0.0,0.0,0.0,0.0,0.0,0.0,0.0,0.0,0.0,0.0,0.0,0.0,0.0,0.0,0.0,0.0,0.0,0.0,0.0,0.0,0.0,0.0,0.0,0.0,0.0,0.0,0.0,0.0,0.0,0.0,0.0,0.0,0.0,0.0,0.0,0.0,0.0,0.0,0.0,0.0,0.0,0.0,0.0,0.0,0.0,0.0,0.0,0.0,0.0,0.0,0.0,0.0,0.0,0.0,0.0,0.0,0.0,0.0,0.0,0.0,0.0,0.0,0.0,0.0,0.0,0.0,0.0,0.0,0.0,0.0,0.0,0.0,0.0,0.0,0.0,0.0,0.0,0.0,0.0,0.0,0.0,0.0,0.0,0.0,0.0,0.0,0.0,0.0,0.0,0.0,0.0,0.0,0.0,0.0,0.0,0.0,0.0,0.0,0.0,0.0,0.0,0.0,0.0,0.0,0.0,0.0,0.0,0.0,0.0,0.0,0.0,0.0,0.0,0.0,0.0,0.0,0.0,0.0,0.0,0.0,0.0,0.0,0.0,0.0,0.0,0.0,0.0,0.0,0.0,0.0,0.0,0.0,0.0,0.0,0.0,0.0,0.0,0.0,0.0,0.0,0.0,0.0,0.0,0.0,0.0,0.0,0.0,0.0,0.0,0.0,0.0,0.0,0.0,0.0,0.0,0.0,0.0,0.0,0.0,0.0,0.0,0.0,0.0,0.0,0.0,0.0,0.0,0.0,0.0,0.0,0.0,0.0,0.0,0.0,0.0,0.0,0.0,0.0,0.0,0.0,0.0,0.0,0.0,0.0,0.0,0.0,0.0,0.0,0.0,0.0,0.0,0.0,0.0,0.0,0.0,0.0,0.0,0.0,0.0,0.0,0.0,0.0,0.0,0.0,0.0,0.0,0.0,0.0,0.0,0.0,0.0,0.0,0.0,0.0,0.0,0.0,0.0,0.0,0.0,0.0,0.0,0.0,0.0,0.0,0.0,0.0,0.0,0.0,0.0,0.0,0.0,0.0,0.0,0.0,0.0,0.0,0.0,0.0,0.0,0.0,0.0,0.0,0.0,0.0,0.0,0.0,0.0,0.0,0.0,0.0,0.0,0.0,0.0,0.0,0.0,0.0,0.0,0.0,0.0,0.0,0.0,0.0,0.0,0.0,0.0,0.0,0.0,0.0,0.0,0.0,0.0,0.0,0.0,0.0,0.0,0.0,0.0,0.0,0.0,0.0,0.0,0.0,0.0,0.0,0.0,0.0,0.0,0.0,0.0,0.0,0.0,0.0,0.0,0.0,0.0,0.0,0.0,0.0,0.0,0.0,0.0,0.0,0.0,0.0,0.0,0.0,0.0,0.0,0.0,0.0,0.0,0.0,0.0,0.0,0.0,0.0,0.0,0.0,0.0,0.0,0.0,0.0,0.0,0.0,0.0,-3.978,-4.0597,0.0,0.0,0.0,0.0,0.0,0.0,0.0,0.0,0.0,0.0,0.0,0.0,0.0,0.0,0.0,0.0,0.0,0.0,0.0,0.0,0.0,0.0,0.0,-2.9022,-3.0103,-3.1391,-3.1795,-3.1839,-3.1525,0.0,0.0,0.0,0.0,0.0,-3.1753,-3.1083,-3.0824,-3.1073,-3.0824,-3.0735,-3.0719,-3.0559,-3.0805,-3.1406,0.0,0.0,0.0,0.0,0.0,0.0,0.0,0.0,0.0,0.0,0.0,0.0,0.0,0.0,0.0,0.0,0.0,0.0,0.0,0.0,0.0,0.0,0.0,0.0,0.0,0.0,0.0,0.0,0.0,0.0,0.0,0.0,0.0,0.0,0.0,0.0,0.0,0.0,0.0,0.0,0.0,0.0,0.0,0.0,0.0,0.0,0.0,0.0,0.0,0.0,0.0,0.0,0.0,0.0,0.0,0.0,0.0,0.0,0.0,0.0,0.0,0.0,0.0,0.0,0.0,0.0,0.0,0.0,0.0,0.0,-3.8389,-3.8673,0.0,0.0,0.0,0.0,0.0,0.0,0.0,0.0,0.0,0.0,0.0,0.0,0.0,0.0,0.0,0.0,0.0,0.0,0.0,0.0,0.0,-2.5941,-2.7284,-2.8624,-2.9894,-3.1042,-3.1649,-3.1767,-3.1294,-3.1812,0.0,0.0,0.0,-3.1232,-3.167,-3.086,-3.0591,-3.0938,-3.0536,-3.0301,-3.0235,-3.0261,-3.0869,-3.1972,-3.1841,0.0,0.0,0.0,0.0,0.0,0.0,0.0,0.0,0.0,0.0,0.0,0.0,0.0,0.0,0.0,0.0,0.0,0.0,0.0,0.0,0.0,0.0,0.0,0.0,0.0,0.0,0.0,0.0,0.0,0.0,0.0,0.0,0.0,0.0,0.0,0.0,0.0,0.0,0.0,0.0,0.0,0.0,0.0,0.0,0.0,0.0,0.0,0.0,0.0,0.0,0.0,0.0,0.0,0.0,0.0,0.0,0.0,0.0,0.0,0.0,0.0,0.0,0.0,-3.8567,-3.8519,-3.8288,-3.8411,-3.8411,-3.8227,-3.7184,-3.6817,-3.7076,-3.8336,0.0,0.0,0.0,0.0,0.0,0.0,0.0,0.0,0.0,0.0,0.0,0.0,0.0,0.0,0.0,0.0,0.0,0.0,0.0,-2.523,-2.6585,-2.7923,-2.9016,-2.9714,-2.9837,-3.0015,-3.0277,-3.0582,0.0,0.0,-3.178,-3.1945,-3.122,-3.1841,-3.205,-3.184,-3.1752,-3.1545,-3.114,-3.124,-3.15,-3.1786,-3.0754,-3.0201,-3.0046,0.0,0.0,0.0,0.0,0.0,0.0,0.0,0.0,0.0,0.0,0.0,0.0,0.0,0.0,0.0,0.0,0.0,0.0,0.0,0.0,0.0,0.0,0.0,0.0,0.0,0.0,0.0,0.0,0.0,0.0,0.0,0.0,0.0,0.0,0.0,0.0,0.0,0.0,0.0,0.0,0.0,-3.7495,-3.7402,0.0,0.0,0.0,0.0,0.0,0.0,0.0,0.0,0.0,0.0,0.0,0.0,0.0,-3.8273,-3.708,-3.8222,-3.8151,-3.6901,-3.8001,-3.787,-3.6655,-3.7241,-3.7183,-3.6626,-3.645,0.0,-3.7701,-3.7872,0.0,0.0,0.0,0.0,0.0,0.0,0.0,0.0,0.0,0.0,0.0,0.0,0.0,0.0,0.0,0.0,0.0,0.0,0.0,0.0,0.0,-2.7201,-2.8176,-2.8822,-2.9429,-2.9696,-2.9485,-3.0241,-3.074,-3.0919,-3.1691,-3.1905,-3.1519,-3.1905,-3.1674,-3.0764,-3.0455,-3.0389,-3.0584,-3.0629,-3.0984,-3.1496,-3.1359,-3.1229,-3.1101,-3.0721,0.0,0.0,0.0,0.0,0.0,0.0,0.0,0.0,0.0,0.0,0.0,0.0,0.0,0.0,0.0,0.0,0.0,0.0,0.0,0.0,0.0,0.0,0.0,0.0,0.0,0.0,0.0,0.0,0.0,0.0,0.0,0.0,0.0,0.0,0.0,0.0,0.0,0.0,0.0,-3.7029,-3.7392,-3.7392,-3.7892,-3.7948,0.0,0.0,0.0,0.0,0.0,0.0,0.0,0.0,0.0,-3.8763,-3.9023,-3.9018,-3.866,-3.9229,-3.9016,-3.8067,-3.862,-3.835,-3.7375,-3.768,-3.7651,-3.7375,-3.7375,-3.7416,-3.7488,-3.7238,-3.713,-3.718,0.0,0.0,0.0,0.0,-3.6758,-3.6309,0.0,0.0,0.0,0.0,0.0,0.0,0.0,0.0,0.0,0.0,0.0,0.0,-2.5578,-2.6543,-2.736,-2.8005,-2.8784,-2.9067,-2.8652,-2.9547,-3.0152,-3.0313,-3.0978,-3.1231,-3.0964,-3.1133,-3.0648,-2.9549,-2.9261,-2.9327,-2.9673,-2.9673,-3.0056,-3.0747,-3.1374,-3.1826,-3.211,-3.1792,-3.1129,0.0,0.0,0.0,0.0,0.0,0.0,0.0,0.0,0.0,0.0,0.0,0.0,0.0,0.0,0.0,0.0,0.0,0.0,0.0,0.0,0.0,0.0,0.0,0.0,0.0,0.0,0.0,0.0,0.0,0.0,0.0,0.0,0.0,0.0,0.0,0.0,0.0,0.0,-3.7246,-3.7749,-3.7535,-3.8109,-3.8077,0.0,0.0,0.0,0.0,0.0,0.0,-3.8194,-3.8333,-3.8787,-3.9653,-3.9804,-3.9984,-4.0104,-4.0263,-4.0046,-3.9421,-3.9276,-3.8942,-3.8449,-3.8275,-3.8165,-3.8127,-3.8127,-3.7843,-3.7337,-3.6926,-3.6585,-3.6279,-3.629,-3.6177,-3.5962,-3.5367,-3.5154,-3.5055,0.0,0.0,0.0,0.0,0.0,0.0,0.0,0.0,0.0,0.0,0.0,-2.4805,-2.5349,-2.5912,-2.6483,-2.7038,-2.7126,-2.7302,0.0,-2.7985,-2.8219,-2.8444,-2.95,-2.9647,-2.8697,-2.9302,-2.9367,-2.8844,-2.928,-2.9253,-2.8853,-2.8853,-2.8935,-2.9156,-2.9688,-3.0862,-3.2497,-3.3126,-3.2617,-3.1435,0.0,0.0,0.0,0.0,0.0,0.0,0.0,0.0,0.0,0.0,0.0,0.0,0.0,0.0,0.0,0.0,0.0,0.0,0.0,0.0,0.0,0.0,0.0,0.0,0.0,0.0,0.0,0.0,0.0,0.0,0.0,0.0,0.0,0.0,0.0,0.0,0.0,0.0,0.0,-3.7889,-3.8885,0.0,0.0,0.0,0.0,-3.8657,-3.9088,-3.9393,-3.9422,-3.977,-4.0027,-4.0046,-4.067,-4.0713,-4.0104,-4.0728,-4.0713,-4.0046,-3.9465,-3.9175,-3.9131,-3.8492,-3.8104,-3.7929,-3.7929,-3.7801,-3.7563,-3.7366,-3.6547,-3.5461,-3.5452,-3.5073,-3.4501,-3.4481,-3.4433,-3.4448,0.0,0.0,0.0,0.0,0.0,-2.1253,-2.1808,-2.2112,-2.2422,-2.2879,-2.3594,-2.4266,-2.4723,-2.549,-2.6097,-2.6289,-2.6523,-2.669,-2.6696,-2.7123,-2.7562,-2.8032,-2.8751,-2.9166,-2.9127,-2.8875,-2.8469,-2.7966,-2.793,-2.7867,-2.7782,-2.7901,-2.8293,-2.8912,-2.9868,-3.0726,-3.1425,-3.1588,-3.1126,-3.0378,-3.0997,-3.0468,0.0,0.0,0.0,0.0,0.0,0.0,0.0,0.0,0.0,0.0,0.0,0.0,0.0,0.0,0.0,0.0,0.0,0.0,0.0,0.0,0.0,0.0,0.0,0.0,0.0,0.0,0.0,0.0,0.0,0.0,0.0,0.0,0.0,0.0,0.0,0.0,0.0,-3.9658,-4.0323,0.0,-3.936,-3.9472,-3.9469,-3.9075,-3.959,-4.028,-4.1139,-4.132,-4.1758,-4.2571,-4.2411,-4.2208,-4.1961,-4.1816,-4.141,-4.0742,-4.0379,-3.9805,-3.8982,-3.8596,-3.815,-3.7701,-3.7701,-3.7663,-3.7596,-3.7534,-3.6761,-3.5554,-3.518,-3.4649,-3.4088,-3.4088,-3.4088,-3.4088,0.0,0.0,0.0,0.0,-2.1296,-2.1178,-2.1786,-2.225,-2.2514,-2.2552,-2.3353,-2.4128,-2.4568,-2.5331,-2.5866,-2.6001,-2.6251,-2.6292,-2.6097,-2.6441,-2.6804,-2.7221,-2.7754,-2.8276,-2.8796,-2.8288,-2.7791,-2.725,-2.7014,-2.6864,-2.6769,-2.6892,-2.7387,-2.8246,-2.9215,-2.9837,-3.0164,-3.0272,-3.0319,-3.0408,-3.1003,-3.0782,-3.0135,0.0,0.0,0.0,0.0,0.0,0.0,0.0,0.0,0.0,0.0,0.0,0.0,0.0,0.0,0.0,0.0,0.0,0.0,0.0,0.0,0.0,0.0,0.0,0.0,0.0,0.0,0.0,0.0,0.0,0.0,0.0,0.0,0.0,0.0,-3.8879,-3.9911,-4.0021,-4.0683,-4.0911,-4.0313,-4.0753,-4.0963,-4.0694,-4.1137,-4.1746,-4.2547,-4.2605,-4.2938,-4.369,-4.3286,-4.2954,-4.2795,-4.2348,-4.1829,-4.122,-4.084,-4.0213,-3.938,-3.8778,-3.8246,-3.7794,-3.7595,-3.7457,-3.738,-3.7095,-3.6346,-3.5363,-3.5415,-3.4939,-3.4211,-3.4211,-3.4068,-3.3896,0.0,0.0,0.0,-2.15,-2.1625,-2.1614,-2.1904,-2.2815,-2.3148,-2.2087,-2.3272,-2.4437,-2.4963,-2.5375,-2.5795,-2.6164,-2.6201,-2.6097,-2.591,-2.5875,-2.5888,-2.59,-2.6428,-2.6968,-2.7496,-2.752,-2.7262,-2.671,-2.6698,-2.6415,-2.5875,-2.5923,-2.6311,-2.6996,-2.7567,-2.8226,-2.8925,-2.9541,-3.0459,-3.1563,-3.1598,-3.1772,-3.204,0.0,0.0,0.0,0.0,0.0,0.0,0.0,0.0,0.0,0.0,0.0,0.0,0.0,0.0,0.0,0.0,0.0,0.0,0.0,0.0,0.0,0.0,0.0,0.0,0.0,0.0,0.0,0.0,0.0,0.0,0.0,0.0,0.0,-3.7109,-3.8755,-3.9631,-3.8807,-3.9803,-4.0859,-4.155,-4.2448,-4.3112,-4.3531,-4.3762,-4.382,-4.3559,-4.3559,-4.3427,-4.3222,-4.3207,-4.2894,-4.2324,-4.2295,-4.2024,-4.1381,-4.0739,-4.0383,-4.0285,-3.9073,-3.8345,-3.8062,-3.7508,-3.7123,-3.6861,-3.599,-3.5263,-3.4799,-3.6089,-3.5801,-3.4704,-3.474,-3.4355,-3.3848,0.0,0.0,-2.0857,-2.2194,-2.2316,-2.2308,-2.2514,-2.3105,-2.3393,-2.3039,-2.4037,-2.4943,-2.5388,-2.5786,-2.6061,-2.6188,-2.6062,-2.591,-2.5688,-2.5688,-2.5788,-2.6021,-2.694,-2.7509,-2.7654,-2.8028,-2.7787,-2.6868,-2.6992,-2.659,-2.5688,-2.6233,-2.6597,-2.6818,-2.7755,-2.8361,-2.8724,-2.9272,-2.9807,-3.0338,-3.1016,-3.1079,-3.0802,0.0,0.0,0.0,0.0,0.0,0.0,0.0,0.0,0.0,0.0,0.0,0.0,0.0,0.0,0.0,0.0,0.0,0.0,0.0,0.0,0.0,0.0,0.0,0.0,0.0,0.0,0.0,0.0,0.0,0.0,0.0,-3.6979,-3.7401,-3.8176,-3.8533,-3.8841,-3.9029,-3.9537,-3.9942,-4.0148,-4.1279,-4.2038,-4.213,-4.2234,-4.2429,-4.2859,-4.2139,-4.2224,-4.3394,-4.3004,-4.2834,-4.301,-4.2553,-4.2024,-4.1396,-4.1013,-4.0252,-3.917,-3.8599,-3.7491,-3.5942,-3.5795,-3.5461,-3.502,-3.4761,-3.4586,-3.4401,-3.434,-3.3589,-3.2632,-3.3196,-3.3069,-3.2605,0.0,-2.1065,-2.1455,-2.2508,-2.2542,-2.2491,-2.2693,-2.3036,-2.3219,-2.2967,-2.4103,-2.491,-2.4811,-2.5436,-2.572,-2.5327,-2.5375,-2.5347,-2.5161,-2.555,-2.6058,-2.6619,-2.7304,-2.7786,-2.7924,-2.8314,-2.8102,-2.7234,-2.7362,-2.6964,-2.6154,-2.6578,-2.6956,-2.7262,-2.7885,-2.8404,-2.8818,-2.9139,-2.9392,-2.9677,-3.0241,-3.05,-3.0679,-3.1231,-3.1441,-3.1413,-3.1131,-3.1014,-3.0973,-3.0678,0.0,0.0,0.0,0.0,0.0,0.0,0.0,0.0,0.0,0.0,0.0,0.0,0.0,0.0,0.0,0.0,0.0,0.0,0.0,0.0,0.0,0.0,0.0,0.0,-3.7082,-3.7493,-3.8216,-3.8086,-3.81,-3.8548,-3.8754,-3.9137,-3.9954,-4.083,-4.1435,-4.1599,-4.1693,-4.1856,-4.214,-4.1996,-4.2337,-4.3184,-4.2869,-4.2587,-4.2379,-4.1971,-4.1135,-3.9911,-4.0114,-3.9573,-3.8326,-3.7868,-3.6893,-3.5504,-3.5227,-3.4783,-3.4264,-3.3888,-3.3775,-3.3779,0.0,0.0,0.0,0.0,-3.187,-3.1599,0.0,-2.1532,-2.2009,-2.2688,-2.2604,-2.2527,-2.2763,-2.2922,-2.2937,-2.2629,-2.3834,-2.4493,-2.3897,-2.4685,-2.4925,-2.4128,-2.4466,-2.475,0.0,0.0,-2.6632,-2.7359,-2.7621,-2.7873,-2.8167,-2.8351,-2.8179,-2.7678,-2.7678,-2.7414,-2.6898,-2.6958,-2.7336,-2.7975,-2.8023,-2.8443,-2.9052,-2.9052,-2.9197,-2.9419,-2.9419,-3.005,-3.1044,-3.1044,-3.1573,-3.2217,-3.1613,-3.1387,-3.1305,-3.0718,0.0,0.0,0.0,0.0,0.0,0.0,0.0,0.0,0.0,0.0,0.0,0.0,0.0,0.0,0.0,0.0,0.0,0.0,0.0,0.0,0.0,0.0,0.0,0.0,-3.7046,-3.733,-3.7782,-3.7531,-3.7416,-3.7712,-3.7779,-3.8441,-4.0116,-4.0601,-4.101,-4.1353,-4.1565,-4.1551,-4.1392,-4.2181,0.0,0.0,0.0,-4.197,-4.0935,-4.0875,-3.982,-3.7808,-3.8644,-3.8554,-3.7612,-3.702,-3.6391,-3.5768,-3.5145,-3.4551,-3.393,-3.3152,-3.2864,-3.2938,-3.3592,-3.3251,-3.2306,-3.1085,-3.067,-3.0769,0.0,-2.2561,-2.2703,-2.331,-2.3344,-2.3422,-2.39,-2.3504,-2.3474,-2.4298,-2.4251,-2.4261,-2.4555,-2.4553,-2.4444,-2.4267,-2.4432,-2.4914,0.0,0.0,-2.7385,-2.7382,-2.7838,-2.8044,-2.7962,-2.8002,-2.7822,-2.7472,-2.7472,-2.7248,-2.691,-2.733,-2.7621,-2.7779,-2.8201,-2.856,-2.8882,-2.8882,-2.9067,-2.9419,-2.9419,-2.9664,-3.0075,-3.0075,-3.0177,-3.0305,-3.0202,-3.0164,-3.0151,-2.9998,-3.0334,-3.0837,-3.0837,0.0,0.0,0.0,0.0,0.0,0.0,0.0,0.0,0.0,0.0,0.0,0.0,0.0,0.0,0.0,0.0,0.0,0.0,0.0,0.0,-3.6845,-3.7102,-3.7394,-3.8032,-3.7406,-3.7023,-3.7283,-3.7528,-3.7771,-3.8121,-3.9233,-3.988,-3.9994,-4.0045,-4.0045,-4.0007,-3.9339,-3.939,-4.0198,-4.0198,-4.0113,-3.9807,-3.9794,-3.9121,-3.7808,-3.7978,0.0,-3.659,-3.6442,-3.5431,-3.3848,-3.3704,-3.3093,-3.2208,-3.2033,-3.1957,-3.186,-3.1168,-3.1179,-3.1332,-2.9618,-2.9367,-2.9922,-2.3918,-2.3549,-2.3441,-2.3999,-2.4045,-2.4204,-2.4805,-2.4458,-2.4258,-2.4569,-2.4512,-2.4307,-2.3885,-2.3945,-2.3804,-2.3374,-2.405,0.0,0.0,-2.7157,-2.7603,-2.764,-2.7888,-2.795,-2.7708,-2.7909,-2.798,-2.7787,-2.7905,-2.7852,-2.769,-2.7993,-2.8114,-2.8086,-2.839,-2.8538,-2.8657,-2.8657,-2.8803,-2.9106,-2.9197,-2.9404,-2.9599,-2.9753,-2.9792,-2.9792,-2.9792,-2.9792,-2.9792,-2.9792,-3.0024,-3.0394,-3.0676,-3.1047,-3.1529,0.0,0.0,0.0,0.0,0.0,0.0,0.0,0.0,0.0,0.0,0.0,0.0,0.0,0.0,-3.4173,0.0,0.0,-3.6318,-3.6807,-3.7171,-3.7459,-3.7664,-3.7514,-3.7354,-3.7202,-3.7294,-3.7508,-3.7774,-3.8383,-3.8792,-3.8792,-3.8792,-3.8792,-3.8792,-3.8792,-3.904,-3.9597,-3.9609,-3.9323,-3.8748,-3.8736,-3.7884,-3.632,-3.6837,-3.6508,-3.5523,-3.5523,-3.4856,-3.3657,-3.3404,-3.2827,-3.2058,-3.1825,-3.1617,-3.14,-3.0611,-3.0471,-3.0511,-2.9056,-2.8685,-2.8937,-2.4886,-2.4606,-2.4402,-2.4605,-2.4701,-2.497,-2.5575,-2.5377,-2.5055,-2.4714,-2.4941,-2.4709,-2.3611,-2.3932,-2.3948,0.0,0.0,0.0,0.0,-2.7358,-2.7711,-2.7938,-2.7962,-2.7829,-2.7522,-2.7938,-2.8139,-2.8139,-2.8339,-2.8471,-2.851,-2.851,-2.851,-2.851,-2.851,-2.851,-2.851,-2.851,-2.8657,-2.8882,-2.904,-2.9236,-2.9509,-2.9702,-2.9792,-2.9792,-2.9792,-2.9792,-2.9792,-2.9792,-2.9792,-2.9867,-3.0319,-3.0532,-3.0727,-3.1319,-3.1915,0.0,0.0,0.0,0.0,0.0,0.0,0.0,0.0,0.0,-3.3476,-3.4286,-3.446,-3.4864,-3.6186,-3.6467,-3.6625,-3.685,-3.7321,-3.7609,-3.7401,-3.7709,-3.7829,-3.7397,-3.7348,-3.7517,-3.7938,-3.7986,-3.7986,-3.7986,-3.7986,-3.7986,-3.7986,-3.8844,-3.9299,-3.9299,-3.9299,-3.8776,-3.768,-3.763,-3.6641,-3.4823,-3.5619,-3.5571,-3.4775,-3.4775,-3.4486,-3.3958,-3.3392,-3.2827,-3.2208,-3.1809,-3.1484,-3.1169,-3.0648,-3.0315,-2.9995,-2.893,-2.8354,-2.8139,0.0,-2.5805,-2.5907,-2.4947,-2.5266,-2.5805,-2.6214,-2.5814,-2.5566,-2.5861,-2.5951,-2.5864,-2.5605,-2.5998,-2.6074,-2.5554,0.0,0.0,-2.6887,-2.7834,-2.8319,-2.8179,-2.8179,-2.7978,-2.751,-2.7788,-2.7921,-2.7921,-2.8151,-2.8299,-2.851,-2.851,-2.851,-2.851,-2.851,-2.851,-2.851,-2.851,-2.8709,-2.9052,-2.9091,-2.9378,-2.9753,-2.9792,-2.9792,-2.9792,-2.9792,-2.9792,-2.9792,-2.9792,-2.9792,-2.9804,-2.9867,-3.0218,-3.062,-3.0687,0.0,-3.1536,-3.1542,-3.1607,-3.1817,-3.2531,-3.2784,-3.3283,0.0,0.0,-3.5511,-3.6282,-3.6463,-3.6462,-3.6392,-3.6802,-3.7139,-3.7148,-3.7605,-3.7942,-3.789,-3.7938,-3.7962,-3.7902,-3.789,-3.7914,-3.7974,-3.7986,-3.7986,-3.7986,-3.7986,-3.7986,-3.7986,-3.8133,-3.8185,-3.8185,-3.8185,-3.7678,-3.6614,-3.6551,-3.5969,-3.4775,-3.492,-3.492,-3.4775,-3.4775,-3.4486,-3.3934,-3.3008,-3.2139,-3.1434,-3.1374,-3.1229,-3.097,-3.0452,-3.0217,-3.0083,-2.8969,-2.8298,-2.7921,0.0,-2.718,-2.7425,-2.7083,-2.6898,-2.6987,-2.7524,-2.7041,-2.6546,-2.6361,-2.6253,-2.6162,-2.6038,-2.6375,-2.6666,-2.6767,-2.6909,-2.7157,-2.7643,-2.8079,-2.8299,-2.8219,-2.8111,-2.7909,-2.7748,-2.795,-2.807,-2.807,-2.8271,-2.8431,-2.851,-2.851,-2.851,-2.851,-2.851,-2.851,-2.851,-2.8618,-2.8764,-2.8961,-2.9197,-2.9392,-2.956,-2.974,-2.9792,-2.9792,-2.9792,-2.9792,0.0,0.0,-2.9792,-2.9842,-3.0168,-3.0432,-3.067,-3.0972,-3.1449,0.0,-3.2097,-3.2616,-3.3053,0.0,-3.3703,-3.4462,-3.4817,-3.5392,-3.5953,-3.6456,-3.6804,-3.7106,-3.7264,-3.7505,-3.7649,0.0,-3.7841,-3.7986,-3.7986,-3.7986,-3.7986,-3.7986,-3.7986,-3.7986,-3.7986,-3.7986,-3.7986,-3.7986,-3.7986,-3.7986,-3.7986,-3.7986,-3.7986,-3.7986,-3.7986,-3.7613,-3.6867,-3.6555,-3.6026,-3.528,-3.4931,-3.4726,-3.458,-3.4726,-3.4378,-3.3573,-3.2989,-3.217,-3.1306,-3.1184,-3.096,-3.0746,-3.0536,-3.019,-2.972,-2.9246,-2.8649,-2.8134,0.0,-2.8455,-2.8869,-2.9101,-2.8726,-2.8462,-2.8662,-2.8231,-2.7705,-2.7236,-2.7402,-2.7598,-2.7641,-2.7668,-2.7751,-2.7921,-2.7998,-2.8187,-2.8526,-2.8811,-2.8937,-2.8937,-2.8791,-2.8712,-2.8645,-2.8633,-2.8593,-2.8514,-2.8498,-2.851,-2.851,-2.851,-2.8622,-2.8795,-2.8795,-2.8919,-2.9173,-2.9548,-2.9735,-2.9801,-3.0129,-3.0146,-3.0059,-3.0044,-2.993,-2.9792,-2.9792,-2.9792,0.0,0.0,-2.9792,-2.9867,-3.0269,-3.0495,-3.0721,-3.1235,-3.1901,-3.2499,-3.2642,-3.3362,-3.3975,-3.3437,-3.4323,-3.5171,-3.4787,-3.532,-3.6009,-3.6534,-3.6928,-3.7348,-3.789,-3.7986,-3.7986,-3.7986,-3.7986,-3.7986,-3.7986,-3.7986,-3.7986,-3.7986,-3.7986,-3.7986,-3.7986,-3.7986,-3.7986,-3.7986,-3.7986,-3.7986,-3.7986,-3.7986,-3.7986,-3.7986,-3.7986,-3.7733,-3.7204,-3.6675,-3.6134,-3.5605,-3.4978,-3.458,-3.4384,-3.4543,-3.4066,-3.3086,-3.2875,-3.2131,-3.1083,-3.096,-3.0736,-3.0487,-3.0487,-3.0178,-2.9698,-2.9637,-2.9052,-2.8198,0.0,0.0,-3.0147,-3.049,-3.0628,-3.0352,-2.932,-2.9171,-2.9073,-2.8842,-2.9962,-3.0959,-3.1466,-3.0895,-3.014,-2.9317,-2.9477,-2.9565,-2.9394,-3.0291,-3.082,-3.082,-3.082,-3.0707,-3.0532,-2.9973,-2.9575,-2.9369,-2.8803,-2.851,-2.851,-2.851,-2.8895,-2.9569,-2.9569,-2.9984,-3.0815,-3.1622,-3.2131,-3.2278,-3.2317,-3.2111,-3.1732,-3.0887,-3.0256,-2.9792,-2.9792,0.0,0.0,0.0,-2.9792,-2.9792,-2.9817,-3.0181,0.0,-3.1235,-3.2177,-3.3013,-3.2754,-3.3077,-3.3546,-3.3564,-3.4032,-3.4617,-3.539,-3.5593,-3.5918,-3.6952,-3.718,-3.7348,-3.789,-3.7986,-3.7986,-3.7986,-3.7986,-3.7986,-3.7986,-3.7986,-3.7986,-3.7986,-3.7986,-3.7986,0.0,-3.7986,-3.7986,-3.7986,-3.7986,-3.7986,-3.7986,-3.7986,-3.7986,-3.7986,-3.7986,-3.7733,-3.7204,-3.6675,-3.6134,-3.5605,-3.4781,-3.4433,-3.4384,-3.4211,-3.3536,-3.2536,-3.2536,-3.1797,-3.0623,-3.0623,-3.0442,-3.0216,-3.0216,-3.0204,-3.0193,-3.0181,-2.924,-2.8019,0.0,0.0,0.0,-3.1532,-3.1777,-3.1646,-3.1183,-3.0035,-2.9346,-2.9752,-3.0865,0.0,0.0,0.0,0.0,0.0,-3.0919,-3.075,-3.1034,-3.0778,-3.0844,-3.1265,-3.1278,-3.1278,-3.1217,-3.0994,-3.0869,-3.0781,-3.0568,-3.07,-3.1099,-3.1099,-3.1448,-3.2123,-3.2123,-3.2267,-3.2541,-3.2961,-3.3421,-3.3819,-3.307,-3.2997,-3.3167,-3.2027,-3.1466,-3.1257,0.0,0.0,0.0,0.0,-2.9792,-2.9792,-2.9792,0.0,0.0,-3.1135,-3.2093,-3.281,-3.255,-3.2781,-3.3085,-3.3325,-3.3751,-3.4318,-3.4931,-3.5364,-3.5713,-3.6074,-3.6423,-3.6831,-3.736,-3.7457,-3.7577,-3.7926,-3.7986,-3.7986,-3.7986,-3.7986,-3.7986,-3.7986,-3.7986,0.0,0.0,0.0,0.0,-3.7986,-3.7986,-3.7986,-3.7986,-3.7986,-3.7986,-3.7986,-3.7986,-3.7669,-3.6932,-3.6407,-3.578,-3.5055,-3.4299,-3.4014,-3.4211,-3.3927,-3.3354,-3.2489,-3.23,-3.1623,-3.0578,-3.0397,-3.0261,-3.0216,-3.0216,-3.0216,-3.0216,-3.0216,-2.9699,-2.893,0.0,0.0,0.0,0.0,0.0,0.0,0.0,0.0,0.0,0.0,0.0,0.0,0.0,0.0,0.0,0.0,0.0,-3.2333,-3.2738,-3.2372,-3.2475,-3.3108,-3.3177,-3.3198,-3.3198,-3.294,-3.2638,-3.2374,-3.2073,-3.1963,-3.2097,-3.2386,-3.2838,-3.348,-3.3836,-3.4077,-3.4215,-3.4747,-3.5121,-3.5331,-3.442,-3.4207,-3.4286,-3.2913,-3.2264,0.0,0.0,0.0,0.0,0.0,0.0,0.0,0.0,0.0,-3.0495,-3.1117,-3.198,-3.2636,-3.2344,-3.2515,-3.2871,-3.3198,-3.3669,-3.4138,-3.4667,-3.5088,-3.5388,-3.568,-3.6044,-3.6502,-3.7318,-3.7399,-3.7529,-3.806,-3.8092,-3.7986,-3.7986,-3.7986,-3.7986,-3.7986,-3.7986,-3.7986,0.0,0.0,0.0,-3.7986,-3.7986,-3.7986,-3.7986,-3.7986,-3.7986,-3.7986,-3.7986,-3.7616,-3.6828,-3.6252,-3.5431,-3.4395,-3.393,-3.3729,-3.3828,-3.363,-3.3061,-3.2265,-3.2075,-3.1391,-3.0442,-3.0261,-3.0216,-3.0216,-3.0216,-3.0216,-3.0216,-3.0216,-3.0021,-2.9688,0.0,0.0,0.0,0.0,0.0,0.0,0.0,0.0,0.0,0.0,0.0,0.0,0.0,0.0,0.0,0.0,0.0,0.0,-3.4374,-3.4921,0.0,-3.612,-3.6261,-3.6338,-3.6338,-3.5591,-3.4824,-3.4037,-3.33,-3.254,-3.1819,-3.2593,-3.3264,-3.3889,-3.4843,-3.546,-3.5826,-3.6821,-3.7133,-3.694,-3.6254,-3.57,-3.5099,-3.361,0.0,0.0,0.0,0.0,0.0,0.0,0.0,0.0,0.0,0.0,-3.1395,-3.1203,-3.1878,-3.2593,-3.2157,-3.2358,-3.2835,-3.3198,-3.3645,-3.4102,-3.4703,-3.4823,-3.5016,-3.5818,-3.5977,-3.6405,0.0,0.0,-3.7752,-3.8287,-3.8185,-3.7986,-3.7986,-3.7986,-3.7986,0.0,0.0,0.0,0.0,0.0,0.0,-3.7986,-3.7986,-3.7986,-3.7986,-3.7986,-3.7986,-3.7986,-3.795,-3.758,-3.674,-3.6141,-3.5129,-3.3679,-3.3679,-3.353,-3.3281,-3.3258,-3.2707,-3.1813,-3.179,-3.1157,-3.0216,-3.0216,-3.0216,-3.0216,-3.0216,-3.0216,-3.0216,-3.0216,-3.0216,-3.0147,0.0,0.0,0.0,0.0,0.0,0.0,0.0,0.0,0.0,0.0,0.0,0.0,0.0,0.0,0.0,0.0,0.0,0.0,0.0,0.0,0.0,0.0,-3.666,-3.666,-3.666,-3.6476,-3.6276,-3.6059,-3.5872,-3.5925,-3.6198,-3.6396,-3.6833,-3.7413,-3.7681,-3.7813,-3.791,-3.7724,-3.7898,-3.8184,0.0,-3.6102,-3.627,0.0,0.0,0.0,0.0,0.0,0.0,0.0,0.0,0.0,0.0,-3.1449,-3.2014,-3.1918,-3.2177,-3.2431,-3.2344,-3.2123,-3.2183,-3.3102,-3.3392,-3.3764,-3.486,-3.5078,-3.5211,-3.5599,-3.5721,-3.5929,0.0,0.0,0.0,-3.774,-3.7932,0.0,-3.7986,-3.7986,0.0,-3.7986,0.0,-3.7986,-3.7986,-3.7986,0.0,0.0,-3.7986,-3.7986,-3.7986,-3.7986,-3.7986,-3.7986,-3.7601,-3.6924,-3.5935,-3.4645,-3.3785,-3.3381,-3.3381,-3.3381,-3.3269,-3.2868,-3.2351,-3.179,-3.1375,-3.0824,-3.0216,-3.0216,-3.0216,-3.0216,-3.0216,-3.0216,-3.0216,-3.0216,-3.0216,-3.0204,0.0,0.0,0.0,0.0,0.0,0.0,0.0,0.0,0.0,0.0,0.0,0.0,0.0,0.0,0.0,0.0,0.0,0.0,0.0,0.0,0.0,-3.8575,-3.8662,-3.8586,-3.8388,-3.8697,-3.8432,0.0,0.0,0.0,0.0,-3.7948,-3.82,-3.8403,-3.8858,-3.8935,-3.8663,-3.8435,0.0,0.0,0.0,0.0,0.0,0.0,0.0,0.0,0.0,0.0,0.0,0.0,0.0,-3.1712,-3.1461,-3.1938,-3.2541,-3.2164,0.0,-3.2519,-3.2431,-3.2213,-3.2236,-3.3329,-3.3608,-3.3861,-3.4783,-3.5209,-3.5403,-3.5408,-3.5604,0.0,-3.6614,-3.685,-3.715,0.0,0.0,0.0,-3.7986,-3.7986,-3.7986,0.0,-3.7986,0.0,-3.7986,-3.7986,-3.7986,0.0,-3.7986,-3.7986,-3.7986,-3.7986,-3.7986,-3.7986,-3.7469,-3.6562,-3.5251,-3.4063,-3.3431,-3.3281,-3.3281,-3.3281,-3.3281,-3.2971,-3.2443,-3.1802,-3.1467,-3.0916,-3.0216,-3.0216,-3.0216,-3.0216,-3.0216,-3.0216,-3.0216,-3.0216,-3.0216,-3.0216,0.0,0.0,0.0,0.0,0.0,0.0,0.0,0.0,0.0,0.0,0.0,0.0,0.0,0.0,0.0,0.0,0.0,0.0,0.0,0.0,0.0,-4.0891,-4.0972,-4.0803,-4.04,-4.0957,-4.0422,0.0,0.0,0.0,0.0,0.0,0.0,0.0,0.0,0.0,0.0,0.0,0.0,0.0,0.0,0.0,0.0,0.0,0.0,0.0,0.0,0.0,0.0,0.0,-3.4209,-3.2365,-3.1964,-3.2453,-3.3093,-3.2391,-3.24,-3.268,-3.2475,-3.2481,-3.2744,-3.3752,-3.401,-3.4145,-3.4733,-3.5164,-3.5384,-3.5282,0.0,-3.616,-3.6925,-3.7097,-3.7254,-3.7794,0.0,-3.7902,-3.7974,-3.7986,-3.7986,-3.7986,-3.7986,-3.7986,-3.7986,-3.7986,-3.7986,-3.7986,-3.7986,-3.7986,-3.7986,-3.7986,-3.7914,-3.7781,-3.72,-3.6251,-3.4772,-3.4038,-3.358,-3.3331,-3.3331,-3.3281,-3.3281,-3.3143,-3.2604,-3.1802,-3.1664,-3.1054,-3.0216,-3.0216,-3.0216,-3.0216,-3.0216,-3.0216,-3.0216,-3.0216,-3.0216,-3.0216,0.0,0.0,0.0,0.0,0.0,0.0,0.0,0.0,0.0,0.0,-3.8856,-3.9858,0.0,0.0,0.0,0.0,0.0,0.0,0.0,0.0,0.0,0.0,-4.0726,-4.048,-4.04,-4.0147,0.0,0.0,0.0,0.0,0.0,0.0,0.0,0.0,0.0,0.0,0.0,0.0,0.0,0.0,0.0,0.0,0.0,0.0,0.0,0.0,0.0,0.0,0.0,0.0,-3.53,-3.3671,-3.4035,-3.3972,-3.3734,-3.359,-3.3127,-3.2667,-3.268,-3.2839,-3.3211,-3.385,-3.401,-3.4191,-3.4978,-3.4805,0.0,0.0,-3.5524,-3.5762,-3.6408,-3.6526,-3.6689,-3.723,-3.7348,-3.7481,-3.7926,-3.7986,-3.7986,0.0,-3.7986,-3.7986,-3.7986,-3.7986,0.0,0.0,-3.7986,-3.7986,-3.7986,-3.7986,-3.7577,-3.6711,-3.5956,-3.5194,-3.4477,-3.3962,-3.3679,-3.363,-3.3431,-3.3281,-3.3258,-3.2457,-3.1974,-3.1767,-3.0859,0.0,-3.0216,-3.0216,-3.0216,-3.0216,-3.0216,-3.0216,-3.0216,-3.0216,-3.0216,-3.0216,0.0,0.0,0.0,0.0,0.0,0.0,0.0,-3.8207,-3.9314,-4.0255,-4.0609,-4.1033,-4.1724,-4.2104,-4.2302,0.0,0.0,0.0,0.0,0.0,0.0,0.0,0.0,-4.1213,-4.0984,0.0,0.0,0.0,0.0,0.0,0.0,0.0,0.0,0.0,0.0,0.0,0.0,0.0,0.0,0.0,0.0,0.0,0.0,0.0,0.0,0.0,0.0,0.0,0.0,0.0,-3.6443,-3.5263,-3.5182,-3.5434,-3.5656,-3.5398,-3.5276,-3.5247,-3.5247,-3.4981,-3.4977,-3.6017,-3.5524,-3.4957,-3.5531,0.0,0.0,0.0,-3.5307,-3.5658,-3.6304,-3.6486,0.0,-3.7145,-3.7317,-3.7541,-3.7954,-3.7986,0.0,-3.7986,-3.7986,-3.7986,0.0,-3.7986,-3.7986,-3.7986,-3.7986,-3.7986,-3.7986,-3.7721,-3.7216,-3.6435,-3.5731,-3.5055,-3.4396,-3.42,-3.3965,-3.3679,-3.358,-3.3431,-3.3258,-3.2489,-3.2055,-3.1767,-3.0962,-3.0468,-3.0216,-3.0216,-3.0216,-3.0216,-3.0216,-3.0216,-3.0216,-3.0216,-3.0216,-3.0216,0.0,0.0,0.0,0.0,0.0,0.0,0.0,-3.9207,-4.0389,-4.2005,-4.2228,-4.2249,-4.2177,-4.2631,-4.2938,0.0,0.0,0.0,0.0,0.0,0.0,0.0,0.0,0.0,0.0,0.0,0.0,0.0,0.0,0.0,0.0,0.0,0.0,0.0,0.0,0.0,0.0,0.0,0.0,0.0,0.0,0.0,0.0,0.0,0.0,0.0,0.0,0.0,0.0,0.0,-3.7468,-3.6795,-3.6299,-3.6661,-3.7133,-3.6836,-3.7055,-3.7438,-3.7561,-3.7088,-3.6857,-3.8106,-3.7232,-3.6128,-3.61,-3.5859,0.0,-3.4813,-3.5119,-3.5658,-3.6304,-3.6543,-3.6775,0.0,-3.7321,-3.7564,-3.7942,-3.7986,-3.7986,0.0,-3.7986,0.0,-3.7986,-3.7986,0.0,-3.7986,-3.7986,-3.7986,-3.7986,-3.7372,-3.6831,-3.6423,-3.5785,-3.5146,-3.4482,-3.4433,-3.42,-3.3866,-3.3729,-3.3522,-3.3197,-3.2618,-3.2064,-3.1582,-3.1065,-3.0606,-3.0216,-3.0216,-3.0216,-3.0216,-3.0216,-3.0216,-3.0216,-3.0216,-3.0216,-3.0216,0.0,0.0,0.0,0.0,0.0,0.0,0.0,-3.9767,-4.1182,-4.2078,-4.2721,-4.3105,-4.3087,-4.3069,-4.303,0.0,0.0,0.0,0.0,0.0,0.0,0.0,0.0,0.0,0.0,0.0,0.0,0.0,0.0,0.0,0.0,0.0,0.0,0.0,0.0,0.0,0.0,0.0,0.0,0.0,0.0,0.0,0.0,0.0,0.0,0.0,0.0,0.0,0.0,0.0,0.0,-3.8034,-3.7976,-3.7307,-3.6686,-3.7174,0.0,0.0,-3.741,-3.7869,-3.8204,-3.8344,-3.8271,-3.7776,-3.6407,0.0,-3.5784,-3.4906,-3.5119,-3.5658,-3.6304,-3.6231,-3.6329,-3.7071,0.0,-3.7139,-3.7894,-3.7986,-3.7986,-3.7986,0.0,0.0,-3.7986,-3.7986,-3.7986,-3.7986,-3.7986,-3.7986,-3.7986,-3.7024,-3.6459,-3.6411,-3.5425,-3.4823,-3.4775,-3.4531,-3.4384,-3.4335,-3.3915,-3.3424,-3.2924,-3.2126,-3.1547,-3.1054,-3.0526,-3.0262,0.0,-3.0216,-3.0216,-3.0216,-3.0216,-3.0216,-3.0216,-3.0216,-3.0216,-3.0216,0.0,0.0,0.0,0.0,0.0,0.0,-3.8888,-3.9679,-4.0655,-4.2022,-4.2426,-4.2739,-4.316,-4.3142,-4.3049,-4.2901,0.0,0.0,0.0,0.0,0.0,0.0,0.0,0.0,0.0,0.0,0.0,0.0,0.0,0.0,0.0,0.0,0.0,0.0,0.0,0.0,0.0,0.0,0.0,0.0,0.0,0.0,0.0,0.0,0.0,0.0,0.0,0.0,0.0,0.0,0.0,0.0,-3.8441,-3.8158,0.0,0.0,-3.8892,-3.9371,-3.9612,-3.9732,-3.9855,-4.0464,-3.9754,-3.8782,-3.8398,0.0,-3.6562,-3.6173,-3.5791,-3.5658,-3.6304,-3.6323,-3.6395,-3.6874,-3.7022,-3.7185,-3.7669,-3.7887,-3.7986,-3.7986,-3.7986,0.0,0.0,0.0,-3.7986,-3.7986,-3.7986,-3.7841,-3.7529,-3.6807,-3.6266,-3.5942,-3.5208,-3.4775,-3.4775,-3.4677,-3.458,-3.4384,-3.3783,-3.327,-3.2843,-3.1757,-3.1192,-3.0985,-3.0445,-3.0216,0.0,-3.0216,-3.0216,-3.0216,-3.0216,-3.0216,-3.0216,-3.0216,-3.0216,-3.0216,0.0,0.0,0.0,0.0,0.0,-3.8168,-3.8982,-3.9575,-4.0444,-4.1917,-4.2337,-4.2649,-4.3124,-4.3105,-4.3102,-4.3245,-4.3046,0.0,0.0,0.0,0.0,0.0,0.0,0.0,0.0,0.0,0.0,-4.2202,0.0,0.0,0.0,0.0,0.0,0.0,0.0,0.0,0.0,0.0,0.0,0.0,0.0,0.0,0.0,0.0,0.0,0.0,0.0,0.0,0.0,0.0,0.0,0.0,0.0,0.0,0.0,0.0,-3.9998,-4.0924,-4.1047,-4.1074,-4.1198,-4.1912,-4.1057,-3.9991,0.0,-3.8694,-3.7545,-3.7075,-3.6332,-3.5906,-3.6329,-3.6405,-3.6498,-3.6736,-3.7085,-3.7365,-3.7597,-3.7911,-3.8092,0.0,0.0,-3.7986,-3.7986,-3.7986,-3.7986,-3.7986,-3.7841,-3.7517,-3.6988,-3.6459,-3.6002,-3.5629,-3.51,-3.4775,-3.4775,-3.4775,-3.4654,-3.4292,-3.3622,-3.3052,-3.2497,-3.147,-3.0928,-3.0755,-3.0376,-3.0216,0.0,-3.0216,-3.0216,-3.0216,-3.0216,-3.0216,-3.0216,-3.0216,-3.0216,-3.0216,0.0,0.0,0.0,0.0,0.0,0.0,-3.8117,-3.9619,-4.0978,-4.1796,-4.2596,-4.3104,-4.3104,-4.2975,-4.3227,-4.4023,-4.3372,0.0,0.0,0.0,0.0,0.0,0.0,0.0,0.0,0.0,-4.3031,-4.4564,-4.3775,-4.3809,0.0,0.0,0.0,0.0,0.0,0.0,0.0,0.0,0.0,0.0,0.0,0.0,0.0,0.0,0.0,0.0,0.0,0.0,0.0,0.0,0.0,0.0,0.0,0.0,0.0,0.0,-3.9756,-4.05,-4.0957,-4.1584,-4.2092,-4.2092,-4.2092,-4.1656,-4.0138,-3.9485,-3.8768,-3.7287,-3.6698,-3.6405,-3.6405,-3.6405,-3.6498,-3.6736,-3.7233,-3.7578,-3.7597,-3.808,-3.8303,0.0,0.0,-3.7986,-3.7986,-3.7986,-3.7986,-3.7986,-3.7505,-3.6976,-3.6447,-3.5905,-3.5629,-3.5617,-3.51,-3.4775,-3.4775,-3.4775,-3.4522,-3.4006,-3.3553,-3.2724,-3.169,-3.124,-3.0721,-3.0227,-3.0216,-3.0216,0.0,-3.0216,-3.0216,-3.0216,-3.0216,-3.0216,-3.0216,-3.0216,-3.0216,-3.0216,0.0,0.0,0.0,0.0,0.0,0.0,0.0,-3.9544,-4.0379,-4.1723,-4.2123,-4.2487,-4.305,-4.2975,-4.3227,-4.4023,-4.386,0.0,0.0,0.0,0.0,0.0,0.0,0.0,0.0,0.0,-4.3301,-4.3792,-4.4079,-4.4604,-4.5331,-4.457,0.0,0.0,0.0,0.0,0.0,0.0,0.0,0.0,0.0,0.0,0.0,0.0,0.0,0.0,0.0,0.0,0.0,0.0,0.0,0.0,0.0,0.0,0.0,0.0,0.0,0.0,-3.978,-4.0263,-4.0728,-4.0728,-4.1076,-4.1271,-4.0795,-4.0393,-4.0017,-3.9564,-3.8331,-3.7361,-3.7361,-3.6815,-3.6546,-3.7002,-3.7369,0.0,-3.8097,0.0,0.0,-3.8303,-3.8092,-3.7986,0.0,0.0,-3.7986,-3.7986,-3.7493,-3.6964,-3.6435,-3.5905,-3.5449,-3.5039,-3.4871,-3.4607,-3.4246,-3.4246,-3.3982,-3.3525,-3.2803,-3.2215,-3.1655,-3.103,-3.0513,-3.0216,-3.0216,-3.0216,-3.0216,-3.0216,-3.0216,-3.0216,-3.0216,-3.0216,-3.0216,-3.0216,-3.0216,-3.0216,0.0,0.0,0.0,0.0,0.0,0.0,0.0,-3.9492,-4.0236,-4.1252,-4.1905,-4.2468,-4.2976,-4.321,-4.3698,-4.4476,-4.482,0.0,0.0,0.0,0.0,0.0,0.0,0.0,0.0,-4.3226,-4.413,-4.4688,-4.4908,-4.5382,-4.6109,-4.5348,-4.4886,-4.4564,0.0,0.0,0.0,0.0,0.0,0.0,0.0,0.0,0.0,0.0,0.0,0.0,0.0,0.0,0.0,0.0,0.0,0.0,0.0,0.0,0.0,0.0,-3.9017,-3.9325,0.0,-3.9639,-4.0104,-4.0104,-4.0597,-4.1091,-4.1091,-4.0826,-4.0603,-4.0603,-3.9121,-3.7808,-3.7808,-3.7036,-3.6518,-3.6857,-3.7379,-3.7842,0.0,0.0,0.0,-3.825,0.0,0.0,0.0,-3.7986,-3.7902,-3.7697,-3.7192,-3.6663,-3.6134,-3.5605,-3.5027,-3.4498,-3.4486,-3.4318,-3.3994,-3.3802,-3.3501,-3.2984,-3.2395,-3.1893,-3.1555,-3.1,-3.0589,-3.0352,-3.0352,-3.0306,0.0,-3.0216,-3.0216,-3.0216,-3.0216,-3.0216,-3.0216,-3.0216,-3.0216,-3.0216,0.0,0.0,0.0,0.0,0.0,0.0,0.0,-3.9604,-4.0528,-4.06,-4.1959,-4.2901,-4.2901,-4.3626,-4.4421,-4.5236,0.0,0.0,0.0,0.0,0.0,0.0,0.0,0.0,0.0,-4.3904,-4.5331,-4.6718,-4.6041,-4.6109,-4.6853,-4.6024,-4.5314,-4.4733,-4.3876,0.0,0.0,0.0,0.0,0.0,0.0,0.0,0.0,0.0,0.0,0.0,0.0,0.0,0.0,0.0,0.0,0.0,0.0,0.0,0.0,0.0,0.0,0.0,0.0,-3.9576,-3.9958,-3.9958,-4.0466,-4.096,-4.096,-4.0767,0.0,-4.0618,-3.9214,-3.7978,-3.79,-3.7129,-3.6512,-3.6455,-3.7312,0.0,0.0,-3.8292,0.0,0.0,-3.795,0.0,-3.7926,-3.789,-3.7661,-3.718,-3.6651,-3.6134,-3.5641,-3.5088,-3.4498,-3.4006,-3.3922,-3.3886,-3.3886,-3.3464,-3.2959,-3.2442,-3.218,-3.1815,-3.1306,-3.1107,-3.0871,0.0,-3.0623,-3.0442,-3.0216,-3.0216,-3.0216,-3.0216,-3.0216,-3.0216,-3.0216,-3.0216,-3.0216,-3.0216,0.0,0.0,0.0,0.0,0.0,0.0,0.0,0.0,0.0,0.0,-4.2468,-4.3049,-4.3049,-4.3663,-4.4421,0.0,0.0,0.0,0.0,0.0,0.0,0.0,0.0,0.0,0.0,-4.4654,-4.5618,-4.5957,-4.5788,-4.638,-4.7614,-4.572,-4.5376,-4.621,-4.4891,-4.4316,0.0,0.0,0.0,0.0,0.0,0.0,0.0,0.0,0.0,0.0,-4.3868,-4.3734,0.0,0.0,0.0,0.0,0.0,0.0,0.0,0.0,-3.9104,-3.9024,-3.8743,0.0,-3.8856,-3.869,-3.9146,-3.9654,0.0,-4.0336,-4.0968,-4.0968,-4.0421,-3.9724,-3.8988,-3.8102,-3.7364,-3.7054,-3.7563,-3.8054,-3.8177,-3.8347,0.0,-3.8039,-3.7625,-3.7385,-3.7385,-3.7012,-3.6723,-3.6603,-3.6098,-3.5749,-3.5629,-3.4679,-3.4114,-3.3994,-3.3272,-3.2863,-3.2863,-3.2743,-3.2406,-3.191,-3.1809,-3.1603,-3.1306,-3.1261,-3.1095,-3.0871,-3.0679,-3.0578,-3.0487,-3.0261,-3.0216,-3.0216,-3.0216,-3.0216,-3.0216,-3.0216,-3.0216,-3.017,0.0,0.0,0.0,0.0,0.0,0.0,0.0,0.0,0.0,0.0,0.0,-4.3086,-4.3012,-4.3989,0.0,0.0,0.0,0.0,0.0,0.0,0.0,0.0,0.0,0.0,-4.342,-4.4925,-4.5872,-4.621,-4.6549,-4.6955,-4.7378,-4.616,-4.5681,-4.5766,-4.497,-4.4615,0.0,0.0,0.0,0.0,0.0,0.0,0.0,0.0,0.0,0.0,-4.344,-4.3405,0.0,-4.2443,-4.1819,-4.1327,0.0,0.0,0.0,0.0,-3.9177,-3.9031,-3.8723,-3.8795,-3.8917,-3.8705,-3.9146,-3.961,-3.961,0.0,0.0,0.0,0.0,0.0,-3.8924,-3.8007,-3.7233,-3.69,-3.7165,0.0,0.0,0.0,-3.7842,-3.734,-3.7,-3.6831,0.0,-3.6567,-3.6302,-3.6062,-3.5773,-3.5509,-3.5268,-3.4438,-3.3886,-3.3705,-3.2923,-3.2503,-3.2503,-3.225,-3.2006,-3.1705,-3.1705,-3.1617,-3.1484,-3.1484,-3.1362,-3.1139,-3.0994,-3.0859,-3.0769,-3.0487,-3.0397,-3.0352,-3.0261,-3.0216,-3.0216,-3.0216,-3.0078,-2.9848,0.0,0.0,0.0,0.0,0.0,0.0,0.0,0.0,0.0,0.0,0.0,0.0,0.0,0.0,0.0,0.0,0.0,0.0,0.0,0.0,0.0,0.0,0.0,-4.4147,-4.3606,-4.4976,-4.6058,-4.6786,-4.7445,-4.753,-4.7124,-4.6786,-4.5906,-4.4615,-4.4733,-4.4716,0.0,0.0,0.0,0.0,0.0,0.0,0.0,0.0,0.0,0.0,0.0,0.0,0.0,-4.1981,-4.1492,-4.126,-3.9844,0.0,0.0,0.0,0.0,0.0,-3.8952,-3.9266,-3.9574,-3.9257,-3.9581,-3.9958,-3.9958,0.0,0.0,0.0,0.0,0.0,0.0,-3.7475,0.0,0.0,0.0,0.0,-3.6927,-3.7275,-3.7257,-3.6471,-3.6338,0.0,-3.629,-3.6206,-3.5978,-3.5533,-3.5497,-3.5256,-3.4691,-3.4162,-3.3693,-3.3188,-3.2659,-3.237,-3.237,-3.1946,-3.1705,-3.1705,-3.1705,-3.1705,-3.1705,-3.1705,-3.1572,-3.135,0.0,0.0,-3.1017,-3.0724,-3.0623,-3.0578,-3.0306,-3.0216,-3.0204,-3.0135,-2.9848,-2.9481,0.0,0.0,0.0,0.0,0.0,0.0,0.0,0.0,0.0,0.0,0.0,0.0,0.0,0.0,0.0,0.0,0.0,0.0,0.0,0.0,0.0,0.0,-4.56,-4.5355,-4.4456,-4.5263,-4.6058,-4.6786,-4.6904,-4.7547,-4.8629,-4.6752,-4.5399,-4.4632,-4.5246,-4.5179,-4.4615,0.0,0.0,0.0,0.0,0.0,0.0,0.0,0.0,0.0,0.0,0.0,0.0,-4.1981,-4.1492,-4.126,-3.9844,0.0,0.0,0.0,0.0,0.0,-3.9325,-3.9827,-4.0076,-3.9373,-3.9276,-3.9334,-3.9334,0.0,0.0,0.0,0.0,0.0,0.0,-3.7428,-3.7539,0.0,0.0,-3.7757,0.0,0.0,-3.7051,-3.6471,0.0,-3.5737,-3.5737,-3.5328,-3.504,-3.4907,-3.4895,-3.4667,-3.4138,-3.3681,-3.3164,-3.2635,-3.2082,-3.1837,-3.1837,-3.1753,-3.1705,-3.1705,-3.1705,-3.1705,-3.1705,-3.1705,-3.1661,-3.1617,0.0,-3.1261,-3.1217,-3.0802,-3.0623,-3.0578,-3.0306,-3.0216,-3.017,-2.9757,-2.9561,-2.9378,0.0,0.0,0.0,0.0,0.0,0.0,0.0,0.0,0.0,0.0,0.0,0.0,0.0,0.0,0.0,0.0,0.0,0.0,0.0,0.0,0.0,-4.5767,-4.5673,-4.5433,-4.4998,-4.574,-4.6321,-4.6646,-4.7136,-4.7547,-4.7784,-4.6363,-4.5517,-4.5213,-4.5551,-4.5517,-4.5213,-4.5602,0.0,0.0,0.0,0.0,0.0,0.0,0.0,0.0,0.0,0.0,0.0,0.0,-4.1492,-4.126,-3.9844,0.0,0.0,0.0,0.0,0.0,-3.8956,-3.9361,-3.9625,-3.9064,-3.9575,-4.0101,-3.9608,-3.8892,0.0,0.0,0.0,0.0,0.0,0.0,-3.6983,-3.66,-3.7216,-3.7463,-3.6626,-3.6642,-3.6471,-3.5653,-3.534,-3.5196,-3.5196,-3.4919,-3.4775,-3.4775,-3.451,-3.4246,-3.4006,-3.3296,-3.2755,-3.2515,-3.1994,-3.1705,-3.1705,-3.1705,-3.1705,-3.1705,-3.1705,-3.1705,-3.1705,-3.1705,-3.1705,-3.1705,0.0,-3.1528,-3.1484,-3.1005,-3.0826,-3.0781,-3.0352,-3.0055,-2.9734,-2.8964,-2.8677,-2.8574,0.0,0.0,0.0,0.0,0.0,0.0,0.0,0.0,0.0,0.0,0.0,0.0,0.0,0.0,0.0,0.0,0.0,0.0,0.0,0.0,-4.6418,-4.5925,-4.5622,-4.5381,-4.5152,-4.5743,-4.6138,-4.6327,-4.7024,-4.7192,-4.6786,-4.6583,-4.6295,-4.5974,-4.6143,-4.6126,-4.5991,-4.6549,-4.6887,0.0,0.0,0.0,0.0,0.0,0.0,0.0,0.0,0.0,0.0,0.0,0.0,0.0,0.0,0.0,0.0,-3.8926,-3.8722,-3.8568,-3.8472,-3.8693,-3.8938,-3.8797,0.0,-4.0204,-3.9662,-3.8713,0.0,0.0,0.0,0.0,0.0,-3.635,-3.6395,-3.6198,-3.6901,-3.6994,-3.5749,-3.5966,-3.5869,-3.4895,-3.4775,-3.4775,-3.4775,-3.4775,-3.4727,-3.4607,-3.4222,-3.3886,-3.3646,-3.2935,-3.2442,-3.231,-3.1934,-3.1705,-3.1705,-3.1705,-3.1705,-3.1705,-3.1705,-3.1705,-3.1705,-3.1705,-3.1705,-3.1705,-3.1705,-3.1705,-3.1661,-3.1196,-3.0984,-3.0927,-3.0408,-2.9848,-2.9206,-2.831,-2.7908,-2.7748,0.0,0.0,0.0,0.0,0.0,0.0,0.0,0.0,0.0,0.0,0.0,0.0,0.0,0.0,0.0,0.0,0.0,0.0,0.0,0.0,-4.567,-4.5373,-4.5817,-4.5606,-4.4682,-4.4705,-4.5077,-4.576,-4.5821,-4.6177,-4.6819,-4.8156,-4.8037,-4.6752,-4.7445,-4.7361,-4.6718,-4.6769,-4.7192,0.0,0.0,0.0,0.0,0.0,0.0,0.0,0.0,0.0,0.0,0.0,0.0,0.0,0.0,0.0,-3.9233,-3.8263,-3.7978,-3.8002,-3.8154,-3.8246,-3.8375,-3.8793,-3.8519,-3.8304,-3.8981,-3.7224,0.0,-3.6632,0.0,0.0,0.0,-3.592,-3.6493,-3.672,-3.6828,-3.6569,-3.5701,-3.5653,-3.5461,-3.4847,-3.4775,-3.4775,-3.4775,-3.4775,-3.457,-3.409,-3.4018,-3.3574,-3.2659,-3.2539,-3.2262,-3.1789,-3.1729,-3.1705,-3.1705,-3.1705,-3.1705,-3.1705,-3.1705,-3.1705,-3.1705,-3.1705,-3.1705,-3.1705,-3.1705,-3.1705,-3.1661,-3.1196,-3.0984,-3.0927,-3.0408,-2.9619,-2.8689,-2.8172,-2.769,-2.7236,0.0,0.0,0.0,0.0,0.0,0.0,0.0,0.0,0.0,0.0,0.0,0.0,0.0,0.0,0.0,0.0,0.0,0.0,0.0,0.0,-4.5176,-4.5043,-4.5131,-4.4988,-4.4598,-4.4879,-4.5172,-4.5436,-4.6062,-4.6769,-4.7513,-4.8054,-4.8037,-4.7513,-4.78,-4.7496,-4.6853,-4.7784,-4.8071,-4.7804,0.0,0.0,0.0,0.0,0.0,0.0,0.0,0.0,0.0,0.0,-3.9803,-3.9596,-3.8512,-3.8167,-3.8053,-3.7443,-3.7278,-3.7252,-3.7077,-3.7607,-3.7949,-3.7021,-3.6919,0.0,0.0,-3.7016,-3.6337,-3.6504,-3.5915,0.0,0.0,0.0,-3.5938,-3.6032,-3.6345,-3.6319,-3.5689,-3.5617,-3.5425,-3.4847,-3.4775,-3.4655,-3.4318,-3.4294,-3.4078,-3.3609,-3.3272,-3.2911,-3.2527,-3.2166,-3.1934,-3.1717,-3.1705,-3.1705,-3.1705,-3.1705,-3.1705,-3.1705,-3.1705,-3.1705,-3.1705,-3.1705,-3.1705,-3.1705,-3.1705,-3.1705,-3.1661,-3.1318,-3.1107,-3.0869,-2.9704,-2.885,-2.8195,-2.7702,-2.7351,-2.719,0.0,0.0,0.0,0.0,0.0,0.0,0.0,0.0,0.0,0.0,0.0,0.0,0.0,0.0,0.0,0.0,0.0,0.0,0.0,-4.4139,-4.4383,-4.4874,-4.4454,-4.4333,-4.4598,-4.465,-4.4832,-4.5089,-4.6005,-4.6836,-4.7564,-4.777,-4.8007,-4.8257,-4.799,-4.7631,-4.7192,-4.7986,-4.802,-4.7496,-4.6752,0.0,0.0,0.0,0.0,0.0,0.0,0.0,0.0,0.0,-3.9247,-3.8905,-3.8022,0.0,-3.7252,-3.6749,-3.6678,-3.672,-3.6387,-3.7099,-3.7528,-3.5934,0.0,0.0,-3.633,-3.6296,-3.6328,-3.6468,-3.6163,-3.5716,-3.5175,0.0,0.0,-3.534,-3.5533,-3.5593,-3.54,-3.522,-3.4943,-3.457,-3.4438,-3.4198,-3.379,-3.3801,-3.3597,-3.308,-3.2707,-3.243,-3.225,-3.191,-3.1705,-3.1705,-3.1705,-3.1705,-3.1705,-3.1536,-3.1536,-3.1705,-3.1536,-3.1548,-3.1705,-3.1705,-3.1705,-3.1705,-3.1705,-3.1705,-3.1661,-3.1395,-3.1033,-3.0486,-2.9089,-2.836,-2.792,-2.7415,-2.719,-2.719,0.0,0.0,0.0,0.0,0.0,0.0,0.0,0.0,0.0,0.0,0.0,0.0,0.0,0.0,0.0,0.0,0.0,0.0,-4.4023,-4.3166,-4.3278,-4.4804,-4.394,-4.3775,-4.4581,-4.3826,-4.3809,-4.4598,-4.5331,-4.6075,-4.6802,-4.7564,-4.8308,-4.8951,-4.821,-4.7889,-4.7821,-4.7107,-4.6786,-4.6718,-4.5991,-4.5703,0.0,0.0,0.0,0.0,0.0,0.0,0.0,0.0,-3.888,-3.8401,-3.8378,0.0,0.0,-3.6153,-3.6212,-3.6564,-3.6336,-3.678,-3.7011,-3.5864,0.0,0.0,-3.4978,-3.468,-3.5098,-3.6486,-3.617,-3.5428,-3.4884,-3.4342,0.0,-3.4691,-3.433,-3.4162,-3.4691,-3.4318,-3.3982,-3.3982,-3.3585,-3.3284,-3.3284,-3.3284,-3.3056,-3.2527,-3.2491,-3.225,-3.1741,-3.1705,-3.1705,-3.1705,-3.1705,-3.1705,-3.1705,-3.1175,-3.1175,-3.1681,-3.1163,-3.1187,-3.1705,-3.1705,-3.1705,-3.1705,-3.1705,-3.1705,-3.1661,-3.1383,-3.0708,-2.9706,-2.8665,-2.8156,-2.792,-2.7415,-2.719,-2.719,0.0,0.0,0.0,0.0,0.0,0.0,0.0,0.0,0.0,0.0,0.0,0.0,0.0,0.0,0.0,0.0,0.0,0.0,-4.3245,-4.3158,-4.3165,-4.3284,-4.3671,-4.3849,-4.3758,-4.4079,-4.4079,-4.3775,-4.506,-4.5821,-4.6058,-4.7297,-4.775,-4.7462,-4.7784,-4.7314,-4.638,-4.6667,-4.6498,-4.6007,-4.5788,-4.5703,0.0,0.0,0.0,0.0,0.0,0.0,0.0,0.0,0.0,0.0,-3.665,0.0,0.0,-3.544,-3.5536,-3.5775,-3.5131,-3.5655,-3.6043,-3.4628,0.0,0.0,0.0,-3.4753,0.0,0.0,-3.5622,-3.5223,-3.4872,-3.4342,0.0,-3.4198,-3.3849,-3.3573,-3.3729,-3.3609,-3.3513,-3.3513,-3.338,-3.314,-3.2767,-3.2743,-3.2503,-3.1994,-3.1958,-3.1886,-3.1717,-3.1705,-3.1705,-3.1705,-3.1344,-3.1151,-3.1151,-3.0633,-3.0398,-3.0555,-3.0398,-3.0838,-3.1705,-3.1705,-3.1705,-3.1705,-3.1705,-3.15,-3.1084,-3.0441,-2.9733,-2.8996,-2.8482,-2.7937,-2.7438,-2.7247,-2.719,-2.719,0.0,0.0,0.0,0.0,0.0,0.0,0.0,0.0,0.0,0.0,0.0,0.0,0.0,0.0,0.0,0.0,0.0,0.0,0.0,0.0,-4.2591,-4.2594,-4.3086,-4.3386,-4.3403,-4.4181,-4.4198,-4.3392,-4.4654,-4.5415,-4.572,-4.6616,-4.6955,-4.6802,-4.6972,-4.638,-4.5263,-4.5399,0.0,0.0,-4.4807,-4.4807,-4.466,0.0,0.0,0.0,0.0,0.0,0.0,0.0,0.0,0.0,-3.6492,0.0,-3.5629,-3.5381,-3.5571,-3.5831,-3.5625,-3.5968,-3.6116,-3.5082,-3.5345,-3.569,-3.4851,0.0,0.0,0.0,-3.532,-3.5054,-3.4547,-3.409,0.0,-3.3741,-3.3308,-3.3056,-3.326,-3.3104,-3.2971,-3.2971,-3.2779,-3.2527,-3.2202,-3.2166,-3.2034,-3.1729,-3.1705,-3.1705,-3.1705,-3.1705,-3.1705,-3.1705,-3.1199,-3.0922,-3.0922,-3.0146,-2.9881,-3.0086,-2.9869,-3.0218,-3.1079,-3.1079,-3.1079,-3.1079,-3.1079,-3.0898,-3.0518,-2.9738,-2.9136,-2.8633,-2.8174,-2.7648,-2.719,-2.719,-2.719,-2.719,0.0,0.0,0.0,0.0,0.0,0.0,0.0,0.0,0.0,0.0,0.0,0.0,0.0,0.0,0.0,0.0,0.0,0.0,0.0,0.0,-4.1886,-4.2454,-4.238,-4.2675,-4.3504,-4.4215,-4.4231,-4.3521,-4.4231,-4.4925,-4.5602,-4.5669,-4.6024,-4.6566,-4.5906,-4.5179,-4.4445,0.0,0.0,-4.3291,-4.3291,-4.3291,-4.3291,-4.3143,0.0,0.0,0.0,0.0,0.0,0.0,0.0,0.0,-3.734,-3.6274,-3.5178,-3.5691,-3.6078,-3.6431,-3.6983,-3.6949,-3.671,-3.6457,-3.5874,0.0,-3.5478,-3.5258,-3.5053,-3.509,0.0,-3.4787,-3.4066,-3.3561,-3.3224,-3.3224,-3.2767,-3.2587,-3.308,-3.2719,-3.243,-3.243,-3.2018,-3.1705,-3.1705,-3.1705,-3.1705,-3.1705,-3.1705,-3.1705,-3.1705,-3.1705,-3.1681,-3.1633,-3.1127,-3.0783,-3.0735,-2.9737,-2.946,-2.9941,-2.946,-2.9484,-2.9941,-3.0037,-3.0086,-3.0086,-3.0037,-3.0013,-2.9977,-2.923,-2.8822,-2.8539,-2.7801,-2.7371,-2.719,-2.719,-2.719,-2.719,0.0,0.0,0.0,0.0,0.0,0.0,0.0,0.0,0.0,0.0,0.0,0.0,0.0,0.0,0.0,0.0,0.0,0.0,0.0,0.0,-4.2351,-4.1771,-4.2088,-4.2929,-4.4327,-4.4513,-4.453,-4.4333,-4.453,-4.4682,-4.4869,0.0,0.0,-4.5089,0.0,-4.4401,-4.3623,0.0,-4.254,-4.254,-4.254,-4.254,-4.2513,-4.2395,-4.1705,0.0,0.0,0.0,0.0,0.0,0.0,0.0,-3.692,-3.6611,-3.6416,-3.5429,-3.5795,-3.642,-3.595,-3.5789,-3.5736,-3.5466,-3.4696,-3.4145,-3.4539,-3.4146,-3.387,-3.4471,-3.4086,-3.3678,-3.3464,-3.302,-3.2671,-3.2671,-3.2202,-3.1934,-3.2042,-3.1958,-3.1886,-3.1886,-3.1789,-3.1705,-3.1705,-3.1705,-3.1705,-3.1705,-3.1705,-3.1705,-3.1705,-3.1705,-3.1524,-3.1103,-3.053,-3.0062,-2.9641,-2.9003,-2.8739,-2.8847,-2.8739,-2.8739,-2.8883,-2.9713,-3.0086,-3.0062,-2.9641,-2.9472,-2.9424,-2.8693,-2.8236,-2.8034,-2.765,-2.7371,-2.719,-2.719,-2.719,-2.719,0.0,0.0,0.0,0.0,0.0,0.0,0.0,0.0,0.0,0.0,0.0,0.0,0.0,0.0,0.0,0.0,0.0,0.0,0.0,0.0,-4.2121,-4.1892,-4.2159,-4.3014,-4.4581,-4.4615,-4.4615,-4.4615,-4.4615,-4.4615,-4.4615,0.0,0.0,-4.4581,0.0,-4.3606,0.0,0.0,-4.1762,-4.1762,-4.1762,-4.1736,-4.1683,-4.162,-4.098,-4.0174,-4.0104,0.0,0.0,0.0,0.0,0.0,0.0,0.0,-3.6493,-3.5611,-3.5742,-3.6155,-3.6285,-3.6033,-3.5582,-3.4969,0.0,-3.3808,-3.3855,-3.3377,-3.303,-3.3387,-3.3389,-3.3212,-3.2959,-3.2695,-3.2406,-3.2142,-3.1898,-3.1705,-3.1705,-3.1705,-3.1705,-3.1705,-3.1705,-3.1705,-3.1705,-3.1705,-3.1705,-3.1705,-3.1705,-3.1597,-3.1344,-3.1332,-3.1091,-3.0506,-2.9989,-2.9581,-2.9304,-2.8775,-2.851,-2.851,-2.851,-2.851,-2.8522,-2.9076,-2.9328,-2.9316,-2.9039,-2.8919,-2.8895,-2.8418,-2.807,-2.7881,-2.7615,-2.7371,-2.719,-2.719,-2.719,-2.719,0.0,0.0,0.0,0.0,0.0,0.0,0.0,0.0,0.0,0.0,0.0,0.0,0.0,0.0,0.0,0.0,0.0,0.0,0.0,-4.2035,-4.1748,-4.233,-4.2325,-4.2895,-4.4192,-4.4344,-4.4344,-4.4209,-4.4209,-4.4344,-4.4615,0.0,0.0,-4.4564,0.0,0.0,0.0,0.0,-4.1018,-4.1018,-4.1018,-4.0923,-4.0819,-4.0776,-4.0239,-3.9501,-3.9475,-3.9379,-3.9299,-3.9299,0.0,0.0,0.0,0.0,-3.6334,-3.5856,-3.5702,-3.5839,-3.6736,-3.653,-3.5864,-3.491,-3.435,0.0,-3.3325,-3.2777,-3.2358,-3.2358,-3.2707,-3.2875,-3.243,-3.2358,-3.2202,-3.1789,-3.1705,-3.1705,-3.1705,-3.1705,-3.1705,-3.1705,-3.1705,-3.1705,-3.1705,-3.1705,-3.1705,-3.1705,-3.1705,-3.1476,-3.0946,-3.0922,-3.0591,-2.9965,-2.9532,-2.9256,-2.916,-2.8727,-2.851,-2.851,-2.851,-2.851,-2.851,-2.851,-2.851,-2.851,-2.851,-2.851,-2.8471,-2.8299,-2.807,-2.7881,-2.7615,-2.7371,-2.719,-2.719,-2.719,-2.719,0.0,0.0,0.0,0.0,0.0,0.0,0.0,0.0,0.0,0.0,0.0,-4.3376,-4.3233,-4.3142,0.0,0.0,0.0,0.0,-4.2901,0.0,0.0,-4.2533,-4.239,-4.2388,-4.2591,-4.3234,-4.325,-4.2591,-4.2591,-4.3295,-4.4615,-4.4615,0.0,-4.4547,0.0,0.0,0.0,0.0,-4.0248,-4.0248,-4.0248,-4.0163,-4.0035,-3.9932,-3.9726,-3.9484,-3.9352,-3.9325,-3.9299,-3.9299,-3.9245,0.0,0.0,0.0,-3.6936,-3.5469,-3.5417,-3.5835,-3.568,-3.5997,-3.622,0.0,-3.4773,-3.3878,0.0,0.0,-3.1825,0.0,-3.1874,-3.1898,-3.1837,-3.1825,-3.1789,-3.1717,-3.1705,-3.1705,-3.1705,-3.1705,-3.1705,-3.1705,-3.1705,-3.1705,-3.1705,-3.1705,-3.1705,-3.1705,-3.1705,-3.1476,-3.0946,-3.0922,-3.0422,-2.9436,-2.934,-2.9076,-2.8619,-2.8546,-2.851,-2.851,-2.851,-2.851,-2.851,-2.851,-2.851,-2.851,-2.851,-2.851,-2.8471,-2.8299,-2.807,-2.7881,-2.7615,-2.7371,-2.719,-2.719,-2.719,-2.719,0.0,0.0,0.0,0.0,0.0,0.0,0.0,0.0,0.0,0.0,0.0,-4.3269,-4.3214,-4.3142,0.0,0.0,0.0,0.0,-4.2518,-4.2136,0.0,0.0,0.0,-4.2142,-4.2313,-4.2625,-4.2625,-4.2286,-4.2286,-4.3081,-4.4615,-4.4615,-4.5055,0.0,0.0,0.0,0.0,0.0,0.0,-4.0096,-4.0096,-4.0214,-4.0342,-3.9897,-3.9814,-3.9943,-3.9475,-3.9299,-3.9299,-3.9299,-3.9299,-3.9148,-3.8181,0.0,0.0,0.0,-3.5743,-3.5913,-3.5898,-3.5758,-3.5606,0.0,-3.4564,-3.345,-3.3164,-3.2435,-3.1849,-3.1705,-3.1705,-3.1705,-3.1705,-3.1705,-3.1705,-3.1705,-3.1705,-3.1705,-3.1705,-3.1705,-3.1705,-3.1705,-3.1705,-3.1705,-3.1705,-3.144,-3.1259,-3.1259,-3.0995,-3.0555,-3.0025,-2.9989,-2.9641,-2.8883,-2.8859,-2.8751,-2.851,-2.851,-2.851,-2.851,-2.851,-2.851,-2.851,-2.851,-2.851,-2.851,-2.851,-2.851,-2.851,-2.8379,-2.8191,-2.7893,-2.7788,-2.7505,-2.719,-2.719,-2.719,-2.719,0.0,0.0,0.0,0.0,0.0,0.0,0.0,0.0,0.0,0.0,0.0,0.0,-4.3251,0.0,0.0,0.0,0.0,0.0,-4.2398,0.0,0.0,0.0,0.0,-4.1866,-4.1737,-4.1914,-4.1914,-4.1728,-4.1728,-4.2736,-4.4615,-4.4615,-4.5596,0.0,-4.5444,-4.4147,0.0,0.0,0.0,0.0,-4.0468,-4.0568,-4.0802,-4.0407,-4.0465,-4.063,-3.9846,-3.958,-3.9547,-3.9365,-3.9299,-3.9208,-3.8718,-3.8152,0.0,0.0,0.0,-3.6109,-3.6241,-3.5841,-3.5365,-3.5428,-3.4585,-3.3641,0.0,0.0,-3.2183,-3.17,-3.1544,-3.1464,-3.1332,-3.1524,-3.1705,-3.1705,-3.1705,-3.1705,-3.1705,-3.1705,-3.1705,-3.1705,-3.1705,-3.1705,-3.1705,-3.1356,-3.1067,-3.0922,-3.0506,-3.0001,-2.9328,-2.9304,-2.9051,-2.8522,-2.851,-2.851,-2.851,-2.851,-2.851,-2.851,-2.851,-2.851,-2.851,-2.851,-2.851,-2.851,-2.851,-2.851,-2.851,-2.851,-2.8283,-2.7893,-2.7893,-2.7598,-2.719,-2.719,-2.719,-2.719,0.0,0.0,0.0,0.0,0.0,0.0,0.0,0.0,0.0,0.0,0.0,0.0,-4.3394,-4.3269,-4.316,-4.3104,0.0,0.0,0.0,0.0,0.0,0.0,0.0,0.0,0.0,-4.0899,-4.0899,-4.0214,-4.0214,-4.1721,-4.4615,-4.4615,-4.6126,-4.8765,-4.5872,-4.4147,-4.3291,0.0,0.0,0.0,0.0,-4.1092,-4.1062,-4.159,-4.1738,-4.1533,-4.0663,-4.0343,-4.0243,-3.9547,-3.9299,-3.9307,-3.9333,-3.8875,-3.8323,0.0,0.0,0.0,-3.6336,-3.6265,-3.605,-3.5243,-3.5268,-3.5045,0.0,-3.3164,-3.283,-3.1492,-3.1076,-3.0814,-3.0266,-3.1031,-3.1705,-3.1705,-3.1705,-3.1705,-3.1705,-3.1705,-3.1705,-3.1705,-3.1705,-3.1705,-3.1705,-3.1681,-3.1452,-3.0958,-3.0855,-3.0386,-2.9352,-2.9304,-2.9051,-2.8522,-2.851,-2.851,-2.851,-2.851,-2.851,-2.851,-2.851,-2.851,-2.851,-2.851,-2.851,-2.851,-2.851,-2.851,-2.851,-2.851,-2.8283,-2.7893,-2.7893,-2.7598,-2.719,-2.719,-2.719,-2.719,0.0,0.0,0.0,0.0,0.0,0.0,0.0,0.0,0.0,0.0,0.0,0.0,0.0,-4.3031,-4.2994,-4.2957,-4.2975,0.0,0.0,0.0,0.0,0.0,0.0,0.0,0.0,-4.0367,-4.0367,-4.0096,-4.0096,-4.1145,-4.3115,-4.3606,-4.4401,-4.5415,-4.5348,-4.5145,-4.4722,-4.2252,0.0,0.0,-4.1322,-4.1413,-4.1685,-4.1412,-4.1523,-4.1654,-4.0307,-3.9804,-3.9771,-3.9425,-3.9299,-3.9404,-3.9896,-3.9279,-3.8357,-3.8167,-3.7193,-3.6285,0.0,0.0,-3.5201,-3.5712,-3.5212,-3.4394,-3.3552,-3.2849,-3.2095,-3.0905,-3.0544,-3.0314,-3.0122,-3.0398,-3.0814,-3.1151,-3.1199,-3.132,-3.1657,-3.1705,-3.1705,-3.1705,-3.1705,-3.1705,-3.1705,-3.1404,-3.0983,-3.041,-3.0062,-2.9556,-2.8835,-2.8799,-2.8703,-2.8522,-2.851,-2.851,-2.851,-2.851,-2.851,-2.851,-2.851,-2.851,-2.851,-2.851,-2.851,-2.851,-2.851,-2.851,-2.851,-2.851,-2.8283,-2.7893,-2.7893,-2.7598,-2.719,-2.719,-2.719,-2.719,0.0,0.0,0.0,0.0,0.0,0.0,0.0,0.0,0.0,-4.3214,0.0,0.0,0.0,0.0,-4.2975,-4.2975,-4.2938,-4.2768,-4.2458,0.0,0.0,0.0,0.0,0.0,0.0,-4.0096,-4.0096,-4.0096,-4.0096,-4.0857,0.0,-4.2811,-4.3318,-4.3826,-4.4333,-4.484,0.0,0.0,0.0,-4.1931,-4.1677,-4.1659,-4.1805,-4.2031,-4.2142,-4.2051,-4.0756,-4.0326,-4.0222,-3.9578,-3.9441,-3.9637,-4.0215,-3.9794,-3.8999,-3.8567,-3.7553,0.0,-3.7403,0.0,0.0,0.0,-3.5418,-3.457,-3.3512,-3.2868,-3.2024,-3.0561,-3.007,-2.9844,-2.9593,-2.9556,-2.9845,-3.0735,-3.0922,-3.1103,-3.1633,-3.1705,-3.1705,-3.1705,-3.1705,-3.1705,-3.1705,-3.1392,-3.097,-3.0398,-3.0025,0.0,-2.8811,-2.8775,-2.8691,-2.8522,-2.851,-2.851,-2.851,-2.851,-2.851,-2.851,-2.851,-2.851,-2.851,-2.851,-2.851,-2.851,-2.851,-2.851,-2.851,-2.851,-2.8283,-2.7893,-2.7893,-2.7598,-2.719,-2.719,-2.719,-2.719,0.0,0.0,0.0,0.0,0.0,0.0,0.0,0.0,-4.3414,-4.3251,0.0,0.0,0.0,0.0,0.0,-4.3122,-4.2993,-4.2882,-4.2863,-4.2438,0.0,0.0,0.0,0.0,0.0,-4.0096,-4.0096,-4.0096,-4.0096,-4.084,-4.2236,0.0,-4.3075,-4.4445,-4.2973,-4.3115,-4.4429,-4.2905,-4.2675,-4.3291,-4.2557,-4.1863,-4.1482,-4.3457,-4.363,-4.268,-4.2065,-4.1894,-4.1709,-4.0077,-3.9738,-4.0037,-4.028,-4.038,-4.0221,-3.9324,-3.8491,0.0,0.0,0.0,0.0,0.0,0.0,0.0,-3.3412,-3.3201,-3.2802,-3.0471,-2.9796,-2.9383,-2.8646,-2.851,-2.9027,-3.0621,-3.0886,-3.1091,-3.1633,-3.1705,-3.1705,-3.1705,-3.1705,-3.1705,-3.1705,-3.1705,-3.1488,-3.0958,-3.091,-3.0441,-2.9352,-2.928,-2.9039,-2.8522,-2.851,-2.851,-2.851,-2.851,-2.851,-2.851,-2.851,-2.851,-2.851,-2.851,-2.851,-2.851,-2.851,-2.851,-2.851,-2.851,-2.8283,-2.7893,-2.7881,-2.7598,-2.719,-2.719,-2.719,-2.719,0.0,0.0,0.0,0.0,0.0,-4.6449,-4.5751,-4.5276,-4.4746,0.0,0.0,0.0,-4.388,-4.33,-4.3192,-4.3772,-4.3263,-4.2596,-4.1931,-4.1782,-4.1326,-4.0514,-4.036,-4.0229,-4.0096,-4.0096,-4.0096,-4.0096,-4.0096,-4.0316,-4.0722,-4.1255,-4.1728,-4.2151,-4.2252,-4.2523,-4.2855,-4.1348,0.0,-4.254,-4.1796,-4.2033,-4.2733,-4.2233,-4.2211,-4.2319,-4.1316,-4.0977,-4.0899,-4.0221,-4.0078,-4.0096,-3.9719,-3.9638,-3.9502,-3.8623,-3.7464,0.0,-3.6816,0.0,0.0,0.0,0.0,0.0,0.0,-3.2673,-3.1929,-3.0701,-2.9669,-2.8974,-2.8749,-2.8618,-2.8775,-2.9605,-3.0062,-3.0627,-3.1585,-3.1705,-3.1705,-3.1705,-3.1705,-3.1705,-3.1705,-3.1705,-3.1488,0.0,-3.0518,-3.0013,-2.934,-2.8931,-2.8655,-2.851,-2.851,-2.851,-2.851,-2.851,-2.851,-2.851,-2.851,-2.851,-2.851,-2.851,-2.851,-2.851,-2.851,-2.851,-2.8471,-2.8339,-2.8111,-2.7881,-2.7708,-2.7452,-2.719,-2.719,-2.719,-2.719,0.0,0.0,0.0,-4.7775,-4.7118,-4.6466,-4.6109,-4.5782,-4.5361,0.0,0.0,0.0,-4.4639,-4.3878,-4.3588,-4.4059,-4.3372,-4.2577,-4.1846,-4.1613,-4.1185,-4.041,-4.0196,-4.0096,-4.0096,-4.0096,-4.0096,-4.0096,-4.0096,-4.0096,-4.0113,-4.0527,-4.073,-4.0747,-4.1196,-4.1399,-4.1331,-4.0468,-4.0764,-4.183,-4.1711,-4.1999,-4.2472,-4.2219,-4.2113,-4.2014,-4.117,-4.0886,-4.0832,-4.0203,-3.9919,-3.9754,-3.941,-3.9347,-3.9214,-3.8469,-3.7298,0.0,0.0,0.0,0.0,0.0,0.0,0.0,-3.3458,-3.2791,-3.2037,-3.072,-2.9935,-2.925,-2.8764,-2.8578,-2.8691,-2.9208,-2.9737,-3.0386,-3.1259,-3.1573,-3.1789,-3.203,-3.201,-3.201,-3.201,-3.201,-3.1793,-3.1284,-3.0915,-3.0422,-2.9665,-2.8919,-2.851,-2.851,-2.851,-2.851,-2.851,-2.851,-2.851,-2.851,-2.851,-2.851,-2.851,-2.851,-2.851,-2.851,-2.851,-2.851,-2.8471,-2.8191,-2.8002,-2.7881,-2.7615,-2.7371,-2.719,-2.719,-2.719,-2.719,0.0,0.0,-4.7106,-4.7106,-4.651,-4.6151,-4.6524,-4.6078,-4.5604,0.0,-4.5436,-4.5472,-4.5562,-4.4693,-4.4168,-4.4349,-4.3462,-4.2709,-4.2282,-4.1774,-4.1276,-4.0731,-4.0328,-4.0096,-4.0096,-4.0096,-4.0096,-4.0096,-4.0096,-4.0096,-4.0096,-4.0096,-4.0096,-4.0096,-4.0096,-4.0096,-4.0096,-4.0096,-4.0485,-4.1136,-4.188,-4.183,-4.1457,-4.2682,-4.2593,-4.1759,-4.1316,-4.1236,-4.1169,-4.0129,-3.9573,-3.9317,-3.9316,-3.9237,-3.9087,-3.8543,-3.7688,0.0,0.0,0.0,0.0,0.0,0.0,0.0,-3.3648,-3.3262,-3.2706,-3.0983,-3.0469,-3.0024,-2.8922,-2.8657,-2.8707,-2.9217,-2.9742,-3.032,-3.0838,-3.138,-3.191,-3.243,-3.2503,-3.2527,-3.2575,-3.2527,-3.2298,-3.1837,-3.1633,-3.1103,-3.0062,-2.9051,-2.851,-2.851,-2.851,-2.851,-2.851,-2.851,-2.851,-2.851,-2.851,-2.851,-2.851,-2.851,-2.851,-2.851,-2.851,-2.8471,-2.8431,-2.8042,-2.7893,-2.7893,-2.7574,-2.7371,-2.719,-2.719,-2.719,-2.719,0.0,-4.6537,-4.6484,-4.6484,-4.6336,-4.6152,-4.593,-4.6402,-4.6661,-4.63,-4.6269,-4.6522,-4.7174,-4.5363,-4.4621,-4.5924,-4.4095,-4.2807,-4.2617,-4.1899,-4.1116,-4.0279,-4.0146,-4.0096,-4.0096,-4.0096,-4.0096,-4.0096,-4.0096,-4.0096,-4.0096,-4.0096,-4.0096,-4.0096,-4.0096,-4.0096,-4.0096,-4.0096,-4.018,-4.0383,-4.1119,-4.1677,-4.2049,-4.1745,-4.151,-4.1308,-4.1001,-4.0875,-4.0849,-4.0417,-3.9901,-3.9438,-3.9313,-3.893,-3.8436,-3.8219,-3.764,-3.6894,-3.6054,-3.5716,0.0,0.0,-3.4603,0.0,-3.4225,-3.3659,-3.3073,-3.2706,-3.1513,-3.0456,-3.0228,-2.9535,-2.901,-2.9108,-2.9841,-3.0447,-3.085,-3.138,-3.191,-3.243,-3.2503,-3.2671,-3.3092,-3.2755,-3.2454,-3.2346,-3.1132,-3.0122,-2.9484,-2.8859,-2.851,-2.851,-2.851,-2.851,-2.851,-2.851,-2.851,-2.851,-2.851,-2.851,-2.851,-2.851,-2.851,-2.851,-2.851,-2.8431,-2.8219,-2.8002,-2.7893,-2.7852,-2.7435,-2.7231,-2.719,-2.719,-2.719,-2.719,-4.5944,-4.5858,-4.58,-4.58,-4.58,-4.5926,-4.626,-4.6704,-4.7151,-4.7636,-4.7717,-4.7717,-4.7717,-4.6269,-4.5454,-4.587,-4.4802,-4.3622,-4.253,-4.2234,-4.1609,-4.05,-4.0204,-4.0096,-4.0096,-4.0096,-4.0096,-4.0096,-4.0096,-4.0096,-4.0096,-4.0096,-4.0096,-4.0096,-4.0096,-4.0096,-4.0096,-4.0096,-4.0096,-4.0163,-4.0899,-4.1424,-4.1711,-4.1339,-4.1204,-4.1128,-4.0626,-4.0427,-4.0328,-4.0204,-3.9841,-3.9501,-3.9422,-3.9104,-3.8717,-3.8322,-3.7908,-3.7413,-3.6584,-3.6072,-3.5642,-3.5106,-3.4754,0.0,0.0,-3.4079,-3.3673,-3.3143,-3.2349,-3.1586,-3.1143,-3.0632,-3.0291,-3.0291,-3.0788,-3.1115,-3.0873,-3.132,-3.191,-3.243,-3.2743,-3.2899,-3.2899,-3.2899,-3.2671,-3.2118,-3.1096,-3.0254,-2.9725,-2.9184,-2.8787,-2.8522,-2.851,-2.851,-2.851,-2.851,-2.851,-2.851,-2.851,-2.851,-2.851,-2.851,-2.851,-2.851,-2.851,-2.8391,-2.8179,-2.8002,-2.7841,-2.7667,-2.7353,-2.719,-2.719,-2.719,-2.719,-2.719,-4.539,-4.5241,-4.5178,-4.5178,-4.5178,-4.5485,-4.6454,-4.659,-4.7054,-4.8351,-4.8739,-4.8637,-4.7986,-4.721,-4.6595,-4.625,-4.5653,-4.4676,-4.3221,-4.2842,-4.2265,-4.1291,-4.0506,-4.018,-4.0316,-4.018,-4.0096,-4.0096,-4.0096,-4.0096,-4.0096,-4.007,-4.0062,-4.0062,-4.002,0.0,0.0,0.0,0.0,-4.0146,-4.0747,-4.0984,-4.1001,-4.1153,-4.1119,-4.0916,-4.0316,-4.0037,-3.9935,-3.9901,-3.9746,-3.958,-3.9528,-3.9448,-3.9245,-3.8645,-3.8407,-3.8181,-3.7472,-3.6814,-3.6228,-3.5899,-3.5432,-3.5019,0.0,0.0,0.0,-3.3561,-3.3143,-3.272,0.0,-3.1719,0.0,-3.1609,0.0,0.0,0.0,-3.1597,0.0,-3.2307,-3.2815,-3.3008,-3.2683,-3.2851,-3.2611,-3.1777,-3.1127,-3.0585,-3.011,-2.9581,-2.9051,-2.8522,-2.851,-2.851,-2.851,-2.851,-2.851,-2.851,-2.851,-2.851,-2.851,-2.851,-2.851,-2.851,-2.851,-2.8351,-2.8139,-2.7962,-2.7708,-2.7441,-2.726,-2.719,-2.719,-2.719,-2.719,-2.719,-4.4557,-4.4692,-4.4665,-4.4665,-4.4665,-4.4852,-4.5381,-4.5485,-4.5885,-4.6987,-4.8163,-4.8873,-4.8764,-4.8061,-4.8098,-4.9441,-4.6939,-4.5634,-4.6391,-4.4107,-4.2737,-4.2842,-4.1077,-4.0417,-4.1068,-4.0434,-4.0096,-4.0096,-4.0096,-4.0096,-4.0113,-3.9986,-3.991,-3.9926,-3.9807,-3.9807,-3.991,-3.991,-3.9986,-4.0113,-4.0197,-4.0231,-4.0299,-4.095,-4.0781,-4.0214,-4.013,-4.007,-4.0062,-3.9952,-3.9875,-3.9824,-3.9563,-3.9501,-3.9448,-3.9228,-3.9175,-3.8996,-3.821,-3.7908,-3.7661,-3.6858,-3.6507,-3.6368,-3.6368,0.0,-3.5237,-3.5124,0.0,-3.3143,0.0,0.0,0.0,0.0,0.0,0.0,-3.2406,-3.2658,-3.2587,-3.1889,-3.225,-3.2755,-3.3164,-3.2382,-3.1837,-3.1717,-3.0735,-3.0146,-3.0086,-2.9581,-2.9051,-2.8522,-2.851,-2.851,-2.851,-2.851,-2.851,-2.851,-2.851,-2.851,-2.851,-2.851,-2.851,-2.851,-2.851,-2.8271,-2.7921,-2.7933,-2.7638,-2.7231,-2.7231,-2.719,-2.719,-2.719,-2.719,-2.719,-4.4547,-4.4615,-4.4615,-4.4615,-4.4615,-4.4759,-4.5241,-4.6317,-4.7097,-4.7082,-4.8241,-4.9062,-4.9062,-4.8684,-4.8677,-4.9347,-4.8586,-4.769,-4.6758,-4.5753,-4.4693,-4.355,-4.2043,-4.1204,-4.1204,-4.0485,-4.0096,-4.0096,-4.0011,-3.9986,-3.9986,-3.9833,-3.9781,-3.9798,-4.0156,-4.0383,-4.0436,-4.0505,-4.0566,-4.061,-4.0231,-4.0096,0.0,-4.0426,-4.0383,-4.0096,-4.0096,-4.0096,-4.007,0.0,-3.9961,0.0,0.0,0.0,0.0,-3.9475,0.0,0.0,-3.8914,-3.8507,-3.8108,-3.7661,-3.7219,-3.6859,-3.6752,-3.6446,-3.6088,-3.5595,0.0,0.0,0.0,0.0,0.0,0.0,-3.3466,0.0,0.0,0.0,-3.2853,-3.1772,0.0,0.0,-3.2376,-3.1693,-3.138,-3.1681,-3.1007,-3.041,-3.011,-2.9881,-2.9376,-2.8534,-2.851,-2.851,-2.851,-2.851,-2.851,-2.851,-2.851,-2.851,-2.851,-2.851,-2.851,-2.851,-2.851,-2.8271,-2.7893,-2.7893,-2.7598,-2.719,-2.719,-2.719,-2.719,-2.719,-2.719,-2.719,-4.4564,0.0,-4.4615,-4.4615,-4.4615,-4.4788,-4.5336,-4.6638,-4.7482,-4.7334,-4.8292,-4.9057,-4.9245,-4.9297,-4.9397,-4.9613,-4.9933,-4.9438,-4.7916,-4.7294,-4.6321,-4.4823,-4.3173,-4.2045,-4.1491,-4.0738,-4.0265,-4.0062,-3.991,-3.9849,-3.9849,-3.972,-3.9668,-3.9659,-4.0167,-4.0518,-4.0745,-4.0869,-4.0922,-4.0925,-4.0457,-4.0155,-4.0011,-4.007,-4.0096,-4.0096,-4.0096,-4.0096,-4.0096,-4.0096,-4.0037,0.0,-3.9901,-3.9833,-3.9729,0.0,0.0,0.0,-3.9379,0.0,-3.859,-3.8451,-3.801,-3.7589,-3.744,-3.7233,-3.6904,-3.6322,-3.5867,0.0,0.0,0.0,0.0,0.0,0.0,-3.3977,0.0,-3.3514,0.0,0.0,0.0,0.0,0.0,-3.0992,-3.0797,-3.144,-3.0862,-3.0338,-3.0098,-2.9953,-2.946,-2.8546,-2.851,-2.851,-2.851,-2.851,-2.851,-2.851,-2.851,-2.851,-2.851,-2.851,-2.851,-2.851,-2.851,-2.8271,-2.7893,-2.7962,-2.7679,-2.7231,-2.726,-2.726,-2.719,-2.719,-2.719,-2.719,-4.4462,-4.4615,-4.4615,-4.4615,-4.4615,-4.4852,-4.5579,-4.5521,-4.5933,-4.7407,-4.8076,-4.8679,-4.9407,-5.0011,-5.0655,-5.1465,-5.0649,-5.0401,-5.1086,-4.8538,-4.705,-4.7184,-4.4553,-4.28,-4.2279,-4.1394,-4.0634,-3.9901,-3.9781,-3.9703,-3.9703,-3.9563,-3.9501,-3.9501,-3.9412,-3.9827,-4.0617,-4.06,-4.0681,-4.0782,-4.0792,-4.034,-3.9755,0.0,-4.0096,-4.0096,-4.0096,0.0,0.0,-4.0096,-4.0113,0.0,0.0,0.0,0.0,0.0,0.0,0.0,0.0,0.0,0.0,-3.9299,-3.9094,-3.8942,-3.8942,-3.8339,-3.7748,-3.7719,-3.66,-3.5595,0.0,0.0,0.0,0.0,0.0,0.0,0.0,0.0,0.0,0.0,0.0,0.0,0.0,-3.0424,-3.001,0.0,-2.9941,-2.9569,-3.0062,-2.9605,-2.9076,-2.8522,-2.851,-2.851,-2.851,-2.851,-2.851,-2.851,-2.851,-2.851,-2.851,-2.851,-2.851,-2.851,-2.851,-2.8271,-2.7921,-2.8111,-2.7777,-2.7231,-2.7412,-2.7371,-2.719,-2.719,-2.719,-2.719,0.0,0.0,-4.4615,-4.4615,-4.4615,-4.4682,-4.4925,-4.5314,-4.5948,-4.6924,-4.7548,-4.8355,-4.9621,-4.9783,-5.0281,-5.1479,-5.0908,-5.0549,-5.0695,-4.9412,-4.8293,-4.7532,-4.5615,-4.4344,-4.3836,-4.1977,-4.0886,-4.0634,-3.9929,-3.9563,-3.9563,0.0,0.0,0.0,-3.9839,-4.0204,-4.0497,-4.1078,0.0,0.0,0.0,-3.9921,-3.9703,0.0,-3.9884,-3.9961,-3.9961,-4.0037,0.0,-4.0096,-4.0037,-3.9977,-4.0011,-3.9961,-3.9901,-3.9849,-3.9833,-3.9781,0.0,0.0,-3.9501,-3.9432,-3.9325,-3.9218,-3.9218,-3.8996,-3.8634,-3.8124,-3.7249,-3.6446,-3.5897,0.0,0.0,0.0,0.0,0.0,0.0,0.0,0.0,0.0,0.0,0.0,0.0,0.0,0.0,-3.0555,-2.9784,0.0,-2.9556,-2.94,-2.9051,-2.8522,-2.851,-2.851,-2.851,-2.851,-2.851,-2.851,-2.851,-2.851,-2.851,-2.851,-2.851,-2.851,-2.851,-2.8271,-2.7933,-2.7962,-2.7679,-2.7231,-2.726,-2.726,-2.719,-2.719,-2.719,-2.719,-4.4649,-4.4615,-4.4615,-4.4615,-4.4615,-4.4699,-4.4942,-4.5399,-4.6058,-4.7056,-4.7481,-4.8186,-4.9448,-4.9623,-5.0,-5.0929,-5.0822,-5.0647,-5.0508,-4.9872,-4.9071,-4.8062,-4.6793,-4.5637,-4.4615,-4.2968,-4.1732,-4.0942,-4.0181,-3.9698,0.0,0.0,0.0,0.0,-3.9812,-4.016,-4.0459,-4.1244,-4.1183,0.0,0.0,-3.9547,0.0,0.0,-3.9677,-3.9824,0.0,-3.9884,-3.9961,-3.9961,-3.991,-3.9833,-3.9935,-3.991,-3.9849,-3.9901,-3.9901,-3.9875,-3.9781,-3.972,0.0,-3.9528,-3.9448,0.0,-3.9299,-3.9299,-3.9148,-3.8634,-3.778,-3.6935,-3.643,0.0,0.0,0.0,0.0,0.0,0.0,-3.4414,0.0,0.0,0.0,0.0,0.0,0.0,-3.079,-3.0462,-2.9731,0.0,0.0,-2.9124,-2.8871,-2.8522,-2.851,-2.851,-2.851,-2.851,-2.851,-2.851,-2.851,-2.851,-2.851,-2.851,-2.851,-2.851,-2.851,-2.8311,-2.8002,-2.8002,-2.7748,-2.7301,-2.7301,-2.726,-2.719,-2.719,-2.719,-2.719,-4.475,-4.4632,-4.4682,-4.4699,-4.4649,-4.4869,-4.5602,-4.5703,-4.6227,-4.7682,-4.7872,-4.8189,-4.8934,-4.9496,-4.9861,-4.989,-5.0331,-5.0643,-5.067,-4.9923,-4.9269,-4.8838,-4.804,-4.6713,-4.4801,-4.4308,-4.3076,-4.095,-4.0596,0.0,0.0,0.0,0.0,0.0,-3.9299,0.0,-4.0442,-4.1127,-4.1028,-4.0393,-3.9613,-3.9299,-3.9299,-3.9299,-3.9458,-3.9677,-3.9677,-3.9703,-3.9703,-3.9703,-3.9703,-3.9677,-3.9703,-3.9703,-3.9703,-3.9833,-3.9901,-3.9901,-3.9901,-3.9901,-3.9849,-3.9563,-3.9511,0.0,0.0,0.0,-3.9299,0.0,-3.8169,-3.7145,0.0,0.0,0.0,0.0,0.0,0.0,0.0,0.0,0.0,0.0,0.0,0.0,0.0,-3.1759,-3.0968,-3.0559,-2.9731,0.0,0.0,-2.8787,-2.851,-2.851,-2.851,-2.851,-2.851,-2.851,-2.851,-2.851,-2.851,-2.851,-2.851,-2.851,-2.851,-2.851,-2.851,-2.8391,-2.8219,-2.8219,-2.7926,-2.7522,-2.7522,-2.7371,-2.719,-2.719,-2.719,-2.719,-4.4649,-4.5026,-4.5585,-4.6126,-4.5343,-4.4869,-4.5602,-4.5703,-4.6041,-4.6955,-4.7564,-4.8189,-4.8934,-4.9138,-4.9424,-4.9861,-4.9627,-4.9627,-5.0085,-4.9497,-4.9074,-4.894,-4.8243,-4.7518,-4.6844,-4.5022,-4.3772,-4.3106,-4.1288,0.0,-4.0111,0.0,0.0,0.0,0.0,-3.9713,-4.0442,-4.1127,-4.1309,-4.1044,-3.9812,-3.9299,-3.9299,0.0,-3.9352,-3.9432,-3.9511,-3.9616,-3.9703,-3.9703,-3.9625,-3.9563,-3.9677,-3.9642,-3.9563,-3.9703,-3.9807,-3.9901,-3.9901,-3.9901,-3.9875,-3.9824,-3.972,-3.9599,0.0,0.0,0.0,0.0,0.0,0.0,0.0,0.0,0.0,0.0,0.0,0.0,0.0,0.0,0.0,-3.4414,0.0,0.0,0.0,-3.2357,-3.1312,-3.1111,-2.9616,0.0,0.0,0.0,-2.851,-2.851,-2.851,-2.851,-2.851,-2.851,-2.851,-2.851,-2.851,-2.851,-2.851,-2.851,-2.851,-2.851,-2.851,-2.8391,-2.8219,-2.8219,-2.7926,-2.7522,-2.7522,-2.7371,-2.719,-2.719,-2.719,-2.719,-4.5647,-4.5831,-4.6279,-4.7022,-4.6389,-4.5913,-4.6131,-4.6177,-4.6329,-4.6735,-4.7445,-4.8041,-4.8477,-4.8815,-4.9138,-4.9483,-4.9199,-4.9138,-4.9466,-4.9138,-4.8925,-4.8925,-4.8428,-4.7948,-4.7519,-4.5842,-4.4619,-4.3898,-4.1841,0.0,-4.0393,0.0,0.0,0.0,0.0,-3.9531,-3.9945,-4.0315,-4.0663,-4.0862,-3.9763,-3.9299,0.0,-3.9299,-3.9299,-3.9299,-3.9395,-3.9458,-3.9537,-3.9537,-3.9484,-3.9432,-3.9494,-3.9484,-3.9432,-3.959,-3.9668,-3.9746,-3.9798,-3.9849,-3.9901,-3.9824,-3.9781,-3.9755,-3.9616,-3.9537,-3.9475,0.0,-3.8799,-3.8124,0.0,0.0,0.0,0.0,0.0,0.0,0.0,0.0,0.0,0.0,-3.4414,0.0,0.0,-3.3278,-3.2223,-3.1944,-3.034,0.0,0.0,0.0,-2.851,-2.851,-2.851,-2.851,-2.851,-2.851,-2.851,-2.851,-2.851,-2.851,-2.8498,-2.827,-2.8162,-2.8162,-2.8162,-2.8083,-2.7977,-2.8056,-2.7898,-2.7655,-2.7452,-2.7301,-2.719,-2.719,-2.719,-2.719,-4.7162,-4.6907,-4.7002,-4.7597,-4.7706,-4.7572,-4.7237,-4.7166,-4.7166,-4.7166,-4.771,-4.8115,-4.8115,-4.8619,-4.897,-4.897,-4.897,-4.897,-4.897,-4.8832,-4.8769,-4.8769,-4.8595,-4.8199,-4.7531,-4.6689,-4.5563,-4.4151,-4.2394,0.0,0.0,0.0,0.0,0.0,0.0,0.0,0.0,-3.9448,-3.9862,-4.0475,-3.9746,-3.9448,-3.9448,-3.9448,-3.9381,-3.9299,-3.9299,-3.9299,-3.9299,-3.9299,-3.9299,-3.9299,-3.9299,-3.9299,-3.9325,-3.9448,-3.9501,-3.9528,-3.9625,-3.9755,-3.9849,-3.9729,-3.9781,-3.9849,-3.9703,-3.959,-3.9501,-3.9475,-3.8925,-3.8238,-3.7546,0.0,0.0,0.0,0.0,0.0,0.0,0.0,0.0,0.0,0.0,0.0,0.0,0.0,0.0,0.0,0.0,0.0,0.0,0.0,-2.855,-2.851,-2.851,-2.851,-2.851,-2.851,-2.851,-2.851,-2.851,-2.8474,-2.839,-2.7894,-2.7642,-2.7582,-2.7582,-2.7582,-2.7618,-2.7763,-2.7822,-2.78,-2.7353,-2.719,-2.719,-2.719,-2.719,-2.719,-4.8391,-4.8413,-4.8385,-4.836,-4.8833,-4.9202,-4.91,-4.9117,-4.9117,-4.9117,-4.9217,-4.9317,-4.9317,-4.9024,-4.8849,-4.8849,-4.8849,-4.8849,-4.8849,-4.8658,-4.8547,-4.8547,-4.8515,-4.8353,-4.8076,-4.7376,-4.65,0.0,-4.3346,-4.1926,-4.121,0.0,0.0,0.0,0.0,0.0,-4.021,-4.021,0.0,-4.1177,-4.0464,-4.021,-4.021,-4.021,-3.9829,-3.9299,-3.9299,-3.9299,-3.9299,-3.9299,-3.9299,-3.9299,-3.9299,-3.9299,-3.9299,-3.9325,-3.9405,-3.9501,-3.9511,-3.9642,-3.9729,-3.9703,-3.9729,-3.9703,-3.9563,-3.9528,-3.9475,-3.9352,-3.9202,-3.8761,-3.7605,0.0,0.0,0.0,0.0,0.0,0.0,0.0,0.0,0.0,0.0,-3.4457,0.0,0.0,0.0,0.0,0.0,0.0,0.0,0.0,-2.8657,0.0,-2.851,-2.851,0.0,0.0,-2.851,-2.851,-2.851,-2.8282,-2.7861,-2.7726,-2.745,-2.7042,-2.7042,-2.7042,-2.7078,-2.7362,-2.7509,-2.7534,-2.7301,-2.719,-2.719,-2.719,-2.719,-2.719,-4.9878,-4.9466,-4.9154,-4.9424,-4.9709,-5.0059,-5.0426,-5.0791,-5.0709,-4.9724,-4.9255,-4.9036,-4.9036,-4.8813,-4.8627,-4.8627,-4.8627,-4.8627,-4.8627,-4.8468,-4.8356,-4.8356,-4.8276,-4.8212,-4.8115,-4.7417,-4.6638,-4.5798,-4.3976,-4.2489,-4.1392,-4.0332,0.0,0.0,0.0,-3.9497,0.0,0.0,0.0,-4.0878,-4.0912,-4.0696,-4.0409,-4.0409,-3.9945,-3.9299,-3.9299,-3.9299,-3.9299,-3.9299,-3.9299,-3.9299,-3.9299,-3.9299,-3.9299,-3.9299,-3.9352,-3.9395,-3.9395,-3.9484,-3.959,-3.959,-3.9651,-3.9677,-3.9616,-3.9237,-3.9035,-3.9339,-3.9027,-3.846,-3.7571,-3.6274,0.0,0.0,0.0,0.0,0.0,0.0,-3.4414,0.0,0.0,0.0,0.0,0.0,0.0,0.0,0.0,-3.0707,-3.0619,0.0,-2.8618,0.0,0.0,0.0,-2.851,0.0,-2.851,-2.851,-2.851,-2.8234,-2.7678,-2.7402,-2.7138,-2.6873,-2.6597,-2.6633,-2.6934,-2.7153,-2.728,-2.733,-2.7219,-2.719,-2.719,-2.719,-2.719,-2.719,-5.1111,-5.0376,-4.9909,-5.0275,-5.0422,-5.0634,-5.1216,-5.1945,-5.1866,-5.041,-4.9424,-4.8873,-4.8873,-4.8588,-4.8452,-4.8452,-4.8452,-4.8452,-4.8452,-4.826,-4.8179,-4.8179,-4.8066,-4.8001,-4.8001,-4.7438,-4.6692,0.0,0.0,-4.3015,-4.1409,-4.0696,0.0,0.0,0.0,0.0,0.0,0.0,-4.0696,-4.0878,-4.1425,-4.1226,-4.0597,-4.0597,-4.0078,-3.9272,-3.9148,-3.9094,-3.9077,-3.8942,-3.9067,-3.9272,-3.9121,-3.9094,-3.905,-3.8942,-3.8914,-3.8914,-3.8914,-3.8969,-3.905,-3.905,-3.9115,-3.9206,-3.9206,-3.8659,-3.8275,-3.8731,-3.8171,-3.7512,-3.7243,-3.6227,0.0,0.0,0.0,0.0,0.0,0.0,0.0,0.0,0.0,0.0,-3.4428,0.0,0.0,0.0,0.0,-3.1291,-3.1278,-2.9549,-2.855,0.0,0.0,-2.851,-2.851,0.0,-2.851,-2.851,-2.851,-2.8234,-2.7705,-2.7246,-2.7006,-2.6861,-2.6334,-2.6381,-2.6783,-2.701,-2.7144,-2.719,-2.719,-2.719,-2.719,-2.719,-2.719,-2.719,-5.1493,-5.1358,-5.1073,-5.0337,-5.075,-5.1232,-5.1299,-5.1945,-5.2343,-5.2163,-5.0901,-5.0039,-5.0039,-4.8961,-4.8227,-4.8227,-4.8227,-4.8227,-4.8227,-4.8082,-4.8033,-4.8033,-4.8001,-4.8001,-4.8001,-4.7934,-4.7206,0.0,0.0,-4.3495,0.0,-4.0696,0.0,0.0,0.0,0.0,0.0,-4.1028,-4.1707,-4.2319,-4.2357,-4.1972,-4.1309,-4.1309,-4.0464,-3.9202,-3.8618,-3.8407,-3.8322,-3.778,-3.8355,-3.9175,-3.859,-3.8407,-3.8294,-3.7751,-3.7576,-3.7576,-3.7576,-3.7605,-3.7605,-3.7605,-3.7605,-3.7634,-3.7634,-3.7464,-3.7176,-3.6793,-3.6126,-3.5825,-3.6384,-3.5799,-3.5148,0.0,0.0,0.0,0.0,0.0,-3.4414,-3.4414,0.0,0.0,0.0,-3.5444,0.0,0.0,-3.298,-3.1673,-3.1499,-2.9768,-2.8685,-2.851,-2.851,-2.851,-2.851,-2.851,-2.851,-2.851,-2.851,-2.8234,-2.7678,-2.7669,-2.7342,-2.6861,-2.6334,-2.6184,-2.6379,-2.6894,-2.7144,-2.719,-2.719,-2.719,-2.719,-2.719,-2.719,-2.719,-5.2191,-5.1737,-5.1418,-5.1514,-5.138,-5.1464,-5.1912,-5.2227,-5.2409,-5.2409,-5.1479,-5.085,-5.085,-4.9592,-4.8746,-4.8746,-4.8348,-4.8082,-4.8082,-4.8033,-4.8001,-4.8001,-4.8001,-4.8001,-4.8001,-4.8001,-4.7487,0.0,0.0,0.0,0.0,0.0,0.0,0.0,0.0,-4.0994,-4.1044,-4.1773,-4.2224,-4.2522,-4.2969,-4.2482,-4.1406,-4.0994,-3.9979,-3.8679,-3.7998,-3.7764,-3.7706,-3.7472,-3.7751,-3.8112,-3.7822,-3.7764,-3.7706,-3.7488,-3.7399,-3.7399,-3.7399,-3.7399,-3.7399,-3.7399,-3.7399,-3.7399,-3.7399,-3.6702,-3.6131,-3.6362,-3.5874,-3.5491,-3.5737,-3.548,-3.5115,-3.4935,0.0,0.0,0.0,0.0,0.0,-3.4414,0.0,-3.469,0.0,0.0,0.0,0.0,0.0,-3.257,-3.1896,-3.022,-2.9064,-2.8522,0.0,-2.851,-2.851,-2.851,-2.851,-2.851,-2.851,-2.8234,-2.7678,-2.7678,-2.739,-2.691,-2.7031,-2.6971,-2.6811,-2.7023,-2.7144,-2.719,-2.719,-2.719,-2.719,-2.719,-2.719,-2.719,-5.2535,-5.2049,-5.1796,-5.2326,-5.1978,-5.1812,-5.2343,-5.2409,-5.2409,-5.2409,-5.1962,-5.1547,-5.1332,-4.9972,-4.911,-4.911,-4.8431,-4.8001,-4.8001,-4.8001,-4.8001,-4.8001,-4.8001,0.0,-4.8001,-4.8001,-4.7636,-4.6891,-4.6378,0.0,0.0,0.0,0.0,0.0,-4.164,-4.1711,-4.1761,-4.2506,-4.2716,-4.2571,-4.3098,-4.2441,-4.1128,-4.0661,-3.9618,-3.832,-3.7648,-3.7274,-3.7071,-3.6906,-3.6845,-3.6875,-3.7041,-3.7101,-3.7071,-3.6906,-3.6845,-3.6845,-3.6845,-3.6845,-3.6845,-3.6845,-3.6845,-3.6845,-3.6845,-3.6044,-3.5378,-3.5718,-3.5129,-3.4652,-3.5049,-3.499,-3.486,-3.4905,0.0,0.0,0.0,-3.4414,0.0,-3.4414,-3.4574,-3.4617,-3.4428,-3.4967,0.0,0.0,0.0,0.0,-3.1978,-3.0229,0.0,0.0,0.0,0.0,-2.851,-2.851,-2.851,-2.851,-2.851,-2.8318,-2.7957,-2.7957,-2.763,-2.7162,-2.7678,-2.7639,-2.7089,-2.7281,-2.7272,-2.719,-2.719,-2.719,-2.719,-2.719,-2.719,-2.719,-5.2409,-5.2409,-5.2409,-5.2409,-5.2373,-5.2409,-5.2409,-5.2409,-5.2409,-5.2409,-5.2373,-5.2127,-5.1398,-4.9972,-4.911,-4.911,-4.8431,-4.8001,-4.8001,-4.8001,-4.8001,0.0,0.0,-4.8001,-4.8001,-4.8001,-4.7636,-4.6891,0.0,0.0,-4.3565,0.0,-4.1397,-4.1413,-4.2142,-4.2473,-4.2522,-4.3267,-4.3188,-4.26,-4.2617,-4.1725,-4.0402,-4.0387,-3.9566,-3.8322,-3.7653,-3.6968,-3.6305,-3.5701,-3.5537,-3.5619,-3.6227,-3.6399,-3.6274,-3.5701,-3.5537,-3.5537,-3.5537,-3.5537,-3.5537,-3.5537,-3.5537,-3.5537,-3.5537,-3.5411,-3.5109,-3.4477,-3.3379,-3.2931,-3.4264,-3.4233,-3.423,-3.4784,0.0,0.0,0.0,-3.4414,0.0,-3.4414,-3.4965,-3.5145,-3.4472,-3.4897,0.0,0.0,0.0,0.0,0.0,0.0,0.0,-2.851,-2.851,0.0,-2.851,-2.851,-2.851,-2.851,-2.851,-2.851,-2.8498,-2.8498,-2.821,-2.7702,-2.827,-2.7973,-2.7152,-2.7669,-2.7638,-2.719,-2.719,-2.719,-2.719,-2.719,-2.719,-2.719,-5.2409,-5.2409,-5.2409,-5.2409,-5.2409,-5.2409,-5.2409,-5.2409,-5.2409,-5.2409,-5.2409,-5.2326,-5.2094,-5.1199,-5.0386,0.0,-4.9193,-4.8547,0.0,-4.8001,-4.8001,-4.8001,-4.8001,-4.8001,-4.8001,-4.8001,-4.7885,-4.7653,0.0,0.0,0.0,-4.386,-4.338,-4.2903,-4.3135,-4.298,-4.257,-4.2814,-4.2506,-4.1852,-4.169,-4.107,-4.0229,-3.9769,-3.9002,-3.8039,-3.698,-3.643,-3.6142,-3.5362,-3.5082,-3.5133,-3.5314,-3.5589,-3.5733,-3.5569,-3.5504,-3.5504,-3.5504,-3.5504,-3.5504,-3.5504,-3.5504,-3.5504,-3.5504,-3.511,-3.4574,-3.3895,-3.3695,-3.3807,-3.4224,-3.4395,-3.4549,-3.4721,-3.4549,0.0,-3.4414,0.0,-3.4414,-3.4414,-3.4588,-3.4632,-3.4428,-3.4342,0.0,0.0,0.0,0.0,0.0,0.0,0.0,0.0,-2.851,0.0,-2.851,-2.851,-2.851,-2.851,-2.851,-2.851,-2.851,-2.851,-2.8414,-2.827,-2.8438,-2.8255,-2.7873,-2.7903,-2.7708,-2.7412,-2.726,-2.719,-2.719,-2.719,-2.719,-2.719,-5.2338,-5.2409,-5.2409,-5.2409,-5.2409,-5.2409,-5.2409,-5.2409,-5.2409,-5.2409,-5.2409,-5.2409,-5.2409,-5.2011,0.0,-5.0303,-4.9541,-4.8796,-4.805,-4.8001,-4.7853,-4.7555,-4.7853,-4.7853,-4.7555,-4.7853,0.0,-4.8001,-4.7255,-4.6278,-4.5102,-4.4558,-4.3924,-4.3204,-4.2927,-4.2569,-4.219,-4.211,-4.1641,-4.0992,-4.0792,-4.0293,-3.9626,-3.9189,-3.8622,-3.7863,-3.7099,-3.6655,-3.6339,-3.579,-3.5461,-3.5288,-3.5288,-3.5274,-3.5261,-3.5261,-3.5261,-3.5261,-3.5261,-3.5261,-3.5261,-3.5261,-3.5261,-3.5261,-3.5261,-3.4822,-3.4258,-3.3792,-3.3728,-3.3826,-3.4063,-3.4236,-3.4405,-3.4654,-3.4515,-3.4414,-3.4414,0.0,-3.4414,0.0,0.0,0.0,0.0,-3.3437,-3.2796,0.0,0.0,0.0,0.0,0.0,-2.8996,-2.8522,-2.851,-2.851,-2.851,-2.851,-2.851,-2.851,-2.851,-2.851,-2.851,-2.851,-2.851,-2.851,-2.851,-2.8391,-2.8179,-2.807,-2.7817,-2.7482,-2.7371,-2.726,-2.719,-2.719,-2.719,-2.719,-5.2142,-5.2338,-5.2373,-5.2338,-5.2338,-5.2373,-5.225,-5.2266,-5.2302,-5.2302,-5.2302,-5.2338,-5.2373,-5.2409,-5.181,-5.0419,0.0,0.0,-4.8051,-4.7886,-4.7488,-4.6759,-4.7454,-4.7488,-4.6742,-4.7454,-4.7869,-4.7935,-4.7176,-4.6449,-4.5737,-4.4414,-4.3331,-4.2556,-4.1866,-4.1507,-4.1393,-4.1229,-4.074,-4.0076,-3.9869,-3.937,-3.8797,-3.8797,-3.8377,-3.7847,-3.7803,-3.7405,-3.6855,-3.681,-3.6384,-3.5932,-3.5932,-3.5491,-3.4927,-3.4916,-3.4902,-3.4902,-3.4902,-3.4902,-3.4902,-3.4902,-3.4902,-3.4902,-3.4902,-3.4546,-3.4214,-3.41,-3.3564,-3.3296,-3.3932,-3.3859,-3.3933,-3.4562,-3.4515,-3.4414,-3.4414,-3.4332,-3.4312,0.0,0.0,0.0,-3.3192,-3.2254,-3.1318,0.0,0.0,0.0,0.0,0.0,-2.851,-2.851,-2.851,-2.851,-2.851,-2.851,-2.851,-2.851,-2.851,-2.851,-2.851,-2.851,-2.851,-2.851,-2.851,-2.8379,-2.8219,-2.8219,-2.7926,-2.7522,-2.7522,-2.7371,-2.719,-2.719,-2.719,-2.719,-5.1359,-5.1944,-5.2178,-5.1508,-5.1944,-5.1928,-5.0615,-5.0973,-5.1397,-5.1397,-5.1397,-5.1672,-5.2338,-5.2409,-5.2045,-5.1098,-4.9801,-4.8733,-4.7981,-4.6856,-4.6163,-4.5985,-4.6127,-4.6163,-4.5985,-4.6163,-4.6515,-4.7067,-4.6354,-4.5888,-4.57,-4.4815,-4.3706,-4.2516,-4.2349,-4.1612,-4.0497,-4.0462,-3.994,-3.9111,-3.8892,-3.8723,-3.859,-3.859,-3.845,-3.826,-3.7798,-3.7535,-3.7329,-3.6639,-3.6306,-3.6225,-3.6225,-3.5787,-3.5244,-3.4982,-3.4902,-3.4902,-3.4902,-3.4902,-3.4902,-3.4902,-3.4902,-3.4902,-3.4902,-3.4802,-3.4732,-3.4699,-3.4464,-3.4354,-3.4501,-3.4349,-3.4307,-3.4467,-3.4414,-3.4414,-3.4414,-3.3894,-3.3485,0.0,-3.2981,-3.2519,-3.2146,-3.1244,-3.0494,0.0,0.0,-2.855,-2.851,-2.851,-2.851,-2.851,-2.851,-2.851,-2.851,-2.851,-2.851,-2.851,-2.851,-2.851,-2.851,-2.851,-2.851,-2.851,-2.851,-2.8471,-2.8431,-2.8259,-2.8018,-2.7788,-2.7563,-2.7371,-2.719,-2.719,-2.719,-2.719,-5.0499,-5.0897,-5.1048,-5.0576,-5.0897,-5.0897,-4.9923,-5.0213,-5.0499,-5.0499,-5.0859,-5.1268,-5.1745,-5.2142,-5.226,-5.1846,-5.0085,-4.8677,-4.7945,-4.651,-4.5551,-4.5184,-4.5515,-4.5515,-4.5147,-4.5515,-4.5913,-4.6288,-4.5773,-4.5373,-4.5043,-4.423,-4.3066,-4.1713,-4.1412,-4.0634,-3.9529,-3.9472,-3.9111,-3.8649,-3.8427,-3.8366,-3.8366,-3.8366,-3.8366,-3.8308,-3.801,-3.7879,-3.7798,-3.7324,-3.6997,-3.6765,-3.6765,-3.6112,-3.5354,-3.5176,-3.4902,-3.4668,-3.4668,-3.4668,-3.4668,-3.4668,-3.475,-3.4769,-3.4702,-3.4735,-3.4769,-3.4668,-3.4616,-3.4563,-3.4563,-3.4481,-3.4414,-3.4414,-3.4414,-3.4264,-3.3894,-3.3485,-3.3038,-3.2613,-3.2218,-3.1759,-3.1169,-3.0532,-2.9961,-2.951,-2.8882,0.0,-2.851,-2.851,-2.851,-2.851,-2.851,-2.851,-2.851,-2.851,-2.851,-2.851,-2.851,-2.851,-2.851,-2.851,-2.851,-2.851,-2.851,-2.851,-2.8471,-2.8379,-2.8231,-2.799,-2.7788,-2.7534,-2.733,-2.7231,-2.719,-2.719,-4.9623,-4.9742,-4.9765,-4.9662,-4.9726,-4.9726,-4.9447,-4.9527,-4.9623,-4.9623,-5.0267,-5.0761,-5.0876,-5.1582,-5.2017,-5.2017,-5.0018,-4.8534,-4.7949,-4.638,-4.5145,-4.4335,-4.4962,-4.5036,-4.432,-4.4999,-4.5405,-4.5515,-4.5138,-4.473,-4.4258,-4.3296,-4.213,-4.0788,-4.0218,-3.9519,-3.876,-3.859,-3.8478,-3.8441,-3.8277,-3.8202,-3.8202,-3.8202,-3.8202,-3.8202,-3.8202,-3.8202,-3.8202,-3.8202,-3.7868,-3.7447,-3.7447,-3.662,-3.5668,-3.5566,-3.5053,-3.453,-3.4443,-3.4414,-3.4414,-3.4414,-3.4515,-3.4597,-3.4448,-3.4515,-3.4597,-3.4448,-3.4414,-3.4414,-3.4414,-3.4414,-3.4414,-3.4414,-3.4298,-3.3962,-3.3262,0.0,-3.2492,-3.1673,-3.1466,-3.1057,-3.0165,-2.9922,-2.9498,-2.8803,-2.8618,-2.851,-2.851,-2.851,-2.851,-2.851,-2.851,-2.851,-2.851,-2.851,-2.851,-2.851,-2.851,-2.851,-2.851,-2.851,-2.851,-2.851,-2.851,-2.851,-2.851,-2.851,-2.8351,-2.8139,-2.7962,-2.7708,-2.7441,-2.726,-2.719,-2.719,-4.8805,-4.9343,-4.9583,-4.8913,-4.9343,-4.9343,-4.7892,-4.8324,-4.8805,-4.8805,-4.8887,-4.9237,-4.9939,-5.0135,-5.0213,-5.0213,-4.8741,-4.7833,-4.7903,-4.578,-4.4218,-4.3503,-4.3591,-4.363,-4.3472,-4.3591,-4.4004,-4.4699,-4.378,-4.3657,-4.4205,-4.3189,-4.2031,-4.0787,-4.0687,-3.9871,-3.8553,-3.8516,-3.8404,-3.824,-3.8202,-3.8202,-3.8202,-3.8202,-3.8202,-3.8202,-3.8202,-3.8202,-3.8202,-3.8202,-3.8144,-3.8072,-3.8072,-3.7578,-3.6896,-3.633,-3.572,-3.5131,-3.4559,-3.4414,-3.4414,-3.4414,-3.4414,-3.4448,-3.4414,-3.4414,-3.4448,-3.4414,-3.4414,-3.4414,-3.4414,-3.4414,-3.4414,-3.4414,-3.3811,-3.3297,-3.3003,0.0,-3.0895,-3.0582,-2.9947,-2.938,-2.9067,-2.8988,-2.887,-2.8578,-2.851,-2.851,-2.851,-2.851,-2.851,-2.851,-2.851,-2.851,-2.851,-2.851,-2.851,-2.851,-2.851,-2.851,-2.851,-2.851,-2.851,-2.851,-2.851,-2.851,-2.851,-2.851,-2.8271,-2.7921,-2.7933,-2.7638,-2.7219,-2.7231,-2.719,-2.719,-4.7976,-4.8214,-4.8324,-4.7976,-4.8214,-4.8198,-4.7424,-4.7624,-4.7892,-4.7892,-4.8282,-4.8723,-4.9101,-4.9543,-4.9805,-4.9805,-4.878,-4.8007,-4.7746,-4.5571,-4.4018,-4.3319,-4.329,-4.329,-4.329,-4.329,-4.3433,-4.3678,-4.3101,-4.2955,-4.3235,-4.2622,-4.169,-4.0446,-4.0812,-4.0178,-3.8868,-3.8868,-3.8815,-3.871,-3.8347,-3.8202,-3.8202,-3.8202,-3.8202,-3.8202,-3.8202,-3.8202,-3.8202,-3.8202,-3.8202,-3.8202,-3.8202,-3.7796,-3.7244,-3.6939,-3.5894,-3.4791,-3.4486,-3.4414,-3.4414,-3.4414,-3.4414,-3.4414,-3.4414,-3.4414,-3.4414,-3.4414,-3.4414,-3.4414,-3.4414,-3.4045,-3.3742,-3.3742,-3.3122,-3.2398,-3.1733,-3.1044,-3.0304,-2.96,-2.9145,-2.8843,-2.8657,-2.8657,-2.8618,-2.851,-2.851,-2.851,-2.851,-2.851,-2.851,-2.851,-2.851,-2.851,-2.851,-2.851,-2.851,-2.851,-2.851,-2.851,-2.851,-2.851,-2.851,-2.851,-2.851,-2.851,-2.851,-2.851,-2.8391,-2.8203,-2.8111,-2.7869,-2.7557,-2.7412,-2.7301,-2.719,-4.7424,-4.7309,-4.7309,-4.7309,-4.7309,-4.7309,-4.7309,-4.7309,-4.7309,-4.7309,-4.7892,-4.8297,-4.8297,-4.8831,-4.9222,-4.9222,-4.8641,-4.8007,-4.7334,-4.554,-4.4242,-4.3544,-4.3379,-4.329,-4.329,-4.325,-4.3155,-4.2981,-4.2769,-4.2541,-4.2392,-4.2201,-4.1468,-4.035,-4.0858,-4.0466,-3.9407,-3.9407,-3.9407,-3.9363,-3.8855,-3.8638,-3.8623,-3.8492,-3.8434,-3.8405,-3.826,-3.8202,-3.8202,-3.8202,-3.8202,-3.8202,-3.8202,-3.7883,-3.7491,-3.7346,-3.604,-3.4603,-3.4443,-3.4414,-3.4414,-3.4414,-3.4414,-3.4414,-3.4414,-3.4414,-3.4414,-3.4414,-3.4414,-3.4414,-3.4414,-3.3742,-3.3178,-3.3178,0.0,-3.1452,-3.0645,-3.0342,-2.9819,-2.8843,-2.8724,-2.8657,-2.851,-2.851,-2.851,-2.851,-2.851,-2.851,-2.851,-2.851,-2.851,-2.851,-2.851,-2.851,-2.851,-2.851,-2.851,-2.851,-2.851,-2.851,-2.851,-2.851,-2.851,-2.851,-2.851,-2.851,-2.851,-2.851,-2.8471,-2.8431,-2.8259,-2.8018,-2.7788,-2.7563,-2.7371,-2.719,-4.7294,-4.7309,-4.7309,-4.7309,-4.7309,-4.7309,-4.7309,-4.7309,-4.7309,-4.7309,-4.7337,-4.7381,-4.7381,-4.7467,-4.7495,-4.7495,-4.7424,-4.7096,-4.6436,-4.5675,-4.493,-4.4272,-4.3618,-4.329,-4.329,-4.3115,-4.3036,-4.2981,-4.2622,-4.2392,-4.2392,-4.2201,-4.1715,-4.1033,-4.1076,-4.0699,-4.0031,-4.0031,-4.0031,-4.0031,-3.9973,-3.9958,-3.99,-3.9334,-3.9131,-3.9044,-3.842,-3.8202,-3.8202,-3.8202,-3.8202,-3.8202,-3.8202,-3.8173,-3.8028,-3.7476,-3.6344,-3.5203,-3.4574,-3.4414,-3.4414,-3.4414,-3.4414,-3.4414,-3.4414,-3.4414,-3.4414,-3.4414,-3.4414,-3.4414,-3.4414,-3.3742,-3.3178,-3.3178,0.0,0.0,-3.0355,-2.9523,-2.8843,-2.855,-2.851,-2.851,-2.851,-2.851,-2.851,-2.851,-2.851,-2.851,-2.851,-2.851,-2.851,-2.851,-2.851,-2.851,-2.851,-2.851,-2.851,-2.851,-2.851,-2.851,-2.851,-2.851,-2.851,-2.851,-2.851,-2.851,-2.851,-2.851,-2.8379,-2.8219,-2.8219,-2.7926,-2.7522,-2.7522,-2.7371,-2.719,-4.7309,-4.7309,-4.7309,-4.7309,-4.7309,-4.7309,-4.7309,-4.7309,-4.7309,-4.7309,-4.7309,-4.7309,-4.7309,-4.7309,-4.7309,-4.7309,-4.7309,-4.7189,-4.695,-4.5903,-4.4825,-4.3708,-4.3344,-4.3115,-4.3115,-4.2915,-4.2769,-4.2622,-4.2459,-4.2325,-4.2201,-4.2133,-4.1744,-4.112,-4.1526,-4.1337,-4.0713,-4.0713,-4.0713,-4.0684,-4.0263,-4.0104,-4.0075,-3.9842,-3.9755,-3.9683,-3.9044,-3.8826,-3.8754,-3.8347,-3.8202,-3.8202,-3.8202,-3.8202,-3.8086,-3.7491,-3.6664,-3.5807,-3.5203,-3.4719,-3.4414,-3.4414,-3.4414,-3.4414,-3.4414,-3.4414,-3.4264,-3.3742,-3.4045,-3.4128,-3.3136,-3.2627,-3.2182,-3.1659,0.0,-2.96,-2.9406,-2.9028,-2.8724,-2.851,-2.851,-2.851,-2.851,-2.851,-2.851,-2.851,-2.851,-2.851,-2.851,-2.851,-2.851,-2.851,-2.851,-2.851,-2.851,-2.851,-2.851,-2.851,-2.851,-2.851,-2.851,-2.851,-2.851,-2.851,-2.851,-2.851,-2.851,-2.851,-2.8471,-2.8391,-2.8391,-2.8099,-2.7748,-2.7748,-2.7516,-2.719,-4.7309,-4.7309,-4.7309,-4.7309,-4.7309,-4.7309,-4.7309,-4.7309,-4.7309,-4.7309,-4.7309,-4.7309,-4.7309,-4.7309,-4.7309,-4.7309,-4.7309,-4.7309,-4.7309,-4.6037,-4.4665,-4.327,-4.2996,-4.2915,-4.2915,-4.2688,-4.2541,-4.2392,-4.2366,-4.2242,-4.2092,-4.2092,-4.1845,-4.1424,-4.1889,-4.1845,-4.141,-4.141,-4.141,-4.1366,-4.0902,-4.0728,-4.0699,-4.0481,-4.0408,-4.0307,-3.9494,-3.9204,-3.9102,-3.8434,-3.8202,-3.8202,-3.8202,-3.8202,-3.8086,-3.7491,-3.6983,-3.6446,-3.5625,-3.5072,-3.4661,-3.4457,-3.4414,-3.4332,-3.4079,-3.4011,-3.3811,-3.3017,-3.3311,-3.3346,-3.2304,-3.1709,-3.123,-3.0683,-2.9716,-2.8961,-2.8843,-2.8764,-2.8657,-2.851,-2.851,-2.851,-2.851,-2.851,-2.851,-2.851,-2.851,-2.851,-2.851,-2.851,-2.851,-2.851,-2.851,-2.851,-2.851,-2.851,-2.851,-2.851,-2.851,-2.851,-2.851,-2.851,-2.851,-2.851,-2.851,-2.851,-2.851,-2.851,-2.851,-2.851,-2.851,-2.8231,-2.7893,-2.7893,-2.7598,-2.719,-4.7309,-4.7309,-4.7309,-4.7309,-4.7309,-4.7309,-4.7309,-4.7309,-4.7309,-4.7309,-4.7309,-4.7309,-4.7309,-4.7309,-4.7309,-4.7309,-4.7309,-4.7309,-4.7294,-4.6037,-4.4624,-4.304,-4.2809,-4.2688,-4.2688,-4.2514,-4.2392,-4.2392,-4.2216,-4.2092,-4.2092,-4.2092,-4.2092,-4.2092,-4.2092,-4.2092,-4.2092,-4.2092,-4.2092,-4.2092,-4.2092,-4.2092,-4.202,-4.1366,-4.1105,-4.0945,-3.9668,-3.9218,-3.9102,-3.8434,-3.8202,-3.8202,-3.8202,-3.8202,-3.8086,-3.7491,-3.7302,-3.7027,-3.577,-3.5407,-3.5247,-3.4574,-3.4414,-3.4182,-3.3367,-3.3178,-3.3003,-3.2218,-3.2074,-3.2074,-3.2074,-3.1267,-3.0607,-3.0607,-2.9588,-2.8791,-2.8791,-2.8618,-2.851,-2.851,-2.851,-2.851,-2.851,-2.851,-2.851,-2.851,-2.851,-2.851,-2.851,-2.851,-2.851,-2.851,-2.851,-2.851,-2.851,-2.851,-2.851,-2.851,-2.851,-2.851,-2.851,-2.851,-2.851,-2.851,-2.851,-2.851,-2.851,-2.851,-2.851,-2.851,-2.851,-2.8283,-2.7893,-2.7893,-2.7598,-2.719,-4.7309,-4.7309,-4.7309,-4.7309,-4.7309,-4.7309,-4.7309,-4.7309,-4.7309,-4.7309,-4.7309,-4.7309,-4.7309,-4.7309,-4.7309,-4.7309,-4.7309,-4.6905,-4.5963,-4.525,-4.4226,-4.2868,-4.2729,-4.2607,-4.2514,-4.2284,-4.2216,-4.2216,-4.2133,-4.2092,-4.2092,-4.2092,-4.2092,-4.2092,-4.2092,-4.2092,-4.2092,-4.2092,-4.2092,-4.2092,-4.2092,-4.2092,-4.2078,-4.1874,-4.1802,-4.1686,-4.0844,-4.0234,-3.9741,-3.9117,-3.8594,-3.8202,-3.8202,-3.8202,-3.8159,-3.7984,-3.7636,-3.723,-3.6838,-3.6388,-3.5764,-3.4675,-3.4414,-3.4182,-3.3367,-3.3073,-3.2613,-3.1304,-3.1365,-3.1328,-3.0203,-3.0075,-2.9999,-2.9433,-2.8922,-2.8578,-2.8578,-2.855,-2.851,-2.851,-2.851,-2.851,-2.851,-2.851,-2.851,-2.851,-2.851,-2.851,-2.851,-2.851,-2.851,-2.851,-2.851,-2.851,-2.851,-2.851,-2.851,-2.851,-2.851,-2.851,-2.851,-2.851,-2.851,-2.851,-2.851,-2.851,-2.851,-2.851,-2.851,-2.851,-2.851,-2.8351,-2.8111,-2.7962,-2.7708,-2.7412,-4.7309,-4.7309,-4.7309,-4.7309,-4.7309,-4.7309,-4.7309,-4.7309,-4.7309,-4.7309,-4.7309,-4.7309,-4.7309,-4.7309,-4.7251,-4.7164,-4.7164,-4.6821,-4.6,-4.5478,-4.4778,-4.3757,-4.3228,-4.2723,-4.2284,-4.2175,-4.2092,-4.2092,-4.2092,-4.2092,-4.2092,-4.2092,-4.2092,-4.2092,-4.2092,-4.2092,-4.2092,-4.2092,-4.2092,-4.2092,-4.2092,-4.2092,-4.2092,-4.2092,-4.2092,-4.2005,-4.1337,-4.0844,-4.0394,-3.977,-3.9131,-3.8551,-3.8289,-3.8202,-3.8202,-3.8202,-3.7941,-3.7607,-3.7375,-3.7012,-3.646,-3.5415,-3.4724,-3.3951,-3.2511,-3.2096,-3.1623,-3.0266,-3.0304,-3.0253,-2.9275,-2.9341,-2.9355,-2.887,-2.8618,-2.851,-2.851,-2.851,-2.851,-2.851,-2.851,-2.851,-2.851,-2.851,-2.851,-2.851,-2.851,-2.851,-2.851,-2.851,-2.851,-2.851,-2.851,-2.851,-2.851,-2.851,-2.851,-2.851,-2.851,-2.851,-2.851,-2.851,-2.851,-2.851,-2.851,-2.851,-2.851,-2.851,-2.851,-2.851,-2.851,-2.8311,-2.807,-2.7921,-2.7679,-2.7371,-4.7309,-4.7309,-4.7309,-4.7309,-4.7309,-4.7309,-4.7266,-4.7266,-4.7309,-4.7266,-4.7309,-4.7309,-4.7309,-4.7266,-4.7164,-4.6975,-4.6931,-4.6901,-4.6798,-4.6264,-4.5751,-4.5215,-4.4017,-4.2971,-4.2194,-4.2121,-4.2092,-4.2092,-4.2092,-4.2092,-4.2092,-4.2092,-4.2092,-4.2092,-4.2092,-4.2092,-4.2092,-4.2092,-4.2092,-4.2092,-4.2092,-4.2092,-4.2092,-4.2092,-4.2092,-4.202,-4.141,-4.1149,-4.0989,-4.0263,-3.9654,-3.9088,-3.8405,-3.8202,-3.8202,-3.8202,-3.8202,-3.8086,-3.7535,-3.7389,-3.7193,-3.6368,-3.5173,-3.3633,-3.1305,-3.0671,-3.0279,-2.9275,-2.9052,-2.9052,-2.9052,-2.8882,-2.8764,-2.8764,-2.8618,-2.851,-2.851,-2.851,-2.851,-2.851,-2.851,-2.851,-2.851,-2.851,-2.851,-2.851,-2.851,-2.851,-2.851,-2.851,-2.851,-2.851,-2.851,-2.851,-2.851,-2.851,-2.851,-2.851,-2.851,-2.851,-2.851,-2.851,-2.851,-2.851,-2.851,-2.851,-2.851,-2.851,-2.851,-2.851,-2.851,-2.8271,-2.7921,-2.78,-2.7476,-2.7097,-4.7309,-4.7309,-4.7309,-4.7309,-4.7309,-4.7207,-4.7019,-4.7164,-4.7207,-4.7019,-4.7164,-4.7309,-4.7309,-4.7121,-4.7062,-4.7207,-4.7207,-4.681,-4.5959,-4.5767,-4.5328,-4.4528,-4.4093,-4.3514,-4.2818,-4.2339,-4.2092,-4.2092,-4.2092,-4.2092,-4.2092,-4.2092,-4.2092,-4.2092,-4.2092,-4.2092,-4.2092,-4.2092,-4.2092,-4.2092,-4.2092,-4.2092,-4.2092,-4.2092,-4.2092,-4.2078,-4.1932,-4.1541,-4.0916,-3.9784,-3.9305,-3.9088,-3.8405,-3.8202,-3.8202,-3.8202,-3.8202,-3.8173,-3.8043,-3.8014,-3.7489,-3.5405,-3.4642,-3.4043,-3.257,-3.1158,-2.9884,-2.9028,-2.8736,-2.863,-2.863,-2.859,-2.8578,-2.8578,-2.855,-2.851,-2.851,-2.851,-2.851,-2.851,-2.851,-2.851,-2.851,-2.851,-2.851,-2.851,-2.851,-2.851,-2.851,-2.851,-2.851,-2.851,-2.851,-2.851,-2.851,-2.851,-2.851,-2.851,-2.851,-2.851,-2.851,-2.851,-2.851,-2.851,-2.851,-2.851,-2.851,-2.851,-2.851,-2.851,-2.851,-2.8351,-2.8018,-2.7121,-2.6629,-2.6279,-4.7309,-4.7309,-4.7309,-4.7309,-4.7309,-4.7251,-4.7121,-4.7121,-4.7062,-4.6916,-4.7019,-4.7121,-4.7121,-4.7121,-4.7121,-4.7121,-4.7033,-4.6666,-4.5918,-4.5889,-4.5639,-4.5113,-4.4676,-4.4255,-4.3906,-4.3311,-4.2702,-4.2092,-4.2092,-4.2092,-4.2092,-4.2092,-4.2092,-4.2092,-4.2092,-4.2092,-4.2092,-4.2092,-4.2092,-4.2092,-4.2092,-4.2092,-4.2092,-4.2092,-4.2092,-4.2092,-4.2092,-4.1874,-4.1381,-4.0075,-3.9625,-3.9465,-3.8507,-3.8202,-3.8202,-3.8202,-3.8202,-3.8202,-3.8202,-3.8202,-3.7762,-3.5958,-3.491,-3.3873,-3.2044,-3.0667,-2.9673,-2.914,-2.8759,-2.851,-2.851,-2.851,-2.851,-2.851,-2.851,-2.851,-2.851,-2.851,-2.851,-2.851,-2.851,-2.851,-2.851,-2.851,-2.851,-2.851,-2.851,-2.851,-2.851,-2.851,-2.851,-2.851,-2.851,-2.851,-2.851,-2.851,-2.851,-2.851,-2.851,-2.851,-2.851,-2.851,-2.851,-2.851,-2.851,-2.851,-2.851,-2.851,-2.851,-2.851,-2.851,-2.8311,-2.7938,-2.6864,-2.6038,-2.5295,-4.7309,-4.7309,-4.7309,-4.7309,-4.7309,-4.7266,-4.7251,-4.7019,-4.6887,-4.6829,-4.6887,-4.6887,-4.6829,-4.7033,-4.7077,-4.6756,-4.6624,-4.6447,-4.618,-4.6165,-4.609,-4.5925,-4.5358,-4.501,-4.4879,-4.44,-4.3529,-4.2252,-4.2252,-4.2194,-4.2092,-4.2092,-4.2092,-4.2092,-4.2092,-4.2092,-4.2092,-4.2092,-4.2092,-4.2092,-4.2092,-4.2092,-4.2092,-4.2092,-4.2092,-4.2092,-4.2092,-4.2092,-4.1903,-4.0554,-4.0104,-3.9871,-3.8609,-3.8202,-3.8202,-3.8202,-3.8165,-3.8127,-3.8127,-3.8,-3.7606,-3.6517,-3.5142,-3.3442,-3.1164,-3.0119,-2.9658,-2.9477,-2.9015,-2.8643,-2.8643,-2.857,-2.851,-2.851,-2.851,-2.851,-2.851,-2.851,-2.851,-2.851,-2.851,-2.851,-2.851,-2.851,-2.851,-2.851,-2.851,-2.851,-2.851,-2.851,-2.851,-2.851,-2.851,-2.851,-2.851,-2.851,-2.851,-2.851,-2.851,-2.851,-2.851,-2.851,-2.851,-2.851,-2.851,-2.851,-2.851,-2.851,-2.851,-2.851,-2.8471,-2.8243,-2.776,-2.6577,-2.5231,-2.4026,-4.7309,-4.7309,-4.7309,-4.7309,-4.7309,-4.7207,-4.6975,-4.6916,-4.6844,-4.6683,-4.68,-4.6844,-4.6683,-4.6683,-4.6506,-4.606,-4.6373,-4.6417,-4.597,-4.609,-4.609,-4.5925,-4.5793,-4.5474,-4.4893,-4.4806,-4.4139,-4.2876,-4.2876,-4.26,-4.2092,-4.2092,-4.2092,-4.2092,-4.2092,-4.2092,-4.2092,-4.2092,-4.2092,-4.2092,-4.2092,-4.2092,-4.2092,-4.2092,-4.2092,-4.2092,-4.2092,-4.2092,-4.1903,-4.0554,-4.0104,-3.9871,-3.8609,-3.8202,-3.8202,-3.8202,-3.8066,-3.7929,-3.7929,-3.7275,-3.6294,-3.5156,-3.4158,-3.3098,-3.1794,-3.073,-3.0019,-2.9977,-2.9556,-2.9184,-2.9184,-2.8823,-2.851,-2.851,-2.851,-2.851,-2.851,-2.851,-2.851,-2.851,-2.851,-2.851,-2.851,-2.851,-2.851,-2.851,-2.851,-2.851,-2.851,-2.851,-2.851,-2.851,-2.851,-2.851,-2.851,-2.851,-2.851,-2.851,-2.851,-2.851,-2.851,-2.851,-2.851,-2.851,-2.851,-2.851,-2.851,-2.851,-2.851,-2.8471,-2.8299,-2.8111,-2.7626,-2.5547,-2.3627,-2.2078,-4.7309,-4.7309,-4.7309,-4.7309,-4.7309,-4.7251,-4.7164,-4.7019,-4.6887,-4.68,-4.6829,-4.6844,-4.6639,-4.6594,-4.6462,-4.609,-4.6269,-4.6225,-4.5925,-4.597,-4.6015,-4.588,-4.588,-4.575,-4.5459,-4.5445,-4.498,-4.4052,-4.334,-4.2687,-4.2092,-4.2092,-4.2092,-4.2092,-4.2092,-4.2092,-4.2092,-4.2092,-4.2092,-4.2092,-4.2092,-4.2092,-4.2092,-4.2092,-4.2092,-4.2092,-4.2092,-4.2092,-4.1947,-4.0974,-4.0655,-4.0495,-3.9552,-3.903,-3.8716,-3.8639,-3.7906,-3.7236,-3.761,-3.6677,-3.5427,-3.4747,-3.3959,-3.3023,-3.1957,-3.1344,-3.0922,-3.0591,-2.9869,-2.9304,-2.9304,-2.8871,-2.851,-2.851,-2.851,-2.851,-2.851,-2.851,-2.851,-2.851,-2.851,-2.851,-2.851,-2.851,-2.851,-2.851,-2.851,-2.851,-2.851,-2.851,-2.851,-2.851,-2.851,-2.851,-2.851,-2.851,-2.851,-2.851,-2.851,-2.851,-2.851,-2.851,-2.851,-2.851,-2.851,-2.851,-2.851,-2.851,-2.851,-2.8471,-2.8259,-2.7377,-2.5955,-2.4339,-2.2853,-2.1696]},{"header":{"parameterUnit":"m.s-1","parameterCategory":1,"la1":30.6,"la2":28.766,"lo1":-90.7593,"lo2":-88.6598,"dy":0.0162,"dx":0.0183,"nx":116,"ny":114,"refTime":"2024-05-29T06:00:00:Z","depth":0,"parameterNumber":3,"parameterNumberName":"V-component_of_WINDS"},"data":[0.0,0.0,0.0,0.0,0.0,0.0,0.0,0.0,0.0,0.0,0.0,0.0,0.0,0.0,0.0,0.0,0.0,0.0,0.0,0.0,0.0,0.0,0.0,0.0,0.0,0.0,0.0,0.0,0.0,0.0,0.0,0.0,0.0,0.0,0.0,0.0,0.0,0.0,0.0,0.0,0.0,0.0,0.0,0.0,0.0,0.0,0.0,0.0,0.0,0.0,0.0,0.0,0.0,0.0,0.0,0.0,0.0,0.0,0.0,0.0,0.0,0.0,0.0,0.0,0.0,0.0,0.0,0.0,0.0,0.0,0.0,0.0,0.0,0.0,0.0,0.0,0.0,0.0,0.0,0.0,0.0,0.0,0.0,0.0,0.0,0.0,0.0,0.0,0.0,0.0,0.0,0.0,0.0,0.0,0.0,0.0,0.0,0.0,0.0,0.0,0.0,0.0,0.0,0.0,0.0,0.0,0.0,0.0,0.0,0.0,0.0,0.0,0.0,0.0,0.0,0.0,0.0,0.0,0.0,0.0,0.0,0.0,0.0,0.0,0.0,0.0,0.0,0.0,0.0,0.0,0.0,0.0,0.0,0.0,0.0,0.0,0.0,0.0,0.0,0.0,0.0,0.0,0.0,0.0,0.0,0.0,0.0,0.0,0.0,0.0,0.0,0.0,0.0,0.0,0.0,0.0,0.0,0.0,0.0,0.0,0.0,0.0,0.0,0.0,0.0,0.0,0.0,0.0,0.0,0.0,0.0,0.0,0.0,0.0,0.0,0.0,0.0,0.0,0.0,0.0,0.0,0.0,0.0,0.0,0.0,0.0,0.0,0.0,0.0,0.0,0.0,0.0,0.0,0.0,0.0,0.0,0.0,0.0,0.0,0.0,0.0,0.0,0.0,0.0,0.0,0.0,0.0,0.0,0.0,0.0,0.0,0.0,0.0,0.0,0.0,0.0,0.0,0.0,0.0,0.0,0.0,0.0,0.0,0.0,0.0,0.0,0.0,0.0,0.0,0.0,0.0,0.0,0.0,0.0,0.0,0.0,0.0,0.0,0.0,0.0,0.0,0.0,0.0,0.0,0.0,0.0,0.0,0.0,0.0,0.0,0.0,0.0,0.0,0.0,0.0,0.0,0.0,0.0,0.0,0.0,0.0,0.0,0.0,0.0,0.0,0.0,0.0,0.0,0.0,0.0,0.0,0.0,0.0,0.0,0.0,0.0,0.0,0.0,0.0,0.0,0.0,0.0,0.0,0.0,0.0,0.0,0.0,0.0,0.0,0.0,0.0,0.0,0.0,0.0,0.0,0.0,0.0,0.0,0.0,0.0,0.0,0.0,0.0,0.0,0.0,0.0,0.0,0.0,0.0,0.0,0.0,0.0,0.0,0.0,0.0,0.0,0.0,0.0,0.0,0.0,0.0,0.0,0.0,0.0,0.0,0.0,0.0,0.0,0.0,0.0,0.0,0.0,0.0,0.0,0.0,0.0,0.0,0.0,0.0,0.0,0.0,0.0,0.0,0.0,0.0,0.0,0.0,0.0,0.0,0.0,0.0,0.0,0.0,0.0,0.0,0.0,0.0,0.0,0.0,0.0,0.0,0.0,0.0,0.0,0.0,0.0,0.0,0.0,0.0,0.0,0.0,0.0,0.0,0.0,0.0,0.0,0.0,0.0,0.0,0.0,0.0,0.0,0.0,0.0,0.0,0.0,0.0,0.0,0.0,0.0,0.0,0.0,0.0,0.0,0.0,0.0,0.0,0.0,0.0,0.0,0.0,0.0,0.0,0.0,0.0,0.0,0.0,0.0,0.0,0.0,0.0,0.0,0.0,0.0,0.0,0.0,0.0,0.0,0.0,0.0,0.0,0.0,0.0,0.0,0.0,0.0,0.0,0.0,0.0,0.0,0.0,0.0,0.0,0.0,0.0,0.0,0.0,0.0,0.0,0.0,0.0,0.0,0.0,0.0,0.0,0.0,0.0,0.0,0.0,0.0,0.0,0.0,0.0,0.0,0.0,0.0,0.0,0.0,0.0,0.0,0.0,0.0,0.0,0.0,0.0,0.0,0.0,0.0,0.0,0.0,0.0,0.0,0.0,0.0,0.0,0.0,0.0,0.0,0.0,0.0,0.0,0.0,0.0,0.0,0.0,0.0,0.0,0.0,0.0,0.0,0.0,0.0,0.0,0.0,0.0,0.0,0.0,0.0,0.0,0.0,0.0,0.0,0.0,0.0,0.0,0.0,0.0,0.0,0.0,0.0,0.0,0.0,0.0,0.0,0.0,0.0,0.0,0.0,0.0,0.0,0.0,0.0,0.0,0.0,0.0,0.0,0.0,0.0,0.0,0.0,0.0,0.0,0.0,0.0,0.0,0.0,0.0,0.0,0.0,0.0,0.0,0.0,0.0,0.0,0.0,0.0,0.0,0.0,0.0,0.0,0.0,0.0,0.0,0.0,0.0,0.0,0.0,0.0,0.0,0.0,0.0,0.0,0.0,0.0,0.0,0.0,0.0,0.0,0.0,0.0,0.0,0.0,0.0,0.0,0.0,0.0,0.0,0.0,0.0,0.0,0.0,0.0,0.0,0.0,0.0,0.0,0.0,0.0,0.0,0.0,0.0,0.0,0.0,0.0,0.0,0.0,0.0,0.0,0.0,0.0,0.0,0.0,0.0,0.0,0.0,0.0,0.0,0.0,0.0,0.0,0.0,0.0,0.0,0.0,0.0,0.0,0.0,0.0,0.0,0.0,0.0,0.0,0.0,0.0,0.0,0.0,0.0,0.0,0.0,0.0,0.0,0.0,0.0,0.0,0.0,0.0,0.0,0.0,0.0,0.0,0.0,0.0,0.0,0.0,0.0,0.0,0.0,0.0,0.0,0.0,0.0,0.0,0.0,0.0,0.0,0.0,0.0,0.0,0.0,0.0,0.0,0.0,0.0,0.0,0.0,0.0,0.0,0.0,0.0,0.0,0.0,0.0,0.0,0.0,0.0,0.0,0.0,0.0,0.0,0.0,0.0,0.0,0.0,0.0,0.0,0.0,0.0,0.0,0.0,0.0,0.0,0.0,0.0,0.0,0.0,0.0,0.0,0.0,0.0,0.0,0.0,0.0,0.0,0.0,0.0,0.0,0.0,0.0,0.0,0.0,0.0,0.0,0.0,0.0,0.0,0.0,0.0,0.0,0.0,0.0,0.0,0.0,0.0,0.0,0.0,0.0,0.0,0.0,0.0,0.0,0.0,0.0,0.0,0.0,0.0,0.0,0.0,0.0,0.0,0.0,0.0,0.0,0.0,0.0,0.0,0.0,0.0,0.0,0.0,0.0,0.0,0.0,0.0,0.0,0.0,0.0,0.0,0.0,0.0,0.0,0.0,0.0,0.0,0.0,0.0,0.0,0.0,0.0,0.0,0.0,0.0,0.0,0.0,0.0,0.0,0.0,0.0,0.0,0.0,0.0,0.0,0.0,0.0,0.0,0.0,0.0,0.0,0.0,0.0,0.0,0.0,0.0,0.0,0.0,0.0,0.0,0.0,0.0,0.0,0.0,0.0,0.0,0.0,0.0,0.0,0.0,0.0,0.0,0.0,0.0,0.0,0.0,0.0,0.0,0.0,0.0,0.0,0.0,0.0,0.0,0.0,0.0,0.0,0.0,0.0,0.0,0.0,0.0,0.0,0.0,0.0,0.0,0.0,0.0,0.0,0.0,0.0,0.0,0.0,0.0,0.0,0.0,0.0,0.0,0.0,0.0,0.0,0.0,0.0,0.0,0.0,0.0,0.0,0.0,0.0,0.0,0.0,0.0,0.0,0.0,0.0,0.0,0.0,0.0,0.0,0.0,0.0,0.0,0.0,0.0,0.0,0.0,0.0,0.0,0.0,0.0,0.0,0.0,0.0,0.0,0.0,0.0,0.0,0.0,0.0,0.0,0.0,0.0,0.0,0.0,0.0,0.0,0.0,0.0,0.0,0.0,0.0,0.0,0.0,0.0,0.0,0.0,0.0,0.0,0.0,0.0,0.0,0.0,0.0,0.0,0.0,0.0,0.0,0.0,0.0,0.0,0.0,0.0,0.0,0.0,0.0,0.0,0.0,0.0,0.0,0.0,0.0,0.0,0.0,0.0,0.0,0.0,0.0,0.0,0.0,0.0,0.0,0.0,0.0,0.0,0.0,0.0,0.0,0.0,0.0,0.0,0.0,0.0,0.0,0.0,0.0,0.0,0.0,0.0,0.0,0.0,0.0,0.0,0.0,0.0,0.0,0.0,0.0,0.0,0.0,0.0,0.0,0.0,0.0,0.0,0.0,0.0,0.0,0.0,0.0,0.0,0.0,0.0,0.0,0.0,0.0,0.0,0.0,0.0,0.0,0.0,0.0,0.0,0.0,0.0,0.0,0.0,0.0,0.0,0.0,0.0,0.0,0.0,0.0,0.0,0.0,0.0,0.0,0.0,0.0,0.0,0.0,0.0,0.0,0.0,0.0,0.0,0.0,0.0,0.0,0.0,0.0,0.0,0.0,0.0,0.0,0.0,0.0,0.0,0.0,0.0,0.0,0.0,0.0,0.0,0.0,0.0,0.0,0.0,0.0,0.0,0.0,0.0,0.0,0.0,0.0,0.0,0.0,0.0,0.0,0.0,0.0,0.0,0.0,0.0,0.0,0.0,0.0,0.0,0.0,0.0,0.0,0.0,0.0,0.0,0.0,0.0,0.0,0.0,0.0,0.0,0.0,0.0,0.0,0.0,0.0,0.0,0.0,0.0,0.0,0.0,0.0,0.0,0.0,0.0,0.0,0.0,0.0,0.0,0.0,0.0,0.0,0.0,0.0,0.0,0.0,0.0,0.0,0.0,0.0,0.0,0.0,0.0,0.0,0.0,0.0,0.0,0.0,0.0,0.0,0.0,0.0,0.0,0.0,0.0,0.0,0.0,0.0,0.0,0.0,0.0,0.0,0.0,0.0,0.0,0.0,0.0,0.0,0.0,0.0,0.0,0.0,0.0,0.0,0.0,0.0,0.0,0.0,0.0,0.0,0.0,0.0,0.0,0.0,0.0,0.0,0.0,0.0,0.0,0.0,0.0,0.0,0.0,0.0,0.0,0.0,0.0,0.0,0.0,0.0,0.0,0.0,0.0,0.0,0.0,0.0,0.0,0.0,0.0,0.0,0.0,0.0,0.0,0.0,0.0,0.0,0.0,0.0,0.0,0.0,0.0,0.0,0.0,0.0,0.0,0.0,0.0,0.0,0.0,0.0,0.0,0.0,0.0,0.0,0.0,0.0,0.0,0.0,0.0,0.0,0.0,0.0,0.0,0.0,0.0,0.0,0.0,0.0,0.0,0.0,0.0,0.0,0.0,0.0,0.0,0.0,0.0,0.0,0.0,0.0,0.0,0.0,0.0,0.0,0.0,0.0,0.0,0.0,0.0,0.0,0.0,0.0,0.0,0.0,0.0,0.0,0.0,0.0,0.0,0.0,0.0,0.0,0.0,0.0,0.0,0.0,0.0,0.0,0.0,0.0,0.0,0.0,0.0,0.0,0.0,0.0,0.0,0.0,0.0,0.0,0.0,0.0,0.0,0.0,0.0,0.0,0.0,0.0,0.0,0.0,0.0,0.0,0.0,0.0,0.0,0.0,0.0,0.0,0.0,0.0,0.0,0.0,0.0,0.0,0.0,0.0,0.0,0.0,0.0,0.0,0.0,0.0,0.0,0.0,0.0,0.0,0.0,0.0,0.0,0.0,0.0,0.0,0.0,0.0,0.0,0.0,0.0,0.0,0.0,0.0,0.0,0.0,0.0,0.0,0.0,0.0,0.0,0.0,0.0,0.0,0.0,0.0,0.0,0.0,0.0,0.0,0.0,0.0,0.0,0.0,0.0,0.0,0.0,0.0,0.0,0.0,0.0,0.0,0.0,0.0,0.0,0.0,0.0,0.0,0.0,0.0,0.0,0.0,0.0,0.0,0.0,0.0,0.0,0.0,0.0,0.0,0.0,0.0,0.0,0.0,0.0,0.0,0.0,0.0,0.0,0.0,0.0,0.0,0.0,0.0,0.0,0.0,0.0,0.0,0.0,0.0,0.0,0.0,0.0,0.0,0.0,0.0,0.0,0.0,0.0,2.5957,2.5368,0.0,0.0,0.0,0.0,0.0,0.0,0.0,0.0,0.0,0.0,0.0,0.0,0.0,0.0,0.0,0.0,0.0,0.0,0.0,0.0,0.0,0.0,0.0,2.4299,2.5259,2.6399,2.6738,2.6776,2.6512,0.0,0.0,0.0,0.0,0.0,2.5089,2.3851,2.3386,2.3736,2.3386,2.3213,2.3201,2.2664,2.233,2.2093,0.0,0.0,0.0,0.0,0.0,0.0,0.0,0.0,0.0,0.0,0.0,0.0,0.0,0.0,0.0,0.0,0.0,0.0,0.0,0.0,0.0,0.0,0.0,0.0,0.0,0.0,0.0,0.0,0.0,0.0,0.0,0.0,0.0,0.0,0.0,0.0,0.0,0.0,0.0,0.0,0.0,0.0,0.0,0.0,0.0,0.0,0.0,0.0,0.0,0.0,0.0,0.0,0.0,0.0,0.0,0.0,0.0,0.0,0.0,0.0,0.0,0.0,0.0,0.0,0.0,0.0,0.0,0.0,0.0,0.0,2.7068,2.6455,0.0,0.0,0.0,0.0,0.0,0.0,0.0,0.0,0.0,0.0,0.0,0.0,0.0,0.0,0.0,0.0,0.0,0.0,0.0,0.0,0.0,2.1864,2.3149,2.4286,2.5476,2.6748,2.7271,2.7372,2.7084,2.723,0.0,0.0,0.0,2.5918,2.6339,2.5326,2.5161,2.5845,2.5228,2.4868,2.4703,2.467,2.4444,2.4038,2.3723,0.0,0.0,0.0,0.0,0.0,0.0,0.0,0.0,0.0,0.0,0.0,0.0,0.0,0.0,0.0,0.0,0.0,0.0,0.0,0.0,0.0,0.0,0.0,0.0,0.0,0.0,0.0,0.0,0.0,0.0,0.0,0.0,0.0,0.0,0.0,0.0,0.0,0.0,0.0,0.0,0.0,0.0,0.0,0.0,0.0,0.0,0.0,0.0,0.0,0.0,0.0,0.0,0.0,0.0,0.0,0.0,0.0,0.0,0.0,0.0,0.0,0.0,0.0,3.02,3.023,3.0049,3.0145,3.0145,3.0001,2.9051,2.8378,2.7876,2.7345,0.0,0.0,0.0,0.0,0.0,0.0,0.0,0.0,0.0,0.0,0.0,0.0,0.0,0.0,0.0,0.0,0.0,0.0,0.0,2.1644,2.3832,2.5031,2.6356,2.8074,2.8314,2.8608,2.9238,2.8146,0.0,0.0,2.7626,2.6984,2.6901,2.6895,2.7132,2.7557,2.748,2.7062,2.6362,2.6214,2.6024,2.5797,2.4682,2.4185,2.4222,0.0,0.0,0.0,0.0,0.0,0.0,0.0,0.0,0.0,0.0,0.0,0.0,0.0,0.0,0.0,0.0,0.0,0.0,0.0,0.0,0.0,0.0,0.0,0.0,0.0,0.0,0.0,0.0,0.0,0.0,0.0,0.0,0.0,0.0,0.0,0.0,0.0,0.0,0.0,0.0,0.0,2.9097,2.9025,0.0,0.0,0.0,0.0,0.0,0.0,0.0,0.0,0.0,0.0,0.0,0.0,0.0,3.141,3.1739,3.2717,3.28,3.2007,3.3034,3.3065,3.2287,3.2804,3.2752,3.2262,3.2107,0.0,2.8474,2.841,0.0,0.0,0.0,0.0,0.0,0.0,0.0,0.0,0.0,0.0,0.0,0.0,0.0,0.0,0.0,0.0,0.0,0.0,0.0,0.0,0.0,2.5757,2.6914,2.8016,2.8794,2.9246,2.9293,2.9331,2.9235,2.8959,2.8786,2.8665,2.8567,2.8665,2.8833,2.9067,2.8712,2.8153,2.7417,2.7338,2.6994,2.6487,2.6255,2.58,2.5185,2.4878,0.0,0.0,0.0,0.0,0.0,0.0,0.0,0.0,0.0,0.0,0.0,0.0,0.0,0.0,0.0,0.0,0.0,0.0,0.0,0.0,0.0,0.0,0.0,0.0,0.0,0.0,0.0,0.0,0.0,0.0,0.0,0.0,0.0,0.0,0.0,0.0,0.0,0.0,0.0,3.0524,3.0482,3.0482,3.0548,3.0321,0.0,0.0,0.0,0.0,0.0,0.0,0.0,0.0,0.0,3.3107,3.3403,3.3769,3.4354,3.486,3.4747,3.4051,3.4546,3.4379,3.3652,3.3927,3.3901,3.3652,3.3652,3.2813,3.1317,3.002,2.9468,2.931,0.0,0.0,0.0,0.0,2.937,2.9337,0.0,0.0,0.0,0.0,0.0,0.0,0.0,0.0,0.0,0.0,0.0,0.0,2.5411,2.6601,2.766,2.8561,2.9547,3.0034,2.9865,3.0331,3.0284,2.9594,2.972,2.9767,2.9707,2.9869,2.9921,2.9808,2.9517,2.9009,2.8344,2.8344,2.7966,2.7323,2.7941,2.7484,2.6235,2.5975,2.549,0.0,0.0,0.0,0.0,0.0,0.0,0.0,0.0,0.0,0.0,0.0,0.0,0.0,0.0,0.0,0.0,0.0,0.0,0.0,0.0,0.0,0.0,0.0,0.0,0.0,0.0,0.0,0.0,0.0,0.0,0.0,0.0,0.0,0.0,0.0,0.0,0.0,0.0,3.1392,3.1886,3.1776,3.2548,3.2737,0.0,0.0,0.0,0.0,0.0,0.0,3.3495,3.3692,3.424,3.5236,3.5449,3.5687,3.6109,3.6253,3.6057,3.5495,3.5365,3.5064,3.462,3.4463,3.4439,3.4481,3.4481,3.4299,3.384,3.1888,3.0903,3.0509,2.9453,2.8971,2.8927,2.9742,3.0024,3.0139,0.0,0.0,0.0,0.0,0.0,0.0,0.0,0.0,0.0,0.0,0.0,2.4968,2.6888,2.7726,2.8901,3.0764,3.0999,3.1338,0.0,3.0809,3.0461,3.1315,3.0349,2.9711,2.9523,3.0079,3.0015,2.9352,2.9991,2.9963,2.9233,2.9233,2.9125,2.8903,2.9559,2.8906,2.7268,2.7734,2.7369,2.6377,0.0,0.0,0.0,0.0,0.0,0.0,0.0,0.0,0.0,0.0,0.0,0.0,0.0,0.0,0.0,0.0,0.0,0.0,0.0,0.0,0.0,0.0,0.0,0.0,0.0,0.0,0.0,0.0,0.0,0.0,0.0,0.0,0.0,0.0,0.0,0.0,0.0,0.0,0.0,3.2864,3.3802,0.0,0.0,0.0,0.0,3.3678,3.443,3.4852,3.4878,3.5574,3.5961,3.6057,3.6619,3.6658,3.6109,3.6671,3.6658,3.6057,3.5534,3.5273,3.5234,3.4659,3.4535,3.4756,3.4756,3.4867,3.4951,3.3866,3.2763,3.172,3.1642,3.1304,3.0861,3.0911,3.0936,3.0949,0.0,0.0,0.0,0.0,0.0,1.8152,1.9593,2.062,2.1795,2.3384,2.5026,2.6481,2.77,2.8874,2.9823,3.051,3.1055,3.1528,3.1957,3.1827,3.1707,3.1684,3.1722,3.1899,3.2278,3.2998,3.304,3.2313,3.2059,3.136,3.0253,3.0117,2.9749,2.923,3.0262,3.026,2.9562,2.9845,2.9537,2.8765,2.8155,2.7254,0.0,0.0,0.0,0.0,0.0,0.0,0.0,0.0,0.0,0.0,0.0,0.0,0.0,0.0,0.0,0.0,0.0,0.0,0.0,0.0,0.0,0.0,0.0,0.0,0.0,0.0,0.0,0.0,0.0,0.0,0.0,0.0,0.0,0.0,0.0,0.0,0.0,3.455,3.5362,0.0,3.4594,3.4999,3.515,3.4799,3.5336,3.603,3.6798,3.7123,3.7599,3.8331,3.8187,3.8004,3.7782,3.7652,3.7286,3.6684,3.6678,3.6236,3.5486,3.5445,3.5266,3.5003,3.5003,3.5044,3.5059,3.4696,3.3833,3.2722,3.2378,3.1889,3.1373,3.1373,3.1373,3.1373,0.0,0.0,0.0,0.0,1.7949,1.8329,2.0139,2.144,2.2811,2.4396,2.628,2.7756,2.8512,2.9659,3.0486,3.0781,3.1285,3.1683,3.187,3.2219,3.23,3.1872,3.2495,3.318,3.3865,3.4392,3.4319,3.3651,3.3138,3.23,3.1204,3.1073,3.082,3.0489,3.1535,3.1997,3.2065,3.2392,3.1811,3.0607,3.0004,2.902,2.7795,0.0,0.0,0.0,0.0,0.0,0.0,0.0,0.0,0.0,0.0,0.0,0.0,0.0,0.0,0.0,0.0,0.0,0.0,0.0,0.0,0.0,0.0,0.0,0.0,0.0,0.0,0.0,0.0,0.0,0.0,0.0,0.0,0.0,0.0,3.493,3.5857,3.6114,3.6954,3.708,3.6139,3.6614,3.6964,3.6883,3.7121,3.7671,3.8562,3.8615,3.9002,3.986,3.9491,3.9188,3.8957,3.8635,3.8161,3.7524,3.7505,3.7091,3.6323,3.6082,3.5822,3.5476,3.5289,3.5236,3.5318,3.5588,3.5099,3.4149,3.3388,3.2581,3.1902,3.1902,3.1769,3.1609,0.0,0.0,0.0,1.8041,1.8347,1.9164,2.1291,2.2815,2.4075,2.513,2.7128,2.8675,2.9357,3.0108,3.0878,3.1739,3.1784,3.187,3.1996,3.2025,3.204,3.2055,3.2708,3.3377,3.403,3.406,3.3741,3.3058,3.3043,3.2693,3.2025,3.2012,3.2275,3.2749,3.3442,3.4013,3.4548,3.5205,3.4126,3.1909,3.1875,3.0951,2.9618,0.0,0.0,0.0,0.0,0.0,0.0,0.0,0.0,0.0,0.0,0.0,0.0,0.0,0.0,0.0,0.0,0.0,0.0,0.0,0.0,0.0,0.0,0.0,0.0,0.0,0.0,0.0,0.0,0.0,0.0,0.0,0.0,0.0,3.5602,3.7018,3.7939,3.764,3.8605,3.9029,3.8493,3.8642,3.916,3.9976,3.9838,3.9803,4.0089,4.0089,4.0232,4.0481,4.0468,4.0174,3.9554,3.9527,3.9188,3.8589,3.7989,3.774,3.7731,3.6596,3.623,3.6357,3.575,3.5616,3.5831,3.6624,3.6595,3.5957,3.4775,3.3604,3.2575,3.2537,3.2177,3.1633,0.0,0.0,1.7501,1.8581,1.8892,1.9736,2.198,2.3105,2.4436,2.6503,2.8144,2.9399,3.0123,3.0936,3.1545,3.1769,3.1898,3.1996,3.215,3.215,3.242,3.3008,3.4173,3.4894,3.5078,3.5554,3.5247,3.4081,3.3933,3.3279,3.215,3.254,3.2772,3.297,3.4122,3.4635,3.4691,3.5353,3.521,3.4442,3.37,3.2894,3.2106,0.0,0.0,0.0,0.0,0.0,0.0,0.0,0.0,0.0,0.0,0.0,0.0,0.0,0.0,0.0,0.0,0.0,0.0,0.0,0.0,0.0,0.0,0.0,0.0,0.0,0.0,0.0,0.0,0.0,0.0,0.0,3.6658,3.7811,3.7028,3.8282,3.9353,3.9716,4.0586,4.1091,4.0944,4.0921,4.1041,4.131,4.1232,4.1423,4.1934,4.2602,4.2874,4.2643,4.226,4.1455,4.0107,3.9681,3.9188,3.8602,3.8582,3.8702,3.8915,3.8768,3.857,3.8375,3.8218,3.7862,3.7472,3.7686,3.7661,3.746,3.6664,3.5628,3.4462,3.4002,3.3359,3.2747,0.0,1.7403,1.8003,1.8845,1.9168,2.003,2.23,2.3339,2.4628,2.6772,2.8472,2.9555,2.9766,3.0719,3.127,3.1137,3.1475,3.1723,3.1845,3.241,3.3203,3.4301,3.5105,3.5645,3.5983,3.6322,3.5968,3.4936,3.4786,3.4204,3.3176,3.3488,3.3737,3.3968,3.4744,3.5154,3.5271,3.5664,3.5735,3.5524,3.4942,3.4247,3.348,3.2911,3.2275,3.1619,3.1403,3.1354,3.1312,3.1082,0.0,0.0,0.0,0.0,0.0,0.0,0.0,0.0,0.0,0.0,0.0,0.0,0.0,0.0,0.0,0.0,0.0,0.0,0.0,0.0,0.0,0.0,0.0,0.0,3.8991,4.0294,4.0096,4.0487,4.1036,4.1792,4.2293,4.271,4.2939,4.2838,4.2907,4.3265,4.3174,4.3343,4.3828,4.3966,4.3937,4.3848,4.3528,4.268,4.1194,4.0886,4.0511,3.9998,3.9766,3.992,4.0476,4.0343,3.9998,3.9518,3.9295,3.8801,3.8138,3.8473,3.8598,3.8517,0.0,0.0,0.0,0.0,3.4027,3.3665,0.0,1.7789,1.8468,1.8995,1.9306,2.0195,2.2369,2.3479,2.4705,2.6495,2.8342,2.9319,2.8925,2.9946,3.0507,3.0197,3.0827,3.1324,0.0,0.0,3.4241,3.5654,3.5674,3.5998,3.6708,3.6616,3.623,3.5506,3.5506,3.5167,3.4505,3.4582,3.4831,3.5248,3.5309,3.5599,3.6037,3.6037,3.5894,3.5688,3.5688,3.5106,3.4177,3.4177,3.3636,3.2856,3.2381,3.222,3.2136,3.1671,0.0,0.0,0.0,0.0,0.0,0.0,0.0,0.0,0.0,0.0,0.0,0.0,0.0,0.0,0.0,0.0,0.0,0.0,0.0,0.0,0.0,0.0,0.0,0.0,4.1415,4.3038,4.3655,4.3175,4.3042,4.3767,4.3941,4.4221,4.4749,4.46,4.4755,4.5526,4.536,4.5345,4.557,4.484,0.0,0.0,0.0,4.3938,4.2575,4.2606,4.2423,4.199,4.1169,4.1254,4.214,4.1569,4.0952,4.0251,3.9812,3.9138,3.8436,3.916,3.9427,3.9341,3.8473,3.7419,3.6195,3.4981,3.4514,3.4399,0.0,1.8598,1.9008,1.956,1.9762,2.054,2.2483,2.3452,2.479,2.7164,2.8269,2.8978,2.9394,2.9852,3.0118,3.0035,3.0853,3.1816,0.0,0.0,3.5289,3.5685,3.6197,3.663,3.6938,3.6908,3.6505,3.5641,3.5641,3.5271,3.452,3.5059,3.5353,3.5476,3.6015,3.6229,3.6148,3.6148,3.5975,3.5688,3.5688,3.5509,3.5213,3.5213,3.51,3.4938,3.482,3.4776,3.4761,3.4661,3.4211,3.3653,3.3653,0.0,0.0,0.0,0.0,0.0,0.0,0.0,0.0,0.0,0.0,0.0,0.0,0.0,0.0,0.0,0.0,0.0,0.0,0.0,0.0,4.1829,4.3826,4.5161,4.4727,4.5176,4.5516,4.553,4.6137,4.6644,4.6762,4.6653,4.6694,4.6827,4.6784,4.6784,4.6842,4.7405,4.7362,4.6652,4.6652,4.5639,4.3632,4.3618,4.3068,4.199,4.1811,0.0,4.3031,4.2952,4.2602,4.208,4.1995,4.1233,4.0041,4.0181,4.0266,4.0143,3.8922,3.7907,3.7093,3.6332,3.5705,3.519,1.827,1.89,1.9495,2.0137,2.0355,2.104,2.2829,2.3567,2.4685,2.6813,2.7705,2.8272,2.8655,2.9113,2.9329,2.9124,3.0508,0.0,0.0,3.4995,3.5811,3.6349,3.6675,3.6923,3.7105,3.6953,3.663,3.6212,3.6121,3.589,3.5521,3.583,3.5984,3.603,3.6338,3.6445,3.6352,3.6352,3.6211,3.5943,3.5894,3.575,3.5589,3.5537,3.5504,3.5504,3.5504,3.5504,3.5504,3.5504,3.5231,3.4964,3.5288,3.5093,3.4634,0.0,0.0,0.0,0.0,0.0,0.0,0.0,0.0,0.0,0.0,0.0,0.0,0.0,0.0,4.0726,0.0,0.0,4.3668,4.4354,4.5698,4.6569,4.6304,4.6951,4.7278,4.6875,4.7201,4.7579,4.7916,4.7932,4.7904,4.7904,4.7904,4.7904,4.7904,4.7904,4.7676,4.7189,4.7204,4.6347,4.4575,4.456,4.4161,4.3284,4.2845,4.3126,4.3966,4.3966,4.3625,4.3079,4.2756,4.2017,4.1032,4.0643,4.0558,4.0554,3.9534,3.8652,3.7846,3.6858,3.6305,3.6054,1.7915,1.8753,1.9585,2.0509,2.0819,2.1468,2.3027,2.3561,2.4354,2.5929,2.6922,2.7503,2.7583,2.8207,2.8603,0.0,0.0,0.0,0.0,3.5334,3.6196,3.6907,3.6938,3.7014,3.7194,3.6907,3.6754,3.6754,3.66,3.6523,3.6492,3.6492,3.6492,3.6492,3.6492,3.6492,3.6492,3.6492,3.6352,3.6148,3.6022,3.5863,3.5638,3.5554,3.5504,3.5504,3.5504,3.5504,3.5504,3.5504,3.5504,3.5594,3.6133,3.6387,3.6376,3.5712,3.5994,0.0,0.0,0.0,0.0,0.0,0.0,0.0,0.0,0.0,4.0973,4.2529,4.2841,4.3343,4.4987,4.5437,4.5736,4.6431,4.713,4.7599,4.7763,4.8266,4.8419,4.7865,4.7804,4.8019,4.8558,4.862,4.862,4.862,4.862,4.862,4.862,4.7861,4.7463,4.7463,4.7463,4.6831,4.5507,4.5548,4.5247,4.4572,4.3888,4.3927,4.461,4.461,4.424,4.3562,4.274,4.2017,4.141,4.0805,4.0662,4.0805,4.0122,3.9418,3.8652,3.7279,3.6786,3.6754,0.0,1.7901,1.8737,2.0247,2.0874,2.1509,2.2537,2.3141,2.3789,2.4757,2.5894,2.6666,2.6806,2.7457,2.8454,2.9854,0.0,0.0,3.4414,3.5706,3.6492,3.6723,3.6723,3.6877,3.7178,3.7044,3.6969,3.6969,3.677,3.6631,3.6492,3.6492,3.6492,3.6492,3.6492,3.6492,3.6492,3.6492,3.6336,3.6037,3.6005,3.5797,3.5537,3.5504,3.5504,3.5504,3.5504,3.5504,3.5504,3.5504,3.5504,3.5519,3.5594,3.6013,3.6492,3.641,0.0,3.7252,3.7094,3.7089,3.7501,3.8942,3.9418,4.0197,0.0,0.0,4.395,4.5511,4.5841,4.5941,4.637,4.6893,4.7323,4.744,4.8024,4.8455,4.8496,4.8558,4.8589,4.8512,4.8496,4.8527,4.8604,4.862,4.862,4.862,4.862,4.862,4.862,4.848,4.8438,4.8438,4.8438,4.7794,4.6444,4.6469,4.5832,4.461,4.4496,4.4496,4.461,4.461,4.424,4.3531,4.2248,4.1414,4.0873,4.0796,4.0882,4.1005,4.032,4.0008,3.9741,3.8356,3.7467,3.6969,0.0,1.7315,1.8368,1.9677,2.0546,2.1323,2.2091,2.2892,2.3641,2.4368,2.4968,2.5653,2.6496,2.7312,2.8223,2.9275,3.1367,3.2945,3.3683,3.5539,3.6631,3.6693,3.68,3.6953,3.7075,3.6923,3.6831,3.6831,3.6677,3.6554,3.6492,3.6492,3.6492,3.6492,3.6492,3.6492,3.6492,3.6383,3.6242,3.6085,3.5894,3.5735,3.5621,3.5522,3.5504,3.5504,3.5504,3.5504,0.0,0.0,3.5504,3.5564,3.5953,3.6267,3.6552,3.6911,3.7479,0.0,3.8592,3.9304,4.0007,0.0,4.1343,4.2463,4.3381,4.4196,4.5098,4.6245,4.6791,4.7175,4.7696,4.8004,4.8189,0.0,4.8435,4.862,4.862,4.862,4.862,4.862,4.862,4.862,4.862,4.862,4.862,4.862,4.862,4.862,4.862,4.862,4.862,4.862,4.862,4.8142,4.7188,4.6788,4.6111,4.5157,4.481,4.4648,4.4761,4.4648,4.4002,4.2971,4.251,4.1736,4.0799,4.0916,4.1086,4.1174,4.0892,4.0614,4.0257,3.9076,3.8279,3.7762,0.0,1.6181,1.7218,1.8406,1.9513,2.0537,2.1452,2.2206,2.2889,2.3416,2.3821,2.4632,2.623,2.713,2.7933,2.8724,3.0823,3.2354,3.2887,3.4872,3.6054,3.6054,3.6196,3.6258,3.6336,3.6321,3.6352,3.6414,3.6476,3.6492,3.6492,3.6492,3.6553,3.669,3.669,3.6767,3.684,3.6489,3.6313,3.6232,3.5986,3.5768,3.5586,3.5726,3.5669,3.5504,3.5504,3.5504,0.0,0.0,3.5504,3.5594,3.6073,3.6342,3.6611,3.7225,3.8018,3.8816,3.951,4.0562,4.1398,4.1383,4.2575,4.3823,4.3929,4.4703,4.5677,4.6656,4.7265,4.7804,4.8496,4.862,4.862,4.862,4.862,4.862,4.862,4.862,4.862,4.862,4.862,4.862,4.862,4.862,4.862,4.862,4.862,4.862,4.862,4.862,4.862,4.862,4.862,4.8296,4.7619,4.6942,4.6249,4.5572,4.4971,4.4761,4.4911,4.4814,4.3997,4.2731,4.2844,4.2159,4.0969,4.1086,4.1254,4.139,4.139,4.1157,4.0782,4.0051,3.9172,3.837,0.0,0.0,1.4867,1.6084,1.7417,1.8874,2.0578,2.0855,2.1026,2.1439,2.2323,2.3756,2.5881,2.6739,2.7558,2.8684,3.0725,3.1983,3.2219,3.3568,3.438,3.438,3.438,3.448,3.4662,3.5172,3.5482,3.5627,3.6211,3.6492,3.6492,3.6492,3.6736,3.7174,3.7174,3.7443,3.78,3.7025,3.6558,3.6403,3.6368,3.5898,3.5319,3.6164,3.6058,3.5504,3.5504,0.0,0.0,0.0,3.5504,3.5504,3.5534,3.5968,0.0,3.7225,3.8347,3.943,3.9646,4.0215,4.0967,4.2007,4.2784,4.3715,4.5195,4.5557,4.5972,4.7296,4.7588,4.7804,4.8496,4.862,4.862,4.862,4.862,4.862,4.862,4.862,4.862,4.862,4.862,4.862,0.0,4.862,4.862,4.862,4.862,4.862,4.862,4.862,4.862,4.862,4.862,4.8296,4.7619,4.6942,4.6249,4.5572,4.5124,4.4874,4.4911,4.5092,4.4403,4.3078,4.3078,4.2388,4.129,4.129,4.1423,4.1588,4.1588,4.1573,4.1557,4.1541,4.0245,3.8477,0.0,0.0,0.0,1.5721,1.6235,1.6782,1.7508,1.9412,2.098,2.1419,2.2579,0.0,0.0,0.0,0.0,0.0,2.827,2.976,3.0364,3.2291,3.3513,3.3896,3.391,3.391,3.3993,3.4197,3.4283,3.4336,3.4551,3.4852,3.5229,3.5229,3.5546,3.607,3.607,3.6152,3.6299,3.5892,3.5918,3.6108,3.5231,3.4924,3.4951,3.4495,3.4189,3.4036,0.0,0.0,0.0,0.0,3.5504,3.5504,3.5504,0.0,0.0,3.7105,3.8417,3.9625,3.9839,4.0481,4.1315,4.2272,4.3005,4.3727,4.471,4.5264,4.5711,4.6172,4.6619,4.7142,4.7819,4.7942,4.8096,4.8543,4.862,4.862,4.862,4.862,4.862,4.862,4.862,0.0,0.0,0.0,0.0,4.862,4.862,4.862,4.862,4.862,4.862,4.862,4.862,4.8322,4.7806,4.7126,4.6524,4.5996,4.5516,4.5241,4.5092,4.5331,4.4565,4.3114,4.3255,4.2542,4.1323,4.1456,4.1555,4.1588,4.1588,4.1588,4.1588,4.1588,4.0877,3.9819,0.0,0.0,0.0,0.0,0.0,0.0,0.0,0.0,0.0,0.0,0.0,0.0,0.0,0.0,0.0,0.0,0.0,2.7432,2.8459,3.0122,3.1292,3.1902,3.183,3.178,3.178,3.2019,3.2354,3.2729,3.2996,3.3536,3.4269,3.4427,3.4832,3.5435,3.5501,3.5676,3.5976,3.5436,3.5506,3.5875,3.4798,3.4432,3.4436,3.3786,3.341,0.0,0.0,0.0,0.0,0.0,0.0,0.0,0.0,0.0,3.6342,3.7248,3.8537,3.9768,4.0031,4.0695,4.151,4.2396,4.3094,4.3793,4.4471,4.491,4.5295,4.5464,4.5824,4.6407,4.7232,4.7441,4.7712,4.8388,4.8537,4.862,4.862,4.862,4.862,4.862,4.862,4.862,0.0,0.0,0.0,4.862,4.862,4.862,4.862,4.862,4.862,4.862,4.862,4.8363,4.7886,4.7245,4.6594,4.5956,4.5645,4.5478,4.5405,4.5552,4.4782,4.3306,4.3446,4.2714,4.1423,4.1555,4.1588,4.1588,4.1588,4.1588,4.1588,4.1588,4.132,4.0862,0.0,0.0,0.0,0.0,0.0,0.0,0.0,0.0,0.0,0.0,0.0,0.0,0.0,0.0,0.0,0.0,0.0,0.0,2.6556,2.7222,0.0,2.8603,2.8394,2.8263,2.8263,2.895,2.9809,3.085,3.1531,3.2398,3.3457,3.3825,3.4371,3.5017,3.5149,3.5692,3.6456,3.548,3.5238,3.544,3.4857,3.425,3.3747,3.3978,0.0,0.0,0.0,0.0,0.0,0.0,0.0,0.0,0.0,0.0,3.7499,3.7684,3.8672,3.9803,4.0156,4.0771,4.1464,4.2396,4.3063,4.3747,4.4418,4.4572,4.4718,4.5131,4.5229,4.5563,0.0,0.0,4.7461,4.8133,4.8438,4.862,4.862,4.862,4.862,0.0,0.0,0.0,0.0,0.0,0.0,4.862,4.862,4.862,4.862,4.862,4.862,4.862,4.8573,4.8317,4.788,4.7207,4.6406,4.5515,4.5515,4.5625,4.5807,4.5776,4.5017,4.3687,4.3655,4.2884,4.1588,4.1588,4.1588,4.1588,4.1588,4.1588,4.1588,4.1588,4.1588,4.1494,0.0,0.0,0.0,0.0,0.0,0.0,0.0,0.0,0.0,0.0,0.0,0.0,0.0,0.0,0.0,0.0,0.0,0.0,0.0,0.0,0.0,0.0,2.794,2.794,2.794,2.8116,2.8342,2.8618,2.879,2.9221,2.9905,3.0002,3.0363,3.0979,3.0993,3.117,3.139,3.1795,3.2225,3.2612,0.0,3.2293,3.2515,0.0,0.0,0.0,0.0,0.0,0.0,0.0,0.0,0.0,0.0,3.7479,3.8153,3.8207,3.9033,3.996,4.0031,4.0384,4.1008,4.2273,4.274,4.3119,4.4121,4.4396,4.4366,4.4356,4.4308,4.4567,0.0,0.0,0.0,4.7446,4.8116,0.0,4.862,4.862,0.0,4.862,0.0,4.862,4.862,4.862,0.0,0.0,4.862,4.862,4.862,4.862,4.862,4.862,4.8127,4.7688,4.7364,4.6501,4.5971,4.5735,4.5735,4.5735,4.5792,4.5238,4.4527,4.3655,4.3184,4.2426,4.1588,4.1588,4.1588,4.1588,4.1588,4.1588,4.1588,4.1588,4.1588,4.1573,0.0,0.0,0.0,0.0,0.0,0.0,0.0,0.0,0.0,0.0,0.0,0.0,0.0,0.0,0.0,0.0,0.0,0.0,0.0,0.0,0.0,2.4872,2.4809,2.4998,2.5408,2.5613,2.6045,0.0,0.0,0.0,0.0,2.808,2.8461,2.9004,2.9016,2.9207,2.9533,2.9894,0.0,0.0,0.0,0.0,0.0,0.0,0.0,0.0,0.0,0.0,0.0,0.0,0.0,3.7793,3.7494,3.8063,3.8781,3.8587,0.0,3.9889,3.996,4.0137,4.0618,4.1994,4.2346,4.257,4.3533,4.3968,4.4013,4.3531,4.3674,0.0,4.4614,4.5505,4.6392,0.0,0.0,0.0,4.862,4.862,4.862,0.0,4.862,0.0,4.862,4.862,4.862,0.0,4.862,4.862,4.862,4.862,4.862,4.862,4.7958,4.7327,4.6779,4.6033,4.5698,4.5807,4.5807,4.5807,4.5807,4.5381,4.4654,4.3671,4.3311,4.2552,4.1588,4.1588,4.1588,4.1588,4.1588,4.1588,4.1588,4.1588,4.1588,4.1588,0.0,0.0,0.0,0.0,0.0,0.0,0.0,0.0,0.0,0.0,0.0,0.0,0.0,0.0,0.0,0.0,0.0,0.0,0.0,0.0,0.0,2.123,2.1159,2.1525,2.2394,2.2878,2.3811,0.0,0.0,0.0,0.0,0.0,0.0,0.0,0.0,0.0,0.0,0.0,0.0,0.0,0.0,0.0,0.0,0.0,0.0,0.0,0.0,0.0,0.0,0.0,3.7661,3.8571,3.8093,3.8676,3.9439,3.9033,3.9305,3.9732,3.9925,4.0021,4.0436,4.168,4.1999,4.2166,4.2796,4.3327,4.3501,4.2801,0.0,4.3672,4.4103,4.5102,4.6108,4.6776,0.0,4.8512,4.8604,4.862,4.862,4.862,4.862,4.862,4.862,4.862,4.862,4.862,4.862,4.862,4.862,4.862,4.8527,4.8358,4.7721,4.6925,4.604,4.5687,4.5589,4.5771,4.5771,4.5807,4.5807,4.5618,4.4875,4.3671,4.3482,4.2742,4.1588,4.1588,4.1588,4.1588,4.1588,4.1588,4.1588,4.1588,4.1588,4.1588,0.0,0.0,0.0,0.0,0.0,0.0,0.0,0.0,0.0,0.0,1.5453,1.6154,0.0,0.0,0.0,0.0,0.0,0.0,0.0,0.0,0.0,0.0,2.1712,2.2208,2.2394,2.3237,0.0,0.0,0.0,0.0,0.0,0.0,0.0,0.0,0.0,0.0,0.0,0.0,0.0,0.0,0.0,0.0,0.0,0.0,0.0,0.0,0.0,0.0,0.0,0.0,3.7772,4.0127,4.0561,4.0487,4.0202,4.0119,3.992,3.9717,3.9732,4.0283,4.1013,4.1802,4.1999,4.2129,4.2621,4.241,0.0,0.0,4.2524,4.2809,4.3389,4.4408,4.5409,4.6077,4.7058,4.7973,4.8543,4.862,4.862,0.0,4.862,4.862,4.862,4.862,0.0,0.0,4.862,4.862,4.862,4.862,4.8096,4.6988,4.6437,4.5866,4.5135,4.5378,4.5515,4.5552,4.5698,4.5807,4.5776,4.4571,4.3908,4.3624,4.2473,0.0,4.1588,4.1588,4.1588,4.1588,4.1588,4.1588,4.1588,4.1588,4.1588,4.1588,0.0,0.0,0.0,0.0,0.0,0.0,0.0,1.481,1.5141,1.5251,1.569,1.6163,1.6646,1.6958,1.7145,0.0,0.0,0.0,0.0,0.0,0.0,0.0,0.0,2.0773,2.1221,0.0,0.0,0.0,0.0,0.0,0.0,0.0,0.0,0.0,0.0,0.0,0.0,0.0,0.0,0.0,0.0,0.0,0.0,0.0,0.0,0.0,0.0,0.0,0.0,0.0,3.7492,3.9078,3.9073,3.9267,3.9513,3.9141,3.9093,3.9146,3.9146,3.98,4.0503,4.071,4.1501,4.2031,4.1418,0.0,0.0,0.0,4.2171,4.259,4.317,4.4163,0.0,4.587,4.6809,4.7727,4.847,4.862,0.0,4.862,4.862,4.862,0.0,4.862,4.862,4.862,4.862,4.862,4.862,4.8281,4.7635,4.6634,4.6043,4.5479,4.4927,4.5077,4.5278,4.5515,4.5589,4.5698,4.5776,4.4717,4.4018,4.3624,4.2616,4.1936,4.1588,4.1588,4.1588,4.1588,4.1588,4.1588,4.1588,4.1588,4.1588,4.1588,0.0,0.0,0.0,0.0,0.0,0.0,0.0,1.5148,1.5555,1.5757,1.6051,1.6271,1.6508,1.6954,1.7239,0.0,0.0,0.0,0.0,0.0,0.0,0.0,0.0,0.0,0.0,0.0,0.0,0.0,0.0,0.0,0.0,0.0,0.0,0.0,0.0,0.0,0.0,0.0,0.0,0.0,0.0,0.0,0.0,0.0,0.0,0.0,0.0,0.0,0.0,0.0,3.6579,3.7036,3.6538,3.7388,3.8536,3.8145,3.8204,3.8431,3.8557,3.9254,3.9871,3.9633,4.072,4.147,4.027,4.0979,0.0,4.1489,4.1946,4.259,4.317,4.3938,4.481,0.0,4.6605,4.7436,4.8455,4.862,4.862,0.0,4.862,0.0,4.862,4.862,0.0,4.862,4.862,4.862,4.862,4.7835,4.7142,4.6619,4.5803,4.5187,4.4836,4.4874,4.5077,4.5352,4.5478,4.551,4.5482,4.4792,4.4132,4.3469,4.2758,4.2126,4.1588,4.1588,4.1588,4.1588,4.1588,4.1588,4.1588,4.1588,4.1588,4.1588,0.0,0.0,0.0,0.0,0.0,0.0,0.0,1.5215,1.5449,1.5785,1.6239,1.6546,1.6593,1.6857,1.7113,0.0,0.0,0.0,0.0,0.0,0.0,0.0,0.0,0.0,0.0,0.0,0.0,0.0,0.0,0.0,0.0,0.0,0.0,0.0,0.0,0.0,0.0,0.0,0.0,0.0,0.0,0.0,0.0,0.0,0.0,0.0,0.0,0.0,0.0,0.0,0.0,3.4699,3.4647,3.6185,3.8072,3.8579,0.0,0.0,3.8486,3.9129,3.9647,3.962,3.9718,3.9894,3.9993,0.0,4.0446,4.1232,4.1946,4.259,4.317,4.3563,4.4267,4.5779,0.0,4.69,4.8394,4.862,4.862,4.862,0.0,0.0,4.862,4.862,4.862,4.862,4.862,4.862,4.862,4.7388,4.6665,4.6603,4.5341,4.4671,4.461,4.4799,4.4911,4.4949,4.5315,4.517,4.4495,4.4015,4.3421,4.2742,4.2015,4.1652,0.0,4.1588,4.1588,4.1588,4.1588,4.1588,4.1588,4.1588,4.1588,4.1588,0.0,0.0,0.0,0.0,0.0,0.0,1.5319,1.5281,1.5352,1.5711,1.5968,1.6246,1.6567,1.6831,1.7066,1.7279,0.0,0.0,0.0,0.0,0.0,0.0,0.0,0.0,0.0,0.0,0.0,0.0,0.0,0.0,0.0,0.0,0.0,0.0,0.0,0.0,0.0,0.0,0.0,0.0,0.0,0.0,0.0,0.0,0.0,0.0,0.0,0.0,0.0,0.0,0.0,0.0,3.416,3.4737,0.0,0.0,3.6988,3.7362,3.7591,3.8453,3.9251,3.8735,3.9408,3.9985,3.9159,0.0,4.0695,4.1067,4.1813,4.259,4.317,4.3384,4.3858,4.5032,4.5718,4.6539,4.7676,4.8275,4.862,4.862,4.862,0.0,0.0,0.0,4.862,4.862,4.862,4.8435,4.8035,4.7111,4.6419,4.6003,4.5064,4.461,4.461,4.4685,4.4761,4.4911,4.473,4.4554,4.4385,4.351,4.2932,4.2647,4.1904,4.1588,0.0,4.1588,4.1588,4.1588,4.1588,4.1588,4.1588,4.1588,4.1588,4.1588,0.0,0.0,0.0,0.0,0.0,1.5228,1.5454,1.544,1.5576,1.5881,1.604,1.6318,1.6662,1.6925,1.7196,1.7417,1.7337,0.0,0.0,0.0,0.0,0.0,0.0,0.0,0.0,0.0,0.0,2.4365,0.0,0.0,0.0,0.0,0.0,0.0,0.0,0.0,0.0,0.0,0.0,0.0,0.0,0.0,0.0,0.0,0.0,0.0,0.0,0.0,0.0,0.0,0.0,0.0,0.0,0.0,0.0,0.0,3.5935,3.6687,3.6959,3.7886,3.8671,3.807,3.8877,3.9557,0.0,3.9634,4.0884,4.0995,4.1888,4.2791,4.32,4.329,4.3594,4.4564,4.539,4.6244,4.716,4.7983,4.8537,0.0,0.0,4.862,4.862,4.862,4.862,4.862,4.8435,4.8019,4.7342,4.6665,4.608,4.5603,4.4926,4.461,4.461,4.461,4.4555,4.4489,4.4215,4.3961,4.3717,4.3018,4.2568,4.2331,4.181,4.1588,0.0,4.1588,4.1588,4.1588,4.1588,4.1588,4.1588,4.1588,4.1588,4.1588,0.0,0.0,0.0,0.0,0.0,0.0,1.5304,1.5756,1.609,1.6464,1.6779,1.6979,1.6979,1.72,1.741,1.7786,1.7468,0.0,0.0,0.0,0.0,0.0,0.0,0.0,0.0,0.0,2.4844,2.5664,2.5273,2.5293,0.0,0.0,0.0,0.0,0.0,0.0,0.0,0.0,0.0,0.0,0.0,0.0,0.0,0.0,0.0,0.0,0.0,0.0,0.0,0.0,0.0,0.0,0.0,0.0,0.0,0.0,3.5561,3.5989,3.6797,3.7442,3.79,3.79,3.79,3.8003,3.8256,3.9485,4.0675,4.096,4.2216,4.329,4.329,4.329,4.3594,4.4564,4.5268,4.6096,4.716,4.7873,4.837,0.0,0.0,4.862,4.862,4.862,4.862,4.862,4.8004,4.7327,4.665,4.5957,4.5603,4.5588,4.4926,4.461,4.461,4.461,4.4286,4.3624,4.3925,4.3426,4.215,4.2509,4.2284,4.1604,4.1588,4.1588,0.0,4.1588,4.1588,4.1588,4.1588,4.1588,4.1588,4.1588,4.1588,4.1588,0.0,0.0,0.0,0.0,0.0,0.0,0.0,1.5627,1.5906,1.6435,1.6593,1.6736,1.6958,1.72,1.741,1.7786,1.7721,0.0,0.0,0.0,0.0,0.0,0.0,0.0,0.0,0.0,2.5,2.5283,2.5449,2.5752,2.6172,2.5732,0.0,0.0,0.0,0.0,0.0,0.0,0.0,0.0,0.0,0.0,0.0,0.0,0.0,0.0,0.0,0.0,0.0,0.0,0.0,0.0,0.0,0.0,0.0,0.0,0.0,0.0,3.5739,3.6253,3.6671,3.6671,3.6985,3.7323,3.7382,3.8583,3.9669,3.9737,4.1195,4.2415,4.2415,4.2915,4.3554,4.4293,4.5131,0.0,4.6732,0.0,0.0,4.837,4.8537,4.862,0.0,0.0,4.862,4.862,4.7989,4.7311,4.6634,4.5957,4.5372,4.4949,4.4733,4.4394,4.3932,4.3932,4.3593,4.291,4.2653,4.2365,4.2103,4.1839,4.171,4.1588,4.1588,4.1588,4.1588,4.1588,4.1588,4.1588,4.1588,4.1588,4.1588,4.1588,4.1588,4.1588,0.0,0.0,0.0,0.0,0.0,0.0,0.0,1.5756,1.6053,1.6406,1.6666,1.6889,1.7091,1.7348,1.76,1.7969,1.8108,0.0,0.0,0.0,0.0,0.0,0.0,0.0,0.0,2.4581,2.5478,2.5801,2.5928,2.6201,2.6621,2.6182,2.5849,2.5664,0.0,0.0,0.0,0.0,0.0,0.0,0.0,0.0,0.0,0.0,0.0,0.0,0.0,0.0,0.0,0.0,0.0,0.0,0.0,0.0,0.0,0.0,3.4067,3.4487,0.0,3.5691,3.6109,3.6109,3.6554,3.6998,3.6998,3.8154,3.921,3.921,4.0689,4.199,4.199,4.2699,4.3424,4.3828,4.4843,4.5703,0.0,0.0,0.0,4.8412,0.0,0.0,0.0,4.862,4.8512,4.825,4.7604,4.6927,4.6249,4.5572,4.4933,4.4255,4.424,4.4024,4.3608,4.3362,4.2879,4.2217,4.1933,4.1752,4.1591,4.1325,4.1339,4.1489,4.1489,4.1522,0.0,4.1588,4.1588,4.1588,4.1588,4.1588,4.1588,4.1588,4.1588,4.1588,0.0,0.0,0.0,0.0,0.0,0.0,0.0,1.5951,1.6374,1.6404,1.6899,1.7279,1.7279,1.7571,1.7947,1.8277,0.0,0.0,0.0,0.0,0.0,0.0,0.0,0.0,0.0,2.5284,2.6172,2.6973,2.6582,2.6621,2.7051,2.6572,2.6162,2.5762,2.5332,0.0,0.0,0.0,0.0,0.0,0.0,0.0,0.0,0.0,0.0,0.0,0.0,0.0,0.0,0.0,0.0,0.0,0.0,0.0,0.0,0.0,0.0,0.0,0.0,3.5557,3.5979,3.5979,3.6436,3.6881,3.6881,3.8016,0.0,3.9054,4.0518,4.1811,4.1908,4.2618,4.3225,4.3349,4.4466,0.0,0.0,4.7076,0.0,0.0,4.8573,0.0,4.8543,4.8496,4.8204,4.7588,4.6911,4.6249,4.5618,4.491,4.4255,4.3624,4.3516,4.347,4.347,4.2833,4.2186,4.1524,4.1654,4.1368,4.0799,4.1,4.1153,0.0,4.129,4.1423,4.1588,4.1588,4.1588,4.1588,4.1588,4.1588,4.1588,4.1588,4.1588,4.1588,0.0,0.0,0.0,0.0,0.0,0.0,0.0,0.0,0.0,0.0,1.6729,1.7066,1.7066,1.753,1.7947,0.0,0.0,0.0,0.0,0.0,0.0,0.0,0.0,0.0,0.0,2.5781,2.6338,2.6533,2.6435,2.6777,2.749,2.6396,2.6132,2.668,2.5918,2.5586,0.0,0.0,0.0,0.0,0.0,0.0,0.0,0.0,0.0,0.0,2.6948,2.7129,0.0,0.0,0.0,0.0,0.0,0.0,0.0,0.0,3.3398,3.3552,3.4202,0.0,3.4604,3.476,3.5247,3.5704,0.0,3.6639,3.754,3.754,3.878,4.0073,4.0817,4.1672,4.2699,4.3867,4.4766,4.5552,4.6312,4.746,0.0,4.8578,4.8158,4.785,4.785,4.7373,4.7004,4.685,4.6203,4.5757,4.5603,4.4486,4.3762,4.3608,4.2586,4.2063,4.2063,4.1909,4.1478,4.0751,4.0805,4.0816,4.0799,4.0833,4.0984,4.1153,4.1272,4.1323,4.139,4.1555,4.1588,4.1588,4.1588,4.1588,4.1588,4.1588,4.1588,4.1525,0.0,0.0,0.0,0.0,0.0,0.0,0.0,0.0,0.0,0.0,0.0,1.7026,1.7106,1.7661,0.0,0.0,0.0,0.0,0.0,0.0,0.0,0.0,0.0,0.0,2.5068,2.5937,2.6484,2.668,2.6875,2.7109,2.7353,2.665,2.6308,2.6356,2.5898,2.5693,0.0,0.0,0.0,0.0,0.0,0.0,0.0,0.0,0.0,0.0,2.675,2.6991,0.0,2.8899,2.9761,3.0441,0.0,0.0,0.0,0.0,3.3313,3.3484,3.381,3.4172,3.4506,3.4773,3.5247,3.5665,3.5665,0.0,0.0,0.0,0.0,0.0,3.9956,4.0936,4.2085,4.3588,4.4488,0.0,0.0,0.0,4.7788,4.7686,4.7357,4.7142,0.0,4.6803,4.6465,4.6157,4.5788,4.5449,4.5141,4.4178,4.347,4.314,4.214,4.1601,4.1601,4.1278,4.0874,4.0489,4.0489,4.0558,4.0662,4.0662,4.078,4.095,4.1037,4.1138,4.1205,4.139,4.1456,4.1489,4.1555,4.1588,4.1588,4.1588,4.1399,4.1083,0.0,0.0,0.0,0.0,0.0,0.0,0.0,0.0,0.0,0.0,0.0,0.0,0.0,0.0,0.0,0.0,0.0,0.0,0.0,0.0,0.0,0.0,0.0,2.397,2.5176,2.5967,2.6592,2.7012,2.7393,2.7441,2.7207,2.7012,2.6504,2.5693,2.5762,2.5752,0.0,0.0,0.0,0.0,0.0,0.0,0.0,0.0,0.0,0.0,0.0,0.0,0.0,2.9532,3.0215,3.0531,3.2481,0.0,0.0,0.0,0.0,0.0,3.3785,3.4435,3.509,3.5269,3.5639,3.5979,3.5979,0.0,0.0,0.0,0.0,0.0,0.0,4.0629,0.0,0.0,0.0,0.0,4.632,4.6967,4.7155,4.668,4.6511,0.0,4.6449,4.6342,4.6049,4.548,4.5434,4.5126,4.4502,4.3824,4.3125,4.2479,4.1801,4.1432,4.1432,4.0797,4.0489,4.0489,4.0489,4.0489,4.0489,4.0489,4.0593,4.0765,0.0,0.0,4.1068,4.1239,4.129,4.1323,4.1522,4.1588,4.1573,4.1478,4.1083,4.0577,0.0,0.0,0.0,0.0,0.0,0.0,0.0,0.0,0.0,0.0,0.0,0.0,0.0,0.0,0.0,0.0,0.0,0.0,0.0,0.0,0.0,0.0,2.3047,2.361,2.5538,2.6133,2.6592,2.7012,2.708,2.7451,2.8076,2.6992,2.6211,2.5703,2.6123,2.6084,2.5693,0.0,0.0,0.0,0.0,0.0,0.0,0.0,0.0,0.0,0.0,0.0,0.0,2.9532,3.0215,3.0531,3.2481,0.0,0.0,0.0,0.0,0.0,3.4487,3.5158,3.5613,3.5374,3.5365,3.5417,3.5417,0.0,0.0,0.0,0.0,0.0,0.0,4.1386,4.2336,0.0,0.0,4.6731,0.0,0.0,4.7317,4.668,0.0,4.5741,4.5741,4.5218,4.4849,4.4779,4.4764,4.4471,4.3793,4.311,4.2448,4.1771,4.1063,4.0659,4.0659,4.0551,4.0489,4.0489,4.0489,4.0489,4.0489,4.0489,4.0524,4.0558,0.0,4.0833,4.0867,4.1156,4.129,4.1323,4.1522,4.1588,4.1525,4.0956,4.0688,4.0435,0.0,0.0,0.0,0.0,0.0,0.0,0.0,0.0,0.0,0.0,0.0,0.0,0.0,0.0,0.0,0.0,0.0,0.0,0.0,0.0,0.0,2.3194,2.3335,2.384,2.4815,2.5289,2.561,2.579,2.6872,2.7451,2.7588,2.6768,2.6279,2.6103,2.6299,2.6279,2.6103,2.6328,0.0,0.0,0.0,0.0,0.0,0.0,0.0,0.0,0.0,0.0,0.0,0.0,3.0215,3.0531,3.2481,0.0,0.0,0.0,0.0,0.0,3.4314,3.4977,3.5678,3.6348,3.6343,3.6345,3.6854,3.6988,0.0,0.0,0.0,0.0,0.0,0.0,4.2357,4.4499,4.6164,4.6992,4.6459,4.6794,4.668,4.5634,4.5234,4.5049,4.5049,4.4795,4.461,4.461,4.4271,4.3932,4.3624,4.2617,4.1925,4.1617,4.0858,4.0489,4.0489,4.0489,4.0489,4.0489,4.0489,4.0489,4.0489,4.0489,4.0489,4.0489,0.0,4.0627,4.0662,4.1052,4.1187,4.1221,4.1489,4.1367,4.0925,3.9866,3.9471,3.9329,0.0,0.0,0.0,0.0,0.0,0.0,0.0,0.0,0.0,0.0,0.0,0.0,0.0,0.0,0.0,0.0,0.0,0.0,0.0,0.0,2.1399,2.2835,2.3434,2.3939,2.4452,2.4836,2.5051,2.5153,2.6673,2.7246,2.7012,2.6894,2.6728,2.6543,2.6641,2.6631,2.6553,2.6875,2.707,0.0,0.0,0.0,0.0,0.0,0.0,0.0,0.0,0.0,0.0,0.0,0.0,0.0,0.0,0.0,0.0,3.3246,3.3365,3.3601,3.4037,3.4611,3.5447,3.7059,0.0,3.7245,3.8637,3.8377,0.0,0.0,0.0,0.0,0.0,4.2001,4.2991,4.5203,4.6391,4.6716,4.5757,4.6034,4.5911,4.4764,4.461,4.461,4.461,4.461,4.4548,4.4394,4.3901,4.347,4.3162,4.2155,4.1524,4.1355,4.0782,4.0489,4.0489,4.0489,4.0489,4.0489,4.0489,4.0489,4.0489,4.0489,4.0489,4.0489,4.0489,4.0489,4.0524,4.0932,4.1117,4.1135,4.1472,4.1083,4.0198,3.8965,3.8412,3.8191,0.0,0.0,0.0,0.0,0.0,0.0,0.0,0.0,0.0,0.0,0.0,0.0,0.0,0.0,0.0,0.0,0.0,0.0,0.0,0.0,2.1479,2.3872,2.3094,2.3552,2.5538,2.5616,2.5829,2.6287,2.6455,2.666,2.7031,2.7803,2.7734,2.6992,2.7393,2.7344,2.6973,2.7002,2.7246,0.0,0.0,0.0,0.0,0.0,0.0,0.0,0.0,0.0,0.0,0.0,0.0,0.0,0.0,0.0,3.3066,3.2969,3.2941,3.3181,3.4129,3.4437,3.4934,3.6893,3.6954,3.7233,3.9928,3.9743,0.0,4.0684,0.0,0.0,0.0,4.3769,4.5065,4.606,4.6299,4.618,4.5695,4.5634,4.5387,4.4702,4.461,4.461,4.461,4.461,4.4348,4.3732,4.3639,4.3069,4.1801,4.1648,4.1294,4.0597,4.052,4.0489,4.0489,4.0489,4.0489,4.0489,4.0489,4.0489,4.0489,4.0489,4.0489,4.0489,4.0489,4.0489,4.0524,4.0932,4.1117,4.1135,4.1472,4.0767,3.9487,3.8776,3.8112,3.7573,0.0,0.0,0.0,0.0,0.0,0.0,0.0,0.0,0.0,0.0,0.0,0.0,0.0,0.0,0.0,0.0,0.0,0.0,0.0,0.0,2.179,2.2765,2.387,2.4873,2.5684,2.5069,2.4782,2.4991,2.6193,2.7002,2.7432,2.7744,2.7734,2.7432,2.7598,2.7422,2.7051,2.7588,2.7754,2.7669,0.0,0.0,0.0,0.0,0.0,0.0,0.0,0.0,0.0,0.0,2.8985,2.9366,3.1395,3.2026,3.2072,3.2335,3.2406,3.2525,3.3165,3.3862,3.485,3.6699,3.7243,0.0,0.0,4.0573,4.0712,4.2178,4.2707,0.0,0.0,0.0,4.5485,4.5808,4.6208,4.6278,4.568,4.5588,4.5341,4.4702,4.461,4.4456,4.4024,4.3994,4.3716,4.3017,4.2586,4.2125,4.1632,4.117,4.0782,4.0505,4.0489,4.0489,4.0489,4.0489,4.0489,4.0489,4.0489,4.0489,4.0489,4.0489,4.0489,4.0489,4.0489,4.0489,4.0524,4.0814,4.1,4.1057,4.0511,3.9708,3.8807,3.8128,3.7731,3.751,0.0,0.0,0.0,0.0,0.0,0.0,0.0,0.0,0.0,0.0,0.0,0.0,0.0,0.0,0.0,0.0,0.0,0.0,0.0,2.0232,2.1767,2.2008,2.4262,2.5596,2.5684,2.4878,2.4468,2.4609,2.6095,2.7041,2.7461,2.765,2.7787,2.7861,2.7777,2.75,2.7246,2.7705,2.7725,2.7422,2.6992,0.0,0.0,0.0,0.0,0.0,0.0,0.0,0.0,0.0,2.8254,2.8788,3.0448,0.0,3.1536,3.1735,3.2024,3.2273,3.2619,3.3404,3.4615,3.6487,0.0,0.0,4.0615,4.1115,4.1607,4.3364,4.3771,4.391,4.432,0.0,0.0,4.5234,4.548,4.5557,4.5311,4.508,4.4825,4.4348,4.4079,4.3771,4.3347,4.3264,4.3002,4.234,4.1863,4.1509,4.1278,4.0751,4.0489,4.0489,4.0489,4.0489,4.0489,4.0274,4.0274,4.0489,4.0274,4.029,4.0489,4.0489,4.0489,4.0489,4.0489,4.0489,4.0524,4.073,4.0811,4.0734,3.9582,3.8856,3.8428,3.7733,3.751,3.751,0.0,0.0,0.0,0.0,0.0,0.0,0.0,0.0,0.0,0.0,0.0,0.0,0.0,0.0,0.0,0.0,0.0,0.0,1.7786,1.9729,2.1225,2.1973,2.3982,2.5273,2.5674,2.5303,2.5293,2.5684,2.6172,2.6602,2.7021,2.7461,2.7891,2.8262,2.7904,2.7718,2.7679,2.7197,2.7012,2.6973,2.6553,2.6387,0.0,0.0,0.0,0.0,0.0,0.0,0.0,0.0,2.7287,2.8221,2.9648,0.0,0.0,3.1289,3.1757,3.242,3.2646,3.3117,3.4138,3.6337,0.0,0.0,4.0863,4.1422,4.2015,4.4163,4.427,4.4143,4.4549,4.4055,0.0,4.4502,4.404,4.3824,4.4502,4.4024,4.3593,4.3593,4.2987,4.2602,4.2602,4.2602,4.2309,4.1632,4.1586,4.1278,4.0536,4.0489,4.0489,4.0489,4.0489,4.0489,4.0489,3.9813,3.9813,4.0459,3.9797,3.9828,4.0489,4.0489,4.0489,4.0489,4.0489,4.0489,4.0524,4.0715,4.0567,4.0146,3.8827,3.8401,3.8428,3.7733,3.751,3.751,0.0,0.0,0.0,0.0,0.0,0.0,0.0,0.0,0.0,0.0,0.0,0.0,0.0,0.0,0.0,0.0,0.0,0.0,1.7417,1.8934,2.0243,2.1169,2.3037,2.4431,2.5264,2.5449,2.5449,2.5273,2.6016,2.6455,2.6592,2.7376,2.7568,2.7402,2.7588,2.7386,2.6777,2.6943,2.6846,2.6562,2.6435,2.6387,0.0,0.0,0.0,0.0,0.0,0.0,0.0,0.0,0.0,0.0,2.9349,0.0,0.0,3.074,3.1164,3.172,3.1562,3.2959,3.4654,3.5469,0.0,0.0,0.0,4.1972,0.0,0.0,4.4187,4.4281,4.4534,4.4055,0.0,4.387,4.3325,4.2971,4.3171,4.3017,4.2894,4.2894,4.2725,4.2417,4.194,4.1909,4.1601,4.0858,4.0812,4.072,4.0505,4.0489,4.0489,4.0489,4.0028,3.9782,3.9782,3.9121,3.8908,3.9108,3.8908,3.9382,4.0489,4.0489,4.0489,4.0489,4.0489,4.0228,3.9785,3.9493,3.91,3.8654,3.8403,3.8101,3.7765,3.7589,3.751,3.751,0.0,0.0,0.0,0.0,0.0,0.0,0.0,0.0,0.0,0.0,0.0,0.0,0.0,0.0,0.0,0.0,0.0,0.0,0.0,0.0,2.0087,2.089,2.2849,2.4297,2.5059,2.5508,2.5518,2.5116,2.5781,2.6221,2.6396,2.6914,2.7109,2.7021,2.7119,2.6777,2.6133,2.6211,0.0,0.0,2.5869,2.5869,2.5849,0.0,0.0,0.0,0.0,0.0,0.0,0.0,0.0,0.0,2.8383,0.0,3.07,3.0688,3.1332,3.198,3.2006,3.354,3.5336,3.6091,3.8236,4.0607,4.2372,0.0,0.0,0.0,4.4205,4.4266,4.4218,4.3633,0.0,4.3187,4.2633,4.2309,4.2571,4.2371,4.2202,4.2202,4.1955,4.1632,4.1217,4.117,4.1001,4.052,4.0489,4.0489,4.0489,4.0489,4.0489,4.0489,3.9844,3.949,3.949,3.8585,3.8246,3.8508,3.8231,3.8677,3.969,3.969,3.969,3.969,3.969,3.9459,3.9062,3.858,3.8229,3.7997,3.7902,3.7707,3.751,3.751,3.751,3.751,0.0,0.0,0.0,0.0,0.0,0.0,0.0,0.0,0.0,0.0,0.0,0.0,0.0,0.0,0.0,0.0,0.0,0.0,0.0,0.0,2.0203,2.0821,2.313,2.4639,2.5117,2.5527,2.5537,2.5127,2.5537,2.5937,2.6328,2.6367,2.6572,2.6885,2.6504,2.6084,2.5596,0.0,0.0,2.5057,2.5057,2.5057,2.5057,2.535,0.0,0.0,0.0,0.0,0.0,0.0,0.0,0.0,2.7191,2.8661,3.0445,3.0957,3.1849,3.2803,3.33,3.4607,3.6153,3.7506,3.9236,0.0,4.3423,4.4029,4.4167,4.4213,0.0,4.4029,4.3602,4.2956,4.2525,4.2525,4.194,4.1709,4.234,4.1878,4.1509,4.1509,4.0889,4.0489,4.0489,4.0489,4.0489,4.0489,4.0489,4.0489,4.0489,4.0489,4.0459,4.0397,3.9751,3.94,3.9339,3.8061,3.7707,3.8323,3.7707,3.7738,3.8323,3.8446,3.8508,3.8508,3.8446,3.8415,3.8369,3.7837,3.7732,3.7873,3.74,3.7329,3.751,3.751,3.751,3.751,0.0,0.0,0.0,0.0,0.0,0.0,0.0,0.0,0.0,0.0,0.0,0.0,0.0,0.0,0.0,0.0,0.0,0.0,0.0,0.0,1.8635,2.0261,2.2971,2.4785,2.5528,2.5635,2.5645,2.5596,2.5645,2.5732,2.584,0.0,0.0,2.5966,0.0,2.5635,2.5185,0.0,2.456,2.456,2.456,2.456,2.4607,2.4848,2.475,0.0,0.0,0.0,0.0,0.0,0.0,0.0,2.7758,2.8927,2.9886,3.0393,3.1461,3.2435,3.2228,3.4411,3.6844,3.7374,3.9738,4.2166,4.3228,4.3216,4.3061,4.3433,4.3238,4.2913,4.2833,4.2263,4.1817,4.1817,4.1217,4.0782,4.092,4.0812,4.072,4.072,4.0597,4.0489,4.0489,4.0489,4.0489,4.0489,4.0489,4.0489,4.0489,4.0489,4.0259,3.9721,3.9077,3.8477,3.7938,3.7123,3.6784,3.6923,3.6784,3.6784,3.6969,3.8031,3.8508,3.8477,3.7938,3.7723,3.7661,3.7141,3.7049,3.7202,3.7197,3.7329,3.751,3.751,3.751,3.751,0.0,0.0,0.0,0.0,0.0,0.0,0.0,0.0,0.0,0.0,0.0,0.0,0.0,0.0,0.0,0.0,0.0,0.0,0.0,0.0,1.9754,2.2099,2.361,2.4834,2.5674,2.5693,2.5693,2.5693,2.5693,2.5693,2.5693,0.0,0.0,2.5674,0.0,2.5176,0.0,0.0,2.4111,2.4111,2.4111,2.4157,2.4248,2.4394,2.4441,2.4378,2.4456,0.0,0.0,0.0,0.0,0.0,0.0,0.0,2.942,3.0482,3.1345,3.2057,3.2528,3.4269,3.6367,3.8078,0.0,4.2312,4.2849,4.2529,4.2181,4.2447,4.2544,4.2509,4.2186,4.1848,4.1478,4.114,4.0735,4.0489,4.0489,4.0489,4.0489,4.0489,4.0489,4.0489,4.0489,4.0489,4.0489,4.0489,4.0489,4.0351,4.0028,4.0013,3.9705,3.9046,3.8385,3.7861,3.7507,3.683,3.6492,3.6492,3.6492,3.6492,3.6507,3.7215,3.7538,3.7523,3.7169,3.7015,3.6984,3.6786,3.6831,3.6999,3.715,3.7329,3.751,3.751,3.751,3.751,0.0,0.0,0.0,0.0,0.0,0.0,0.0,0.0,0.0,0.0,0.0,0.0,0.0,0.0,0.0,0.0,0.0,0.0,0.0,1.9101,2.1272,2.3706,2.419,2.4766,2.545,2.5538,2.5538,2.546,2.546,2.5538,2.5693,0.0,0.0,2.5664,0.0,0.0,0.0,0.0,2.3682,2.3682,2.3682,2.3806,2.3984,2.4019,2.4119,2.4206,2.4249,2.4368,2.4497,2.4497,0.0,0.0,0.0,0.0,2.8837,3.0556,3.1241,3.1707,3.2932,3.414,3.5786,3.9028,4.0756,0.0,4.2272,4.1858,4.1417,4.1417,4.1863,4.2078,4.1509,4.1417,4.1217,4.0597,4.0489,4.0489,4.0489,4.0489,4.0489,4.0489,4.0489,4.0489,4.0489,4.0489,4.0489,4.0489,4.0489,4.0197,3.9521,3.949,3.9154,3.8354,3.78,3.7446,3.7323,3.6769,3.6492,3.6492,3.6492,3.6492,3.6492,3.6492,3.6492,3.6492,3.6492,3.6492,3.6523,3.6631,3.6831,3.6999,3.715,3.7329,3.751,3.751,3.751,3.751,0.0,0.0,0.0,0.0,0.0,0.0,0.0,0.0,0.0,0.0,0.0,1.6272,1.6541,1.6831,0.0,0.0,0.0,0.0,1.7279,0.0,0.0,2.1322,2.3316,2.4473,2.459,2.4961,2.4971,2.459,2.459,2.4933,2.5693,2.5693,0.0,2.5654,0.0,0.0,0.0,0.0,2.3179,2.3179,2.3179,2.3364,2.3583,2.3757,2.3988,2.4196,2.4411,2.4454,2.4497,2.4497,2.4583,0.0,0.0,0.0,2.777,2.9894,3.0855,3.1357,3.1915,3.3937,3.6617,0.0,4.0267,4.0464,0.0,0.0,4.0643,0.0,4.0705,4.0735,4.0659,4.0643,4.0597,4.0505,4.0489,4.0489,4.0489,4.0489,4.0489,4.0489,4.0489,4.0489,4.0489,4.0489,4.0489,4.0489,4.0489,4.0197,3.9521,3.949,3.8939,3.7677,3.7554,3.7215,3.663,3.6538,3.6492,3.6492,3.6492,3.6492,3.6492,3.6492,3.6492,3.6492,3.6492,3.6492,3.6523,3.6631,3.6831,3.6999,3.715,3.7329,3.751,3.751,3.751,3.751,0.0,0.0,0.0,0.0,0.0,0.0,0.0,0.0,0.0,0.0,0.0,1.6447,1.6588,1.6831,0.0,0.0,0.0,0.0,1.8102,1.8926,0.0,0.0,0.0,2.3601,2.4368,2.4609,2.4609,2.4414,2.4414,2.4873,2.5693,2.5693,2.5947,0.0,0.0,0.0,0.0,0.0,0.0,2.3091,2.3091,2.3511,2.4061,2.3854,2.4219,2.4718,2.4547,2.4497,2.4497,2.4497,2.4497,2.47,2.5997,0.0,0.0,0.0,3.0326,3.1356,3.2111,3.3564,3.5297,0.0,3.8052,3.8906,3.9787,4.0233,4.0401,4.0489,4.0489,4.0489,4.0489,4.0489,4.0489,4.0489,4.0489,4.0489,4.0489,4.0489,4.0489,4.0489,4.0489,4.0489,4.0489,4.0151,3.992,3.992,3.9582,3.9108,3.8431,3.8385,3.7938,3.6969,3.6938,3.6799,3.6492,3.6492,3.6492,3.6492,3.6492,3.6492,3.6492,3.6492,3.6492,3.6492,3.6492,3.6492,3.6492,3.6569,3.6739,3.7015,3.7044,3.7255,3.751,3.751,3.751,3.751,0.0,0.0,0.0,0.0,0.0,0.0,0.0,0.0,0.0,0.0,0.0,0.0,1.6494,0.0,0.0,0.0,0.0,0.0,1.838,0.0,0.0,0.0,0.0,2.285,2.4036,2.4199,2.4199,2.4092,2.4092,2.4612,2.5693,2.5693,2.6259,0.0,2.6171,2.5488,0.0,0.0,0.0,0.0,2.3305,2.3718,2.4395,2.4219,2.4615,2.5204,2.4838,2.4673,2.4652,2.4538,2.4497,2.4679,2.5688,2.659,0.0,0.0,0.0,3.1667,3.2489,3.3131,3.3781,3.4587,3.5892,3.728,0.0,0.0,4.001,4.0121,4.0194,4.0182,4.0013,4.0259,4.0489,4.0489,4.0489,4.0489,4.0489,4.0489,4.0489,4.0489,4.0489,4.0489,4.0489,4.0043,3.9674,3.949,3.9046,3.84,3.7538,3.7507,3.7184,3.6507,3.6492,3.6492,3.6492,3.6492,3.6492,3.6492,3.6492,3.6492,3.6492,3.6492,3.6492,3.6492,3.6492,3.6492,3.6492,3.6492,3.6693,3.7015,3.7015,3.7211,3.751,3.751,3.751,3.751,0.0,0.0,0.0,0.0,0.0,0.0,0.0,0.0,0.0,0.0,0.0,0.0,1.6224,1.6447,1.673,1.6979,0.0,0.0,0.0,0.0,0.0,0.0,0.0,0.0,0.0,2.3613,2.3613,2.3159,2.3159,2.4027,2.5693,2.5693,2.6631,2.8154,2.6484,2.5488,2.5057,0.0,0.0,0.0,0.0,2.3904,2.4187,2.4866,2.5265,2.5451,2.5224,2.5148,2.5086,2.4652,2.4497,2.4741,2.6034,2.7158,2.8229,0.0,0.0,0.0,3.2646,3.2725,3.2962,3.3738,3.4583,3.5662,0.0,3.8404,3.9125,3.9238,3.9419,3.9351,3.8739,3.9628,4.0489,4.0489,4.0489,4.0489,4.0489,4.0489,4.0489,4.0489,4.0489,4.0489,4.0489,4.0459,4.0166,3.9536,3.9493,3.8893,3.7569,3.7507,3.7184,3.6507,3.6492,3.6492,3.6492,3.6492,3.6492,3.6492,3.6492,3.6492,3.6492,3.6492,3.6492,3.6492,3.6492,3.6492,3.6492,3.6492,3.6693,3.7015,3.7015,3.7211,3.751,3.751,3.751,3.751,0.0,0.0,0.0,0.0,0.0,0.0,0.0,0.0,0.0,0.0,0.0,0.0,0.0,1.7005,1.7099,1.7192,1.72,0.0,0.0,0.0,0.0,0.0,0.0,0.0,0.0,2.3247,2.3247,2.3091,2.3091,2.3695,2.4893,2.5176,2.5635,2.6221,2.6182,2.6064,2.582,2.4394,0.0,0.0,2.3857,2.4091,2.4554,2.4516,2.4826,2.5214,2.4761,2.4571,2.4551,2.4516,2.4497,2.4623,2.5417,2.6744,2.8512,3.1045,3.1696,3.1821,0.0,0.0,3.1834,3.2868,3.3488,3.4245,3.5823,3.6967,3.7828,3.8507,3.8744,3.88,3.8554,3.8908,3.9351,3.9782,3.9844,3.9997,4.0428,4.0489,4.0489,4.0489,4.0489,4.0489,4.0489,4.0105,3.9567,3.8923,3.8477,3.7831,3.6907,3.6861,3.6738,3.6507,3.6492,3.6492,3.6492,3.6492,3.6492,3.6492,3.6492,3.6492,3.6492,3.6492,3.6492,3.6492,3.6492,3.6492,3.6492,3.6492,3.6693,3.7015,3.7015,3.7211,3.751,3.751,3.751,3.751,0.0,0.0,0.0,0.0,0.0,0.0,0.0,0.0,0.0,1.6588,0.0,0.0,0.0,0.0,1.72,1.72,1.7239,1.7606,1.8241,0.0,0.0,0.0,0.0,0.0,0.0,2.3091,2.3091,2.3091,2.3091,2.353,0.0,2.4717,2.501,2.5303,2.5596,2.5889,0.0,0.0,0.0,2.4209,2.4062,2.4173,2.4503,2.4697,2.47,2.4585,2.4549,2.4051,2.3574,2.4194,2.4229,2.4171,2.4946,2.6715,2.9056,3.2005,3.2357,0.0,3.2946,0.0,0.0,0.0,3.2668,3.3311,3.4702,3.5712,3.6678,3.7655,3.7973,3.8027,3.7877,3.7831,3.82,3.9339,3.949,3.9721,4.0397,4.0489,4.0489,4.0489,4.0489,4.0489,4.0489,4.009,3.9551,3.8908,3.8431,0.0,3.6876,3.683,3.6722,3.6507,3.6492,3.6492,3.6492,3.6492,3.6492,3.6492,3.6492,3.6492,3.6492,3.6492,3.6492,3.6492,3.6492,3.6492,3.6492,3.6492,3.6693,3.7015,3.7015,3.7211,3.751,3.751,3.751,3.751,0.0,0.0,0.0,0.0,0.0,0.0,0.0,0.0,1.634,1.6602,0.0,0.0,0.0,0.0,0.0,1.7041,1.7207,1.7326,1.7372,1.8288,0.0,0.0,0.0,0.0,0.0,2.3091,2.3091,2.3091,2.3091,2.352,2.4385,0.0,2.4806,2.5596,2.4748,2.4893,2.5586,2.4709,2.4639,2.5057,2.457,2.417,2.401,2.547,2.4937,2.3597,2.4716,2.3763,2.2235,2.3666,2.3701,2.3349,2.4805,2.7173,2.9966,3.2561,3.3093,0.0,0.0,0.0,0.0,0.0,0.0,0.0,3.3926,3.4758,3.564,3.6718,3.7042,3.7022,3.6583,3.6492,3.7153,3.9105,3.9444,3.9705,4.0397,4.0489,4.0489,4.0489,4.0489,4.0489,4.0489,4.0489,4.0213,3.9536,3.9474,3.8875,3.7569,3.7477,3.7169,3.6507,3.6492,3.6492,3.6492,3.6492,3.6492,3.6492,3.6492,3.6492,3.6492,3.6492,3.6492,3.6492,3.6492,3.6492,3.6492,3.6492,3.6693,3.7015,3.6999,3.7211,3.751,3.751,3.751,3.751,0.0,0.0,0.0,0.0,0.0,1.7367,1.7391,1.7267,1.7176,0.0,0.0,0.0,1.7618,1.7385,1.7287,1.7574,1.7425,1.7917,1.933,1.965,2.0548,2.2227,2.2545,2.2818,2.3091,2.3091,2.3091,2.3091,2.3091,2.3218,2.3452,2.3818,2.4092,2.4336,2.4394,2.4551,2.468,2.3812,0.0,2.456,2.4131,2.4268,2.4734,2.4506,2.4309,2.4004,2.3197,2.2481,2.2091,2.2872,2.2965,2.3208,2.5548,2.7498,2.923,3.0791,3.1436,0.0,3.2429,0.0,0.0,0.0,0.0,0.0,0.0,3.3393,3.4239,3.5085,3.5911,3.6425,3.6304,3.6383,3.683,3.7892,3.8477,3.92,4.0336,4.0489,4.0489,4.0489,4.0489,4.0489,4.0489,4.0489,4.0213,0.0,3.9062,3.8415,3.7554,3.703,3.6676,3.6492,3.6492,3.6492,3.6492,3.6492,3.6492,3.6492,3.6492,3.6492,3.6492,3.6492,3.6492,3.6492,3.6492,3.6492,3.6523,3.66,3.68,3.6999,3.7105,3.727,3.751,3.751,3.751,3.751,0.0,0.0,0.0,1.8819,1.862,1.8304,1.7931,1.7746,1.7697,0.0,0.0,0.0,1.8035,1.7728,1.7611,1.7801,1.7468,1.7963,1.9513,1.996,2.0872,2.2457,2.2916,2.3091,2.3091,2.3091,2.3091,2.3091,2.3091,2.3091,2.3101,2.3398,2.3516,2.3525,2.3725,2.3842,2.3803,2.3305,2.3535,2.415,2.4082,2.4248,2.4521,2.4375,2.4009,2.3469,2.2938,2.2199,2.1596,2.2746,2.328,2.3827,2.6023,2.7232,2.8165,2.9786,3.0474,0.0,0.0,0.0,0.0,0.0,0.0,0.0,3.1959,3.2506,3.3248,3.4495,3.5204,3.58,3.6242,3.6414,3.6722,3.7384,3.8061,3.8893,3.992,4.032,4.0597,4.0905,4.097,4.097,4.097,4.097,4.0693,3.9951,3.957,3.8939,3.7969,3.7015,3.6492,3.6492,3.6492,3.6492,3.6492,3.6492,3.6492,3.6492,3.6492,3.6492,3.6492,3.6492,3.6492,3.6492,3.6492,3.6492,3.6523,3.6739,3.6908,3.6999,3.715,3.7329,3.751,3.751,3.751,3.751,0.0,0.0,2.0238,2.0238,2.0042,1.959,1.8738,1.8383,1.8252,0.0,1.8357,1.8372,1.8408,1.8057,1.7845,1.7918,1.756,1.78,1.8936,1.9758,2.0692,2.1828,2.2643,2.3091,2.3091,2.3091,2.3091,2.3091,2.3091,2.3091,2.3091,2.3091,2.3091,2.3091,2.3091,2.3091,2.3091,2.3091,2.3315,2.375,2.418,2.415,2.3935,2.4705,2.3914,2.2555,2.3316,2.2331,2.1033,2.2994,2.4013,2.4688,2.6023,2.6528,2.699,2.9045,2.9644,0.0,0.0,0.0,0.0,0.0,0.0,0.0,3.193,3.2051,3.2563,3.4259,3.4743,3.5154,3.6116,3.6352,3.666,3.7228,3.7983,3.8721,3.9382,4.0074,4.0751,4.1509,4.1601,4.1632,4.1694,4.1632,4.134,4.0659,4.0397,3.9721,3.8477,3.7184,3.6492,3.6492,3.6492,3.6492,3.6492,3.6492,3.6492,3.6492,3.6492,3.6492,3.6492,3.6492,3.6492,3.6492,3.6492,3.6523,3.6554,3.6877,3.7015,3.7015,3.718,3.7329,3.751,3.751,3.751,3.751,0.0,2.1515,2.1676,2.1676,2.1668,2.1276,2.015,1.9996,1.9687,1.8824,1.8694,1.8796,1.906,1.8328,1.8028,1.8555,1.7816,1.817,2.0213,2.0266,2.1006,2.2731,2.3003,2.3091,2.3091,2.3091,2.3091,2.3091,2.3091,2.3091,2.3091,2.3091,2.3091,2.3091,2.3091,2.3091,2.3091,2.3091,2.314,2.3257,2.374,2.4062,2.4277,2.4102,2.3845,2.3371,2.2436,2.1848,2.1606,2.2403,2.3387,2.4346,2.4805,2.5402,2.6109,2.6699,2.741,2.8246,2.9588,2.9903,0.0,0.0,3.1156,0.0,3.1224,3.1663,3.2218,3.2563,3.3719,3.4728,3.4927,3.5591,3.6146,3.6268,3.7432,3.8622,3.9398,4.0074,4.0751,4.1509,4.1601,4.1817,4.2355,4.1925,4.154,4.1401,3.9847,3.8554,3.7738,3.6938,3.6492,3.6492,3.6492,3.6492,3.6492,3.6492,3.6492,3.6492,3.6492,3.6492,3.6492,3.6492,3.6492,3.6492,3.6492,3.6554,3.6693,3.6908,3.7015,3.7045,3.7331,3.748,3.751,3.751,3.751,3.751,2.2533,2.2926,2.3085,2.3085,2.3085,2.2524,2.0899,2.0672,2.038,1.9428,1.9279,1.9279,1.9279,1.8694,1.8364,1.8533,1.8101,1.8348,1.9663,2.0201,2.1029,2.2334,2.2862,2.3091,2.3091,2.3091,2.3091,2.3091,2.3091,2.3091,2.3091,2.3091,2.3091,2.3091,2.3091,2.3091,2.3091,2.3091,2.3091,2.313,2.3613,2.3916,2.4082,2.3867,2.3789,2.3686,2.2751,2.2467,2.2643,2.2862,2.3527,2.4206,2.4335,2.4733,2.5263,2.5788,2.6359,2.7058,2.8136,2.8821,2.9381,3.005,3.0545,0.0,0.0,3.1296,3.1676,3.2146,3.2918,3.365,3.4061,3.4547,3.4846,3.4846,3.5889,3.6918,3.7703,3.9375,4.0751,4.1509,4.1909,4.2109,4.2109,4.2109,4.1817,4.1109,3.9801,3.8723,3.8046,3.7353,3.6846,3.6507,3.6492,3.6492,3.6492,3.6492,3.6492,3.6492,3.6492,3.6492,3.6492,3.6492,3.6492,3.6492,3.6492,3.6585,3.6723,3.6908,3.703,3.7135,3.7391,3.751,3.751,3.751,3.751,3.751,2.3881,2.4245,2.4402,2.4402,2.4402,2.3741,2.1785,2.154,2.1134,2.0152,1.9878,1.9713,1.9448,1.9074,1.8825,1.8686,1.8445,1.8563,1.913,2.0149,2.1072,2.1897,2.2685,2.314,2.3218,2.314,2.3091,2.3091,2.3091,2.3091,2.3091,2.3135,2.3188,2.3188,2.3222,0.0,0.0,0.0,0.0,2.312,2.3525,2.3662,2.3672,2.376,2.374,2.3623,2.3218,2.3232,2.3406,2.3503,2.3764,2.4077,2.4163,2.4292,2.4583,2.5337,2.5663,2.5997,2.6976,2.7867,2.8624,2.9005,2.9665,3.0241,0.0,0.0,0.0,3.1709,3.2146,3.2577,0.0,3.3498,0.0,3.3602,0.0,0.0,0.0,3.7992,0.0,4.1258,4.2001,4.2248,4.1832,4.2048,4.174,4.0582,3.9751,3.9059,3.8539,3.7861,3.7184,3.6507,3.6492,3.6492,3.6492,3.6492,3.6492,3.6492,3.6492,3.6492,3.6492,3.6492,3.6492,3.6492,3.6492,3.6616,3.6754,3.6938,3.7105,3.7254,3.7435,3.751,3.751,3.751,3.751,3.751,2.5402,2.5479,2.5528,2.5528,2.5528,2.5118,2.3939,2.3741,2.3003,2.1043,2.0197,1.9808,1.9764,1.9418,1.9433,1.9913,1.8964,1.8902,2.0413,2.0626,2.1308,2.26,2.2945,2.3276,2.3711,2.3286,2.3091,2.3091,2.3091,2.3091,2.3101,2.3319,2.345,2.346,2.3624,2.3624,2.345,2.345,2.3319,2.3101,2.3149,2.3169,2.3208,2.3643,2.3545,2.3159,2.311,2.3135,2.3188,2.3416,2.3547,2.3634,2.4067,2.4206,2.4292,2.4572,2.4658,2.4903,2.5955,2.6359,2.6678,2.7711,2.8203,2.8414,2.8414,0.0,2.9896,2.9999,0.0,3.2146,0.0,0.0,0.0,0.0,0.0,0.0,3.4675,3.564,3.7405,4.027,4.1278,4.1925,4.2448,4.1447,4.0659,4.0505,3.9339,3.8585,3.8508,3.7861,3.7184,3.6507,3.6492,3.6492,3.6492,3.6492,3.6492,3.6492,3.6492,3.6492,3.6492,3.6492,3.6492,3.6492,3.6492,3.6677,3.6969,3.6984,3.7181,3.748,3.748,3.751,3.751,3.751,3.751,3.751,2.5654,2.5693,2.5693,2.5693,2.5693,2.5323,2.4245,2.3919,2.3418,2.2331,2.1541,2.1079,2.1079,2.0166,1.9667,1.9938,1.963,1.945,1.9607,2.0311,2.1078,2.1951,2.2355,2.2957,2.3789,2.3315,2.3091,2.3091,2.3276,2.3319,2.3319,2.358,2.3667,2.3677,2.4068,2.4145,2.4057,2.3978,2.3836,2.3683,2.3286,2.3091,0.0,2.334,2.3257,2.3091,2.3091,2.3091,2.3135,0.0,2.3363,0.0,0.0,0.0,0.0,2.4249,0.0,0.0,2.5031,2.5547,2.6069,2.6678,2.729,2.7775,2.7884,2.8283,2.877,2.9408,0.0,0.0,0.0,0.0,0.0,0.0,3.2318,0.0,0.0,0.0,3.554,3.8202,0.0,0.0,4.1254,4.0474,4.0074,4.0459,3.9598,3.8923,3.8539,3.8246,3.76,3.6522,3.6492,3.6492,3.6492,3.6492,3.6492,3.6492,3.6492,3.6492,3.6492,3.6492,3.6492,3.6492,3.6492,3.6677,3.7015,3.7015,3.7211,3.751,3.751,3.751,3.751,3.751,3.751,3.751,2.5664,0.0,2.5693,2.5693,2.5693,2.5469,2.4808,2.4149,2.3739,2.3729,2.297,2.2486,2.2637,2.1371,2.0587,2.0677,2.0364,1.9974,1.936,2.0197,2.1049,2.1801,2.2176,2.2888,2.3955,2.358,2.3306,2.3188,2.345,2.359,2.359,2.3807,2.3894,2.3947,2.4314,2.4527,2.4604,2.4436,2.4346,2.4227,2.3713,2.3418,2.3276,2.3135,2.3091,2.3091,2.3091,2.3091,2.3091,2.3091,2.3232,0.0,2.3503,2.358,2.3754,0.0,0.0,0.0,2.4368,0.0,2.5421,2.5631,2.6246,2.6812,2.6953,2.7238,2.7683,2.8442,2.9045,0.0,0.0,0.0,0.0,0.0,0.0,3.1408,0.0,3.2577,0.0,0.0,0.0,0.0,0.0,3.9137,3.9241,4.0151,3.9413,3.8831,3.8523,3.8338,3.7707,3.6538,3.6492,3.6492,3.6492,3.6492,3.6492,3.6492,3.6492,3.6492,3.6492,3.6492,3.6492,3.6492,3.6492,3.6677,3.7015,3.6938,3.7151,3.748,3.7435,3.7435,3.751,3.751,3.751,3.751,2.5606,2.5693,2.5693,2.5693,2.5693,2.583,2.6249,2.5038,2.4359,2.5207,2.4298,2.3742,2.4164,2.3122,2.2553,2.2847,2.1239,2.03,2.064,2.0666,2.138,2.2886,2.2823,2.3299,2.4348,2.4201,2.3875,2.3503,2.3667,2.3797,2.3797,2.4067,2.4206,2.4206,2.4389,2.4646,2.489,2.488,2.4747,2.4504,2.445,2.4179,2.3711,0.0,2.3091,2.3091,2.3091,0.0,0.0,2.3091,2.3101,0.0,0.0,0.0,0.0,0.0,0.0,0.0,0.0,0.0,0.0,2.4497,2.4786,2.4988,2.4988,2.5799,2.6554,2.6595,2.8084,2.9408,0.0,0.0,0.0,0.0,0.0,0.0,0.0,0.0,0.0,0.0,0.0,0.0,0.0,3.7237,3.7897,0.0,3.8323,3.7846,3.8477,3.7892,3.7215,3.6507,3.6492,3.6492,3.6492,3.6492,3.6492,3.6492,3.6492,3.6492,3.6492,3.6492,3.6492,3.6492,3.6492,3.6677,3.6969,3.68,3.7029,3.748,3.73,3.7329,3.751,3.751,3.751,3.751,0.0,0.0,2.5693,2.5693,2.5693,2.5732,2.5937,2.5768,2.5798,2.6413,2.5481,2.5038,2.5694,2.455,2.3513,2.3055,2.3133,2.2837,2.1977,2.2649,2.3554,2.4546,2.3999,2.4139,2.5245,2.448,2.4024,2.3875,2.3991,2.4067,2.4067,0.0,0.0,0.0,2.4774,2.5001,2.5122,2.5296,0.0,0.0,0.0,2.3928,2.3797,0.0,2.3493,2.3363,2.3363,2.3232,0.0,2.3091,2.3232,2.3373,2.3276,2.3363,2.3503,2.359,2.358,2.3667,0.0,0.0,2.4206,2.4282,2.4454,2.4625,2.4625,2.4903,2.539,2.608,2.725,2.8347,2.9069,0.0,0.0,0.0,0.0,0.0,0.0,0.0,0.0,0.0,0.0,0.0,0.0,0.0,0.0,3.8586,3.795,0.0,3.7831,3.7631,3.7184,3.6507,3.6492,3.6492,3.6492,3.6492,3.6492,3.6492,3.6492,3.6492,3.6492,3.6492,3.6492,3.6492,3.6492,3.6677,3.6984,3.6938,3.7151,3.748,3.7435,3.7435,3.751,3.751,3.751,3.751,2.5713,2.5693,2.5693,2.5693,2.5693,2.5742,2.5947,2.6211,2.6592,2.7168,2.6659,2.6436,2.7058,2.5901,2.4861,2.4292,2.4514,2.4293,2.3351,2.3921,2.4667,2.5555,2.4946,2.4908,2.5693,2.5184,2.4705,2.4237,2.4442,2.4446,0.0,0.0,0.0,0.0,2.4817,2.5034,2.522,2.5585,2.5423,0.0,0.0,2.4057,0.0,0.0,2.3841,2.3634,0.0,2.3493,2.3363,2.3363,2.345,2.358,2.3406,2.345,2.359,2.3503,2.3503,2.3547,2.3667,2.3807,0.0,2.4163,2.4292,0.0,2.4497,2.4497,2.47,2.539,2.6577,2.7706,2.8398,0.0,0.0,0.0,0.0,0.0,0.0,3.0986,0.0,0.0,0.0,0.0,0.0,0.0,3.6451,3.7534,3.7544,0.0,0.0,3.7277,3.6953,3.6507,3.6492,3.6492,3.6492,3.6492,3.6492,3.6492,3.6492,3.6492,3.6492,3.6492,3.6492,3.6492,3.6492,3.6647,3.6908,3.6908,3.7075,3.7405,3.7405,3.7435,3.751,3.751,3.751,3.751,2.5771,2.5703,2.5732,2.5742,2.5713,2.584,2.6328,2.6387,2.6689,2.7529,2.7708,2.7822,2.8252,2.7295,2.6581,2.6527,2.5507,2.4837,2.4782,2.462,2.4968,2.5968,2.5678,2.5628,2.5801,2.6295,2.5883,2.4605,2.4999,0.0,0.0,0.0,0.0,0.0,2.4497,0.0,2.521,2.5699,2.5637,2.5179,2.4693,2.4497,2.4497,2.4497,2.4239,2.3841,2.3841,2.3797,2.3797,2.3797,2.3797,2.3841,2.3797,2.3797,2.3797,2.358,2.3503,2.3503,2.3503,2.3503,2.359,2.4067,2.4153,0.0,0.0,0.0,2.4497,0.0,2.6049,2.7424,0.0,0.0,0.0,0.0,0.0,0.0,0.0,0.0,0.0,0.0,0.0,0.0,0.0,3.4583,3.594,3.6339,3.7044,0.0,0.0,3.6846,3.6492,3.6492,3.6492,3.6492,3.6492,3.6492,3.6492,3.6492,3.6492,3.6492,3.6492,3.6492,3.6492,3.6492,3.6492,3.6585,3.6693,3.6693,3.6892,3.7194,3.7194,3.7329,3.751,3.751,3.751,3.751,2.5713,2.5996,2.6318,2.6631,2.6113,2.584,2.6328,2.6387,2.6582,2.7109,2.7461,2.7822,2.8252,2.8014,2.7466,2.6581,2.7015,2.7015,2.6073,2.6805,2.7412,2.7689,2.7295,2.7227,2.7456,2.6852,2.6431,2.6286,2.555,0.0,2.5003,0.0,0.0,0.0,0.0,2.4755,2.521,2.5699,2.5813,2.5647,2.4817,2.4497,2.4497,0.0,2.4411,2.4282,2.4153,2.398,2.3797,2.3797,2.3927,2.4067,2.3841,2.3937,2.4067,2.3797,2.3624,2.3503,2.3503,2.3503,2.3547,2.3634,2.3807,2.397,0.0,0.0,0.0,0.0,0.0,0.0,0.0,0.0,0.0,0.0,0.0,0.0,0.0,0.0,0.0,3.0986,0.0,0.0,0.0,3.3727,3.4699,3.579,3.641,0.0,0.0,0.0,3.6492,3.6492,3.6492,3.6492,3.6492,3.6492,3.6492,3.6492,3.6492,3.6492,3.6492,3.6492,3.6492,3.6492,3.6492,3.6585,3.6693,3.6693,3.6892,3.7194,3.7194,3.7329,3.751,3.751,3.751,3.751,2.6288,2.6594,2.6989,2.7422,2.7189,2.6843,2.6701,2.666,2.6748,2.6982,2.7393,2.7806,2.7988,2.8184,2.8014,2.7359,2.7906,2.8014,2.7349,2.8014,2.8461,2.8461,2.8384,2.8314,2.8271,2.7613,2.7142,2.69,2.5955,0.0,2.5179,0.0,0.0,0.0,0.0,2.4642,2.49,2.5192,2.5409,2.5533,2.4786,2.4497,0.0,2.4497,2.4497,2.4497,2.4378,2.4239,2.411,2.411,2.4196,2.4282,2.4143,2.4196,2.4282,2.4024,2.3894,2.3764,2.3677,2.359,2.3503,2.3634,2.3667,2.3711,2.398,2.411,2.4249,0.0,2.5137,2.608,0.0,0.0,0.0,0.0,0.0,0.0,0.0,0.0,0.0,0.0,3.0986,0.0,0.0,3.3206,3.3882,3.4331,3.5681,0.0,0.0,0.0,3.6492,3.6492,3.6492,3.6492,3.6492,3.6492,3.6492,3.6492,3.6492,3.6492,3.6476,3.6184,3.6045,3.6045,3.6045,3.6107,3.6214,3.6646,3.6938,3.7119,3.727,3.7405,3.751,3.751,3.751,3.751,2.7297,2.7424,2.7687,2.8177,2.8453,2.8373,2.7479,2.7369,2.7369,2.7369,2.7754,2.799,2.799,2.8212,2.8344,2.8344,2.8344,2.8344,2.8344,2.8621,2.8727,2.8727,2.8983,2.8961,2.863,2.8401,2.7921,2.7122,2.6362,0.0,0.0,0.0,0.0,0.0,0.0,0.0,0.0,2.459,2.4848,2.523,2.4776,2.459,2.459,2.459,2.4549,2.4497,2.4497,2.4497,2.4497,2.4497,2.4497,2.4497,2.4497,2.4497,2.4454,2.4292,2.4206,2.4163,2.3927,2.3711,2.359,2.3754,2.3667,2.359,2.3797,2.4024,2.4206,2.4249,2.4978,2.5913,2.6905,0.0,0.0,0.0,0.0,0.0,0.0,0.0,0.0,0.0,0.0,0.0,0.0,0.0,0.0,0.0,0.0,0.0,0.0,0.0,3.646,3.6492,3.6492,3.6492,3.6492,3.6492,3.6492,3.6492,3.6492,3.6445,3.6338,3.5783,3.546,3.5383,3.5383,3.5383,3.5429,3.6427,3.6921,3.706,3.7391,3.751,3.751,3.751,3.751,3.751,2.8292,2.8447,2.8572,2.8843,2.927,2.9491,2.9357,2.9367,2.9367,2.9367,2.9427,2.9413,2.9413,2.8949,2.8631,2.8631,2.8631,2.8631,2.8631,2.8877,2.9026,2.9026,2.9079,2.9197,2.9389,2.8961,2.8635,0.0,2.7086,2.6262,2.5751,0.0,0.0,0.0,0.0,0.0,2.5065,2.5065,0.0,2.573,2.5285,2.5065,2.5065,2.5065,2.4828,2.4497,2.4497,2.4497,2.4497,2.4497,2.4497,2.4497,2.4497,2.4497,2.4497,2.4454,2.4325,2.4206,2.4153,2.3937,2.3754,2.3797,2.3754,2.3797,2.4067,2.4163,2.4249,2.4411,2.4615,2.5232,2.6823,0.0,0.0,0.0,0.0,0.0,0.0,0.0,0.0,0.0,0.0,3.1026,0.0,0.0,0.0,0.0,0.0,0.0,0.0,0.0,3.6352,0.0,3.6492,3.6492,0.0,0.0,3.6492,3.6492,3.6492,3.6199,3.566,3.5568,3.5213,3.469,3.469,3.469,3.4736,3.5578,3.6423,3.721,3.7405,3.751,3.751,3.751,3.751,3.751,2.9307,2.9429,2.9608,2.9992,3.0387,3.0676,3.0901,3.1201,3.0999,3.0025,2.9668,2.9464,2.9464,2.9113,2.893,2.893,2.893,2.893,2.893,2.9195,2.9343,2.9343,2.9511,2.9617,2.9774,2.9343,2.8931,2.8618,2.7479,2.6615,2.5865,2.5202,0.0,0.0,0.0,2.4621,0.0,0.0,0.0,2.5544,2.5564,2.543,2.5189,2.5189,2.49,2.4497,2.4497,2.4497,2.4497,2.4497,2.4497,2.4497,2.4497,2.4497,2.4497,2.4497,2.4411,2.4378,2.4378,2.4196,2.4024,2.4024,2.3884,2.3841,2.398,2.3927,2.3921,2.4284,2.4268,2.4798,2.6737,2.8661,0.0,0.0,0.0,0.0,0.0,0.0,3.0986,0.0,0.0,0.0,0.0,0.0,0.0,0.0,0.0,3.448,3.4533,0.0,3.6383,0.0,0.0,0.0,3.6492,0.0,3.6492,3.6492,3.6492,3.6138,3.5506,3.5152,3.4813,3.4474,3.412,3.4166,3.4551,3.5467,3.6449,3.7359,3.7464,3.751,3.751,3.751,3.751,3.751,3.0332,3.0419,3.0584,3.096,3.1278,3.164,3.1926,3.238,3.2174,3.0665,2.9992,2.9657,2.9657,2.9412,2.9185,2.9185,2.9185,2.9185,2.9185,2.9501,2.9669,2.9669,2.9889,2.9994,2.9994,2.9642,2.9177,0.0,0.0,2.6879,2.5875,2.543,0.0,0.0,0.0,0.0,0.0,0.0,2.543,2.5544,2.5885,2.5761,2.5368,2.5368,2.4983,2.454,2.47,2.4786,2.4775,2.4988,2.4828,2.454,2.4743,2.4786,2.4818,2.4988,2.5031,2.5031,2.5031,2.4946,2.4818,2.4818,2.468,2.4498,2.4498,2.4157,2.4033,2.4556,2.467,2.5243,2.7059,2.8752,0.0,0.0,0.0,0.0,0.0,0.0,0.0,0.0,0.0,0.0,3.0999,0.0,0.0,0.0,0.0,3.3925,3.391,3.5529,3.646,0.0,0.0,3.6492,3.6492,0.0,3.6492,3.6492,3.6492,3.6138,3.546,3.4951,3.4643,3.4459,3.3706,3.3842,3.4668,3.5601,3.6599,3.751,3.751,3.751,3.751,3.751,3.751,3.751,3.1401,3.1472,3.1451,3.1378,3.1712,3.1936,3.1977,3.238,3.2628,3.2437,3.1729,3.1192,3.1192,3.0224,2.9554,2.9554,2.9554,2.9554,2.9554,2.9827,2.9942,2.9942,2.9994,2.9994,2.9994,2.9953,2.9497,0.0,0.0,2.7179,0.0,2.543,0.0,0.0,0.0,0.0,0.0,2.5637,2.6061,2.6444,2.6532,2.6227,2.5813,2.5813,2.5285,2.4615,2.5379,2.5663,2.5788,2.6577,2.581,2.4658,2.5421,2.5663,2.583,2.6618,2.6864,2.6864,2.6864,2.6823,2.6823,2.6823,2.6823,2.6782,2.6782,2.5869,2.5253,2.5943,2.6732,2.7489,2.8235,2.9314,3.0152,0.0,0.0,0.0,0.0,0.0,3.0986,3.0986,0.0,0.0,0.0,3.1914,0.0,0.0,3.298,3.3596,3.3705,3.532,3.6305,3.6492,3.6492,3.6492,3.6492,3.6492,3.6492,3.6492,3.6492,3.6138,3.5506,3.5414,3.5075,3.4459,3.3706,3.397,3.4927,3.5689,3.6599,3.751,3.751,3.751,3.751,3.751,3.751,3.751,3.1983,3.1938,3.1896,3.2112,3.2106,3.2081,3.2359,3.2556,3.2669,3.2669,3.2168,3.1774,3.1774,3.0838,3.0238,3.0238,2.9991,2.9827,2.9827,2.9942,2.9994,2.9994,2.9994,2.9994,2.9994,2.9994,2.9673,0.0,0.0,0.0,0.0,0.0,0.0,0.0,0.0,2.5616,2.5647,2.6103,2.6449,2.6635,2.6915,2.7064,2.7147,2.6813,2.665,2.6583,2.6606,2.6565,2.6648,2.6976,2.6618,2.6133,2.6483,2.6565,2.6648,2.6987,2.711,2.711,2.711,2.711,2.711,2.711,2.711,2.711,2.711,2.624,2.5594,2.6177,2.6972,2.7666,2.7921,2.9118,3.019,3.0368,0.0,0.0,0.0,0.0,0.0,3.0986,0.0,3.1235,0.0,0.0,0.0,0.0,0.0,3.4548,3.443,3.5935,3.6702,3.6507,0.0,3.6492,3.6492,3.6492,3.6492,3.6492,3.6492,3.6138,3.5506,3.5506,3.5136,3.452,3.4599,3.4991,3.558,3.5861,3.6599,3.751,3.751,3.751,3.751,3.751,3.751,3.751,3.243,3.2287,3.2287,3.2618,3.2401,3.2297,3.2628,3.2669,3.2669,3.2669,3.239,3.2132,3.1998,3.1226,3.0688,3.0688,3.0263,2.9994,2.9994,2.9994,2.9994,2.9994,2.9994,0.0,2.9994,2.9994,2.9766,2.9301,2.898,0.0,0.0,0.0,0.0,0.0,2.602,2.6127,2.6159,2.6625,2.6952,2.7252,2.7589,2.8025,2.8399,2.8011,2.7935,2.7969,2.7795,2.7644,2.7557,2.781,2.7891,2.7851,2.7597,2.7516,2.7557,2.781,2.7891,2.7891,2.7891,2.7891,2.7891,2.7891,2.7891,2.7891,2.7891,2.7038,2.6298,2.643,2.7016,2.7625,2.7942,2.9036,3.0037,3.0343,0.0,0.0,0.0,3.0986,0.0,3.0986,3.113,3.1169,3.0999,3.1831,0.0,0.0,0.0,0.0,3.4593,3.6106,0.0,0.0,0.0,0.0,3.6492,3.6492,3.6492,3.6492,3.6492,3.6245,3.5784,3.5784,3.5444,3.4844,3.5506,3.5858,3.603,3.6204,3.6772,3.751,3.751,3.751,3.751,3.751,3.751,3.751,3.2669,3.2669,3.2669,3.2669,3.2727,3.2669,3.2669,3.2669,3.2669,3.2669,3.2727,3.2494,3.2039,3.1226,3.0688,3.0688,3.0263,2.9994,2.9994,2.9994,2.9994,0.0,0.0,2.9994,2.9994,2.9994,2.9766,2.9301,0.0,0.0,2.7289,0.0,2.593,2.5941,2.6397,2.6604,2.6635,2.7102,2.7846,2.8667,2.8678,2.9013,2.9489,2.9477,2.8879,2.8099,2.8957,2.8948,2.8621,2.9495,2.9753,2.9624,2.8752,2.8502,2.8661,2.9495,2.9753,2.9753,2.9753,2.9753,2.9753,2.9753,2.9753,2.9753,2.9753,2.8739,2.7615,2.6997,2.709,2.7632,2.8687,2.9238,2.969,3.0304,0.0,0.0,0.0,3.0986,0.0,3.0986,3.1483,3.1575,3.1039,3.2684,0.0,0.0,0.0,0.0,0.0,0.0,0.0,3.6492,3.6492,0.0,3.6492,3.6492,3.6492,3.6492,3.6492,3.6492,3.6476,3.6476,3.6107,3.5537,3.6184,3.6291,3.6032,3.6718,3.7181,3.751,3.751,3.751,3.751,3.751,3.751,3.751,3.2669,3.2669,3.2669,3.2669,3.2669,3.2669,3.2669,3.2669,3.2669,3.2669,3.2669,3.2618,3.2473,3.1915,3.1485,0.0,3.0739,3.0336,0.0,2.9994,2.9994,2.9994,2.9994,2.9994,2.9994,2.9994,2.9922,2.9777,0.0,0.0,0.0,2.7407,2.7107,2.6874,2.7019,2.7447,2.8043,2.8204,2.8806,2.9715,2.9875,3.046,3.1149,3.0723,3.0816,3.1079,3.0552,3.0298,3.0125,3.0202,3.0228,3.0139,2.9896,2.9599,2.9456,2.9714,2.9792,2.9792,2.9792,2.9792,2.9792,2.9792,2.9792,2.9792,2.9792,2.9136,2.8374,2.7817,2.8211,2.8683,2.9037,2.9768,3.0365,3.0583,3.0836,0.0,3.0986,0.0,3.0986,3.0986,3.1143,3.1182,3.0999,3.2447,0.0,0.0,0.0,0.0,0.0,0.0,0.0,0.0,3.6492,0.0,3.6492,3.6492,3.6492,3.6492,3.6492,3.6492,3.6492,3.6492,3.6368,3.6184,3.6399,3.6492,3.649,3.686,3.7105,3.73,3.7435,3.751,3.751,3.751,3.751,3.751,3.2784,3.2669,3.2669,3.2669,3.2669,3.2669,3.2669,3.2669,3.2669,3.2669,3.2669,3.2669,3.2669,3.2421,0.0,3.1433,3.0957,3.0491,3.0025,2.9994,3.0193,3.0588,3.0193,3.0193,3.0588,3.0193,0.0,2.9994,2.9528,2.8918,2.8183,2.8387,2.8253,2.7857,2.8211,2.8713,2.9268,2.9349,2.9977,3.089,3.1089,3.1765,3.2593,3.2233,3.2336,3.2625,3.1896,3.1514,3.1312,3.1111,3.0894,3.0676,3.0676,3.0394,3.0049,3.0049,3.0049,3.0049,3.0049,3.0049,3.0049,3.0049,3.0049,3.0049,3.0049,2.9479,2.8937,2.8671,2.8807,2.9082,2.9286,2.9892,3.0439,3.0659,3.0874,3.0986,3.0986,0.0,3.0986,0.0,0.0,0.0,0.0,3.2573,3.33,0.0,0.0,0.0,0.0,0.0,3.6781,3.6507,3.6492,3.6492,3.6492,3.6492,3.6492,3.6492,3.6492,3.6492,3.6492,3.6492,3.6492,3.6492,3.6492,3.6585,3.6723,3.6831,3.6998,3.7224,3.7329,3.7435,3.751,3.751,3.751,3.751,3.3058,3.2784,3.2727,3.2784,3.2784,3.2727,3.2887,3.2898,3.2841,3.2841,3.2841,3.2784,3.2727,3.2669,3.2375,3.1505,0.0,0.0,3.0172,3.0214,3.0692,3.1688,3.0744,3.0692,3.1677,3.0744,3.0203,3.0099,2.9766,2.9307,2.8788,2.9327,2.9365,2.8907,2.9863,3.0295,3.0351,3.0508,3.119,3.2164,3.2358,3.2963,3.3725,3.3725,3.3434,3.2972,3.2934,3.2587,3.2179,3.214,3.1768,3.1304,3.1304,3.092,3.0496,3.0419,3.0406,3.0406,3.0406,3.0406,3.0406,3.0406,3.0406,3.0406,3.0406,2.9833,2.9351,2.9512,2.9177,2.9008,2.9497,2.9759,3.0088,3.0645,3.0874,3.0986,3.0986,3.1048,3.1099,0.0,0.0,0.0,3.2123,3.3038,3.3953,0.0,0.0,0.0,0.0,0.0,3.6492,3.6492,3.6492,3.6492,3.6492,3.6492,3.6492,3.6492,3.6492,3.6492,3.6492,3.6492,3.6492,3.6492,3.6492,3.6569,3.6693,3.6693,3.6892,3.7194,3.7194,3.7329,3.751,3.751,3.751,3.751,3.4155,3.3332,3.3001,3.3931,3.3332,3.3321,3.5113,3.4625,3.4099,3.4099,3.4099,3.3717,3.2784,3.2669,3.2442,3.193,3.2187,3.2179,3.1758,3.2203,3.2549,3.2801,3.26,3.2549,3.2801,3.2549,3.2044,3.1227,3.1933,3.1612,3.0392,3.1307,3.1319,3.0466,3.0698,3.1073,3.1569,3.1613,3.2271,3.333,3.3586,3.381,3.3992,3.3992,3.3943,3.3775,3.3294,3.3062,3.2881,3.263,3.2475,3.2332,3.2332,3.1941,3.1318,3.0611,3.0406,3.0406,3.0406,3.0406,3.0406,3.0406,3.0406,3.0406,3.0406,3.0253,3.0125,3.0163,3.0224,3.0261,3.039,3.059,3.0755,3.0898,3.0986,3.0986,3.0986,3.1468,3.1846,0.0,3.234,3.2804,3.3143,3.4022,3.4695,0.0,0.0,3.646,3.6492,3.6492,3.6492,3.6492,3.6492,3.6492,3.6492,3.6492,3.6492,3.6492,3.6492,3.6492,3.6492,3.6492,3.6492,3.6492,3.6492,3.6523,3.6554,3.6662,3.6846,3.7044,3.7164,3.7329,3.751,3.751,3.751,3.751,3.5278,3.4736,3.4514,3.5168,3.4736,3.4736,3.6022,3.5651,3.5278,3.5278,3.4792,3.4256,3.3604,3.3058,3.2576,3.2318,3.2681,3.2756,3.2339,3.287,3.34,3.3895,3.3449,3.3449,3.3944,3.3449,3.2901,3.2336,3.3028,3.2815,3.1833,3.2953,3.2971,3.2007,3.2427,3.2685,3.2803,3.2902,3.333,3.3894,3.4147,3.4243,3.4243,3.4243,3.4243,3.4191,3.3851,3.3734,3.3736,3.3533,3.3313,3.3104,3.3104,3.2515,3.1694,3.1189,3.0879,3.0672,3.0672,3.0672,3.0672,3.0672,3.0609,3.0558,3.0634,3.0596,3.0558,3.0672,3.0761,3.0849,3.0849,3.0911,3.0986,3.0986,3.0986,3.1123,3.1468,3.1846,3.2254,3.2684,3.3073,3.3541,3.409,3.4662,3.5157,3.5561,3.6148,0.0,3.6492,3.6492,3.6492,3.6492,3.6492,3.6492,3.6492,3.6492,3.6492,3.6492,3.6492,3.6492,3.6492,3.6492,3.6492,3.6492,3.6492,3.6492,3.6523,3.6569,3.6708,3.6892,3.7044,3.721,3.7359,3.748,3.751,3.751,3.6468,3.6306,3.624,3.6414,3.6294,3.6294,3.6673,3.6565,3.6468,3.6468,3.5608,3.4969,3.4803,3.3818,3.3218,3.3218,3.3421,3.3279,3.2647,3.3389,3.4174,3.503,3.419,3.4091,3.5017,3.4141,3.3598,3.3449,3.3859,3.3783,3.3275,3.4516,3.4499,3.3548,3.435,3.4353,3.3768,3.3992,3.4118,3.416,3.4314,3.4397,3.4397,3.4397,3.4397,3.4397,3.4397,3.4397,3.4397,3.4397,3.4097,3.3718,3.3718,3.2973,3.2045,3.1954,3.1561,3.1091,3.1013,3.0986,3.0986,3.0986,3.0874,3.0811,3.0949,3.0874,3.0811,3.0949,3.0986,3.0986,3.0986,3.0986,3.0986,3.0986,3.1086,3.1394,3.2051,0.0,3.2777,3.3596,3.3817,3.4192,3.5008,3.519,3.5546,3.6211,3.6383,3.6492,3.6492,3.6492,3.6492,3.6492,3.6492,3.6492,3.6492,3.6492,3.6492,3.6492,3.6492,3.6492,3.6492,3.6492,3.6492,3.6492,3.6492,3.6492,3.6492,3.6492,3.6616,3.6754,3.6938,3.7105,3.7254,3.7435,3.751,3.751,3.7619,3.6846,3.6522,3.7447,3.6846,3.6846,3.8868,3.8267,3.7619,3.7619,3.7512,3.7019,3.6034,3.5761,3.5651,3.5651,3.6149,3.58,3.4248,3.5687,3.645,3.6181,3.6013,3.5966,3.6156,3.6013,3.5475,3.4532,3.569,3.5748,3.4848,3.616,3.6136,3.5067,3.5213,3.4812,3.4034,3.4076,3.4202,3.4356,3.4397,3.4397,3.4397,3.4397,3.4397,3.4397,3.4397,3.4397,3.4397,3.4397,3.4345,3.428,3.428,3.3835,3.3221,3.2712,3.2163,3.1562,3.1117,3.0986,3.0986,3.0986,3.0986,3.0949,3.0986,3.0986,3.0949,3.0986,3.0986,3.0986,3.0986,3.0986,3.0986,3.0986,3.1529,3.2015,3.229,0.0,3.4312,3.4643,3.5219,3.572,3.5975,3.6038,3.6133,3.6414,3.6492,3.6492,3.6492,3.6492,3.6492,3.6492,3.6492,3.6492,3.6492,3.6492,3.6492,3.6492,3.6492,3.6492,3.6492,3.6492,3.6492,3.6492,3.6492,3.6492,3.6492,3.6492,3.6677,3.6969,3.6984,3.7181,3.7464,3.748,3.751,3.751,3.8764,3.8437,3.8267,3.8764,3.8437,3.8425,3.953,3.9258,3.8868,3.8868,3.8319,3.7725,3.7168,3.6576,3.6185,3.6185,3.7009,3.7087,3.598,3.6738,3.6935,3.643,3.6405,3.6405,3.6405,3.6405,3.6203,3.5846,3.6568,3.6769,3.6439,3.7214,3.6884,3.5784,3.6108,3.5703,3.4767,3.4767,3.4796,3.4855,3.4528,3.4397,3.4397,3.4397,3.4397,3.4397,3.4397,3.4397,3.4397,3.4397,3.4397,3.4397,3.4397,3.4031,3.3535,3.326,3.2319,3.1326,3.1052,3.0986,3.0986,3.0986,3.0986,3.0986,3.0986,3.0986,3.0986,3.0986,3.0986,3.0986,3.0986,3.1334,3.1603,3.1603,3.2196,3.2897,3.3512,3.4177,3.4861,3.5512,3.5911,3.6179,3.6352,3.6352,3.6383,3.6492,3.6492,3.6492,3.6492,3.6492,3.6492,3.6492,3.6492,3.6492,3.6492,3.6492,3.6492,3.6492,3.6492,3.6492,3.6492,3.6492,3.6492,3.6492,3.6492,3.6492,3.6492,3.6492,3.6585,3.6754,3.68,3.6984,3.7241,3.73,3.7405,3.751,3.953,3.9697,3.9697,3.9697,3.9697,3.9697,3.9697,3.9697,3.9697,3.9697,3.8868,3.8332,3.8332,3.7554,3.7007,3.7007,3.7832,3.8101,3.7567,3.7457,3.7123,3.6619,3.648,3.6405,3.6405,3.6452,3.6534,3.6709,3.7015,3.7307,3.7505,3.7749,3.7338,3.6332,3.6789,3.6436,3.5482,3.5482,3.5482,3.5443,3.4986,3.4789,3.4776,3.4659,3.4607,3.458,3.445,3.4397,3.4397,3.4397,3.4397,3.4397,3.4397,3.411,3.3757,3.3626,3.245,3.1156,3.1013,3.0986,3.0986,3.0986,3.0986,3.0986,3.0986,3.0986,3.0986,3.0986,3.0986,3.0986,3.0986,3.1603,3.211,3.211,0.0,3.3802,3.4562,3.4828,3.5302,3.6179,3.6274,3.6352,3.6492,3.6492,3.6492,3.6492,3.6492,3.6492,3.6492,3.6492,3.6492,3.6492,3.6492,3.6492,3.6492,3.6492,3.6492,3.6492,3.6492,3.6492,3.6492,3.6492,3.6492,3.6492,3.6492,3.6492,3.6492,3.6492,3.6523,3.6554,3.6662,3.6846,3.7044,3.7164,3.7329,3.751,3.9685,3.9697,3.9697,3.9697,3.9697,3.9697,3.9697,3.9697,3.9697,3.9697,3.9633,3.9581,3.9581,3.9478,3.9413,3.9413,3.953,3.9343,3.8792,3.8241,3.7701,3.7149,3.6681,3.6405,3.6405,3.6581,3.6675,3.6709,3.7214,3.7505,3.7505,3.7749,3.756,3.6946,3.6985,3.6645,3.6044,3.6044,3.6044,3.6044,3.5992,3.5979,3.5926,3.5417,3.5234,3.5155,3.4593,3.4397,3.4397,3.4397,3.4397,3.4397,3.4397,3.4371,3.4241,3.3744,3.2725,3.1628,3.113,3.0986,3.0986,3.0986,3.0986,3.0986,3.0986,3.0986,3.0986,3.0986,3.0986,3.0986,3.0986,3.1603,3.211,3.211,0.0,0.0,3.4843,3.5576,3.6179,3.646,3.6492,3.6492,3.6492,3.6492,3.6492,3.6492,3.6492,3.6492,3.6492,3.6492,3.6492,3.6492,3.6492,3.6492,3.6492,3.6492,3.6492,3.6492,3.6492,3.6492,3.6492,3.6492,3.6492,3.6492,3.6492,3.6492,3.6492,3.6492,3.6569,3.6693,3.6693,3.6892,3.7194,3.7194,3.7329,3.751,3.9697,3.9697,3.9697,3.9697,3.9697,3.9697,3.9697,3.9697,3.9697,3.9697,3.9697,3.9697,3.9697,3.9697,3.9697,3.9697,3.9697,3.9597,3.9396,3.8517,3.7613,3.6757,3.6613,3.6581,3.6581,3.6815,3.7015,3.7214,3.74,3.7611,3.7749,3.7854,3.7586,3.7024,3.739,3.722,3.6658,3.6658,3.6658,3.6632,3.6253,3.6109,3.6083,3.5874,3.5796,3.573,3.5155,3.4959,3.4894,3.4528,3.4397,3.4397,3.4397,3.4397,3.4293,3.3757,3.3012,3.2241,3.1628,3.1261,3.0986,3.0986,3.0986,3.0986,3.0986,3.0986,3.1123,3.1603,3.1334,3.1272,3.2209,3.2698,3.3108,3.3581,0.0,3.5512,3.5672,3.6006,3.6274,3.6492,3.6492,3.6492,3.6492,3.6492,3.6492,3.6492,3.6492,3.6492,3.6492,3.6492,3.6492,3.6492,3.6492,3.6492,3.6492,3.6492,3.6492,3.6492,3.6492,3.6492,3.6492,3.6492,3.6492,3.6492,3.6492,3.6492,3.6492,3.6492,3.6523,3.6585,3.6585,3.6785,3.7075,3.7075,3.7271,3.751,3.9697,3.9697,3.9697,3.9697,3.9697,3.9697,3.9697,3.9697,3.9697,3.9697,3.9697,3.9697,3.9697,3.9697,3.9697,3.9697,3.9697,3.9697,3.9697,3.863,3.7561,3.655,3.6722,3.6815,3.6815,3.7108,3.7307,3.7505,3.7564,3.7703,3.79,3.79,3.7678,3.7299,3.7717,3.7678,3.7286,3.7286,3.7286,3.7246,3.6828,3.6671,3.6645,3.6449,3.6384,3.6292,3.5561,3.5299,3.5208,3.4607,3.4397,3.4397,3.4397,3.4397,3.4293,3.3757,3.33,3.2816,3.2006,3.151,3.1209,3.1026,3.0986,3.1048,3.1296,3.1371,3.1529,3.2304,3.2028,3.1992,3.3017,3.3561,3.4007,3.4528,3.5415,3.6085,3.6179,3.6242,3.6352,3.6492,3.6492,3.6492,3.6492,3.6492,3.6492,3.6492,3.6492,3.6492,3.6492,3.6492,3.6492,3.6492,3.6492,3.6492,3.6492,3.6492,3.6492,3.6492,3.6492,3.6492,3.6492,3.6492,3.6492,3.6492,3.6492,3.6492,3.6492,3.6492,3.6492,3.6492,3.6492,3.6708,3.7015,3.7015,3.7211,3.751,3.9697,3.9697,3.9697,3.9697,3.9697,3.9697,3.9697,3.9697,3.9697,3.9697,3.9697,3.9697,3.9697,3.9697,3.9697,3.9697,3.9697,3.9697,3.9685,3.863,3.761,3.676,3.6968,3.7108,3.7108,3.7366,3.7505,3.7505,3.7762,3.79,3.79,3.79,3.79,3.79,3.79,3.79,3.79,3.79,3.79,3.79,3.79,3.79,3.7835,3.7246,3.7011,3.6867,3.5717,3.5312,3.5208,3.4607,3.4397,3.4397,3.4397,3.4397,3.4293,3.3757,3.3587,3.3339,3.2137,3.181,3.1667,3.113,3.0986,3.1185,3.1942,3.211,3.229,3.3073,3.3213,3.3213,3.3213,3.3973,3.4595,3.4595,3.5497,3.6196,3.6196,3.6383,3.6492,3.6492,3.6492,3.6492,3.6492,3.6492,3.6492,3.6492,3.6492,3.6492,3.6492,3.6492,3.6492,3.6492,3.6492,3.6492,3.6492,3.6492,3.6492,3.6492,3.6492,3.6492,3.6492,3.6492,3.6492,3.6492,3.6492,3.6492,3.6492,3.6492,3.6492,3.6492,3.6492,3.6693,3.7015,3.7015,3.7211,3.751,3.9697,3.9697,3.9697,3.9697,3.9697,3.9697,3.9697,3.9697,3.9697,3.9697,3.9697,3.9697,3.9697,3.9697,3.9697,3.9697,3.9697,3.9358,3.8567,3.8562,3.8107,3.7019,3.7062,3.7201,3.7366,3.7657,3.7762,3.7762,3.7854,3.79,3.79,3.79,3.79,3.79,3.79,3.79,3.79,3.79,3.79,3.79,3.79,3.79,3.7887,3.7704,3.7639,3.7534,3.6776,3.6227,3.5783,3.5221,3.475,3.4397,3.4397,3.4397,3.4358,3.4201,3.3888,3.3522,3.3169,3.2764,3.2202,3.1222,3.0986,3.1185,3.1942,3.2218,3.2684,3.3939,3.3856,3.3891,3.4975,3.5059,3.5124,3.5625,3.6116,3.6414,3.6414,3.646,3.6492,3.6492,3.6492,3.6492,3.6492,3.6492,3.6492,3.6492,3.6492,3.6492,3.6492,3.6492,3.6492,3.6492,3.6492,3.6492,3.6492,3.6492,3.6492,3.6492,3.6492,3.6492,3.6492,3.6492,3.6492,3.6492,3.6492,3.6492,3.6492,3.6492,3.6492,3.6492,3.6492,3.6616,3.68,3.6938,3.7105,3.73,3.9697,3.9697,3.9697,3.9697,3.9697,3.9697,3.9697,3.9697,3.9697,3.9697,3.9697,3.9697,3.9697,3.9697,3.9736,3.9839,3.9839,3.9549,3.8856,3.8928,3.8753,3.829,3.7827,3.7632,3.7657,3.7808,3.79,3.79,3.79,3.79,3.79,3.79,3.79,3.79,3.79,3.79,3.79,3.79,3.79,3.79,3.79,3.79,3.79,3.79,3.79,3.7821,3.722,3.6776,3.6371,3.5809,3.5234,3.4711,3.4476,3.4397,3.4397,3.4397,3.4162,3.3862,3.3652,3.3326,3.2829,3.1888,3.1749,3.2008,3.2868,3.3164,3.3616,3.4894,3.4861,3.4879,3.5831,3.5752,3.5689,3.6133,3.6383,3.6492,3.6492,3.6492,3.6492,3.6492,3.6492,3.6492,3.6492,3.6492,3.6492,3.6492,3.6492,3.6492,3.6492,3.6492,3.6492,3.6492,3.6492,3.6492,3.6492,3.6492,3.6492,3.6492,3.6492,3.6492,3.6492,3.6492,3.6492,3.6492,3.6492,3.6492,3.6492,3.6492,3.6492,3.6492,3.6492,3.6647,3.6831,3.6969,3.7151,3.7329,3.9697,3.9697,3.9697,3.9697,3.9697,3.9697,3.9749,3.9749,3.9697,3.9749,3.9697,3.9697,3.9697,3.9749,3.9839,4.0032,4.0083,4.0058,4.0058,3.9601,3.9509,3.9915,3.9029,3.8353,3.7991,3.7926,3.79,3.79,3.79,3.79,3.79,3.79,3.79,3.79,3.79,3.79,3.79,3.79,3.79,3.79,3.79,3.79,3.79,3.79,3.79,3.7835,3.7286,3.705,3.6907,3.6253,3.5704,3.5195,3.458,3.4397,3.4397,3.4397,3.4397,3.4293,3.3796,3.3666,3.3562,3.3106,3.316,3.3487,3.4389,3.4591,3.4909,3.5831,3.6037,3.6037,3.6037,3.6148,3.6242,3.6242,3.6383,3.6492,3.6492,3.6492,3.6492,3.6492,3.6492,3.6492,3.6492,3.6492,3.6492,3.6492,3.6492,3.6492,3.6492,3.6492,3.6492,3.6492,3.6492,3.6492,3.6492,3.6492,3.6492,3.6492,3.6492,3.6492,3.6492,3.6492,3.6492,3.6492,3.6492,3.6492,3.6492,3.6492,3.6492,3.6492,3.6492,3.6677,3.6969,3.706,3.7301,3.7553,3.9697,3.9697,3.9697,3.9697,3.9697,3.9788,3.9981,3.9839,3.9788,3.9981,3.9839,3.9697,3.9697,3.989,3.9929,3.9788,3.9788,3.9803,3.9776,3.961,3.949,3.9395,3.9355,3.9094,3.8553,3.8122,3.79,3.79,3.79,3.79,3.79,3.79,3.79,3.79,3.79,3.79,3.79,3.79,3.79,3.79,3.79,3.79,3.79,3.79,3.79,3.7887,3.7756,3.7403,3.6841,3.5822,3.5391,3.5195,3.458,3.4397,3.4397,3.4397,3.4397,3.4371,3.4254,3.4228,3.4427,3.525,3.5483,3.533,3.4548,3.468,3.5222,3.6006,3.6289,3.6398,3.6398,3.6429,3.6414,3.6414,3.646,3.6492,3.6492,3.6492,3.6492,3.6492,3.6492,3.6492,3.6492,3.6492,3.6492,3.6492,3.6492,3.6492,3.6492,3.6492,3.6492,3.6492,3.6492,3.6492,3.6492,3.6492,3.6492,3.6492,3.6492,3.6492,3.6492,3.6492,3.6492,3.6492,3.6492,3.6492,3.6492,3.6492,3.6492,3.6492,3.6492,3.6616,3.6846,3.7415,3.7767,3.8059,3.9697,3.9697,3.9697,3.9697,3.9697,3.9736,3.989,3.989,3.9929,4.007,3.9981,3.989,3.989,3.989,3.989,3.989,3.9993,4.0122,4.0269,4.0243,4.0201,4.0177,4.005,3.9847,3.9534,3.8998,3.8449,3.79,3.79,3.79,3.79,3.79,3.79,3.79,3.79,3.79,3.79,3.79,3.79,3.79,3.79,3.79,3.79,3.79,3.79,3.79,3.79,3.7704,3.726,3.6083,3.5678,3.5534,3.4672,3.4397,3.4397,3.4397,3.4397,3.4397,3.4397,3.4397,3.4678,3.5802,3.623,3.6325,3.6219,3.6145,3.6237,3.6716,3.6644,3.6492,3.6492,3.6492,3.6492,3.6492,3.6492,3.6492,3.6492,3.6492,3.6492,3.6492,3.6492,3.6492,3.6492,3.6492,3.6492,3.6492,3.6492,3.6492,3.6492,3.6492,3.6492,3.6492,3.6492,3.6492,3.6492,3.6492,3.6492,3.6492,3.6492,3.6492,3.6492,3.6492,3.6492,3.6492,3.6492,3.6492,3.6492,3.6492,3.6492,3.6492,3.6492,3.6647,3.6907,3.7576,3.8153,3.8673,3.9697,3.9697,3.9697,3.9697,3.9697,3.9749,3.9736,3.9981,4.0134,4.0173,4.0134,4.0134,4.0173,3.9993,3.9942,4.0287,4.044,4.0643,4.0946,4.0933,4.1047,4.1261,4.084,4.0527,4.0409,3.9978,3.9194,3.8044,3.8044,3.7991,3.79,3.79,3.79,3.79,3.79,3.79,3.79,3.79,3.79,3.79,3.79,3.79,3.79,3.79,3.79,3.79,3.79,3.79,3.773,3.6515,3.6109,3.59,3.4763,3.4397,3.4397,3.4397,3.4439,3.4481,3.4481,3.4592,3.4991,3.6042,3.663,3.7223,3.8398,3.8034,3.7453,3.7645,3.7138,3.6661,3.6661,3.6569,3.6492,3.6492,3.6492,3.6492,3.6492,3.6492,3.6492,3.6492,3.6492,3.6492,3.6492,3.6492,3.6492,3.6492,3.6492,3.6492,3.6492,3.6492,3.6492,3.6492,3.6492,3.6492,3.6492,3.6492,3.6492,3.6492,3.6492,3.6492,3.6492,3.6492,3.6492,3.6492,3.6492,3.6492,3.6492,3.6492,3.6492,3.6492,3.6523,3.6724,3.709,3.778,3.8668,3.9497,3.9697,3.9697,3.9697,3.9697,3.9697,3.9788,4.0032,4.007,4.0185,4.0402,4.0236,4.0185,4.0402,4.0402,4.0605,4.111,4.0757,4.0707,4.1211,4.1047,4.1047,4.1261,4.1232,4.0945,4.0422,4.0344,3.9743,3.8606,3.8606,3.8357,3.79,3.79,3.79,3.79,3.79,3.79,3.79,3.79,3.79,3.79,3.79,3.79,3.79,3.79,3.79,3.79,3.79,3.79,3.773,3.6515,3.6109,3.59,3.4763,3.4397,3.4397,3.4397,3.4577,3.4756,3.4756,3.5372,3.6294,3.7291,3.8103,3.8924,3.9971,3.9244,3.8337,3.8369,3.7831,3.7353,3.7353,3.6892,3.6492,3.6492,3.6492,3.6492,3.6492,3.6492,3.6492,3.6492,3.6492,3.6492,3.6492,3.6492,3.6492,3.6492,3.6492,3.6492,3.6492,3.6492,3.6492,3.6492,3.6492,3.6492,3.6492,3.6492,3.6492,3.6492,3.6492,3.6492,3.6492,3.6492,3.6492,3.6492,3.6492,3.6492,3.6492,3.6492,3.6492,3.6523,3.6631,3.68,3.7165,3.8507,3.9714,4.0662,3.9697,3.9697,3.9697,3.9697,3.9697,3.9736,3.9839,3.9981,4.0134,4.0236,4.0173,4.0185,4.0453,4.0504,4.0656,4.1047,4.0846,4.0896,4.1261,4.1211,4.1161,4.1311,4.1311,4.1193,4.0932,4.0919,4.0501,3.9664,3.9024,3.8436,3.79,3.79,3.79,3.79,3.79,3.79,3.79,3.79,3.79,3.79,3.79,3.79,3.79,3.79,3.79,3.79,3.79,3.79,3.7769,3.6894,3.6606,3.6462,3.5613,3.5142,3.4936,3.5021,3.5271,3.5413,3.5072,3.5964,3.7088,3.7672,3.8384,3.9269,4.0266,4.0028,3.949,3.9154,3.8231,3.7507,3.7507,3.6953,3.6492,3.6492,3.6492,3.6492,3.6492,3.6492,3.6492,3.6492,3.6492,3.6492,3.6492,3.6492,3.6492,3.6492,3.6492,3.6492,3.6492,3.6492,3.6492,3.6492,3.6492,3.6492,3.6492,3.6492,3.6492,3.6492,3.6492,3.6492,3.6492,3.6492,3.6492,3.6492,3.6492,3.6492,3.6492,3.6492,3.6492,3.6523,3.6662,3.7252,3.821,3.9236,4.0187,4.0912]}]]